(This page will refresh every three minutes)

Citizen's Weather Reports

count Call report agetempspeedgustdirectionrain*rain 24hrain midnighthumiditybarometerQAWeb
1 EW4023 00:00:00:00 571548000191013.1
**
 
2 EW2244 00:00:00:00 702697000501029.8
**
 
3 CW5455 00:00:00:01 6832570381030.6
**
**
4 EW0211 00:00:00:01 32641023.1
**
 
5 EW4685 00:00:00:01 60009000701019.2
**
 
6 DW1254 00:00:00:01 44000000261017.4
**
 
7 DW8935 00:00:00:01 6000161000841019.7
**
 
8 DW4178 00:00:00:01 3712305000841003.4
**
 
9 EW2420 00:00:00:01 3231035500.390811002.7
**
 
10 EW6058 00:00:00:01 41941005.1
**
 
11 EW3383 00:00:00:01 43351100.010.010.01921003.8
**
 
12 EW4913 00:00:00:01 4514132000891017.4
**
 
13 EW7227 00:00:00:01 452380000911017.0
**
 
14 DW9989 00:00:00:01 5900229000931017.9
**
 
15 FW0153 00:00:00:01 730013000901020.2
**
 
16 FW2420 00:00:00:01 2503263000751029.1  
17 FW2429 00:00:00:01 270090  
18 CW0415 00:00:00:02 493951000651005.1
**
**
19 CW0825 00:00:00:02 3500133000961020.1
**
 
20 CW8931 00:00:00:02 68132252000461020.8
**
 
21 DW4219 00:00:00:02 3704204000341011.2
**
 
22 EW8821 00:00:00:02 5301242000851016.8  
23 EW9025 00:00:00:02 348153520.010.040.02871012.4
**
 
24 EW2265 00:00:00:02 6402234000971017.0
**
 
25 DW4369 00:00:00:02 3448307000881018.5
**
 
26 CW2462 00:00:00:02 4900283000891018.2
**
 
27 EW0214 00:00:00:02 5913300000461020.3
**
 
28 DW2426 00:00:00:02 5603420891031.0  
29 FW1994 00:00:00:02 6471556000311022.4
**
 
30 FW2143 00:00:00:02 450049000861014.2
**
 
31 CW8815 00:00:00:03 421330000481013.4
**
**
32 EW7059 00:00:00:03 331323000691008.5
**
 
33 DW8389 00:00:00:03 460180000921028.3
**
 
34 EW3902 00:00:00:03 6915219000551018.6
**
 
35 DW8304 00:00:00:03 740055000561027.7
**
 
36 CW3895 00:00:00:03 5700167000901019.3  
37 EW7883 00:00:00:03 342633300.010791012.7
**
 
38 DW9728 00:00:00:03 6026337000481022.3
**
 
39 EW9480 00:00:00:03 433210621026.0
**
 
40 FW0136 00:00:00:03 48511329000241018.6  
41 EW8319 00:00:00:03 4000178000931021.0
**
 
42 DW7157 00:00:00:03 511422500891016.4
**
 
43 EW9665 00:00:00:03 7459209000421026.0
**
 
44 FW1242 00:00:00:03 36060000721022.0  
45 FW2748 00:00:00:03 4217340000471022.7
**
 
46 EW3105 00:00:00:04 57024200046805.8
**
 
47 CW9804 00:00:00:04 7221265000451031.1
**
 
48 DW8818 00:00:00:04 360064000941021.2
**
 
49 CW4740 00:00:00:04 6700220000881018.8
**
 
50 EW9334 00:00:00:04 43232890.010.010.01881006.9
**
 
51 FW0976 00:00:00:04 4913340000591024.2
**
 
52 DW0217 00:00:00:04 32101170901024.8
**
 
53 CW9319 00:00:00:04 34121433600.010921018.0
**
 
54 DW3118 00:00:00:04 490034000751005.4
**
 
55 EW3975 00:00:00:04 3900283000891016.5
**
 
56 FW1729 00:00:00:04 45496400.030.03801007.0
**
 
57 EW7893 00:00:00:04 441621800.060.06831006.4
**
 
58 EW6750 00:00:00:04 69150000591025.3
**
 
59 FW1629 00:00:00:04 33353480.010.950.01941001.2  
60 CW2037 00:00:00:04 4826360000791004.8
**
 
61 EW8011 00:00:00:05 6001116000181011.2
**
 
62 DW8067 00:00:00:05 6414208000841011.4
**
 
63 CW5015 00:00:00:05 460296000751014.6
**
 
64 EW5836 00:00:00:05 6937139000441027.6
**
 
65 CW1500 00:00:00:05 471541000851006.3
**
**
66 CW3442 00:00:00:05 310193088786.2
**
 
67 DW8868 00:00:00:05 494836000751012.2
**
 
68 DW5918 00:00:00:05 320430100.040871007.6  
69 EW9326 00:00:00:05 280023200.050771020.7
**
 
70 CW2434 00:00:00:05 37510355000801007.1
**
 
71 FW0169 00:00:00:05 3100221000841024.8
**
 
72 CW5292 00:00:00:05 46610275000831004.7
**
 
73 DW1905 00:00:00:05 65513252000781010.4
**
 
74 CW4378 00:00:00:05 4801170641021.5
**
 
75 FW1606 00:00:00:05 4101341000661016.1
**
 
76 DW9883 00:00:00:05 38003150861018.3
**
 
77 DW1489 00:00:00:05 3103400.08066
**
 
78 CW6391 00:00:00:05 734918300241030.0
**
 
79 EW8310 00:00:00:06 590114000191009.9
**
 
80 EW6460 00:00:00:06 5300160000511023.0
**
 
81 CW4751 00:00:00:06 4600279000891016.5
**
**
82 EW6012 00:00:00:06 3336315000741015.5
**
 
83 EW3995 00:00:00:06 594727200061005.4
**
 
84 DW2004 00:00:00:06 520042000561023.4
**
 
85 DW7227 00:00:00:06 350038000861018.9
**
 
86 DW5978 00:00:00:06 793693000351014.5
**
 
87 EW6500 00:00:00:06 597918500.010.01721013.2
**
 
88 EW4745 00:00:00:06 6601290581021.0
**
 
89 FW0175 00:00:00:06 67912193000811018.0  
90 FW0100 00:00:00:06 6214293000891012.7  
91 CW5002 00:00:00:06 7400123000461026.7
**
 
92 CW6318 00:00:00:06 3601101000961021.1
**
 
93 EW1525 00:00:00:06 39010000821005.9
**
 
94 FW1219 00:00:00:06 3432250831033.2  
95 FW2662 00:00:00:06 52145074983.1
**
 
96 CW2708 00:00:00:07 27113400931020.8  
97 DW2019 00:00:00:07 3151033400.10951020.6
**
**
98 EW6477 00:00:00:07 6400106000731014.0
**
 
99 EW6138 00:00:00:07 34612286000921018.6  
100 CW8125 00:00:00:07 441417000281012.1
**
 
101 EW7070 00:00:00:07 5601560981013.0
**
 
102 EW5301 00:00:00:07 44619306000581018.9
**
 
103 EW9596 00:00:00:07 3200680.010.040.04951006.0
**
 
104 EW5683 00:00:00:07 5700257000641011.0
**
 
105 EW0275 00:00:00:07 383830900.190.03871008.8
**
 
106 FW0776 00:00:00:07 43043600.010.01791006.6  
107 DW3794 00:00:00:07 2702271000641021.8
**
 
108 EW7398 00:00:00:07 4425154000221011.3
**
 
109 CW8596 00:00:00:07 6100136000871018.5
**
 
110 FW2145 00:00:00:07 3500900.040.090.09981004.5
**
 
111 DW4776 00:00:00:07 347999000831017.3
**
 
112 EW6437 00:00:00:07 5905221000161011.0
**
 
113 FW0597 00:00:00:07 31004300.02052906.6  
114 FW2595 00:00:00:07 4702272000761017.1
**
 
115 DW2923 00:00:00:08 440111700.090931022.0
**
 
116 EW8360 00:00:00:08 56413350000761017.8
**
 
117 EW0367 00:00:00:08 0001058.3
**
 
118 EW1490 00:00:00:08 63611298000891014.6
**
 
119 DW8248 00:00:00:08 6568211000881016.8
**
 
120 DW0582 00:00:00:08 633919000631017.8  
121 DW7003 00:00:00:08 4604104000841005.0
**
 
122 DW2363 00:00:00:08 4457192000671013.6
**
 
123 EW7246 00:00:00:08 2400159000941028.8
**
 
124 FW0145 00:00:00:08 5047207000851014.4
**
 
125 CW5738 00:00:00:08 57712159000171025.0
**
 
126 CW6871 00:00:00:08 40005100951022.4
**
 
127 DW5437 00:00:00:08 3602348000691025.6
**
 
128 DW7812 00:00:00:09 5102830781021.2
**
 
129 EW0373 00:00:00:09 6941033000541028.1
**
 
130 EW8053 00:00:00:09 3621123300.140851011.9
**
 
131 DW7662 00:00:00:09 6900000.020.0279
**
 
132 DW3795 00:00:00:09 6315264000571004.0
**
 
133 CW1837 00:00:00:09 34711351000731008.8
**
 
134 DW5201 00:00:00:09 7031580501029.6
**
 
135 EW6549 00:00:00:09 6641315500.060.06961013.9
**
 
136 EW7935 00:00:00:09 5925360000681005.0
**
 
137 DW5818 00:00:00:09 7181278000631021.6
**
 
138 EW6603 00:00:00:09 472221000901004.6
**
 
139 EW3551 00:00:00:10 420091000521005.3
**
 
140 EW6739 00:00:00:10 5414143000891008.4
**
 
141 CW2659 00:00:00:10 42364600.120951021.9
**
 
142 DW9336 00:00:00:10 510211300741016.5
**
 
143 CW1063 00:00:00:10 430362000931021.5
**
**
144 EW2960 00:00:00:10 332834900.060.03871007.8
**
 
145 EW2348 00:00:00:10 3951117500.280661014.8
**
 
146 EW6335 00:00:00:10 333633100.020831011.9
**
 
147 DW8151 00:00:00:10 4201340881020.2
**
 
148 EW3170 00:00:00:10 54916225000791016.8
**
 
149 EW5647 00:00:00:10 322428800.020.01981006.6
**
 
150 DW3248 00:00:00:10 7639162000431026.3
**
 
151 FW0094 00:00:00:10 670000001001016.2
**
 
152 DW5935 00:00:00:10 3505315000701010.4
**
 
153 CW0697 00:00:00:10 73612143000531026.0  
154 CW1507 00:00:00:10 342525000811026.8
**
 
155 EW7198 00:00:00:10 55163350631013.3
**
 
156 DW9289 00:00:00:10 451118000.01751017.1
**
 
157 EW9048 00:00:00:10 440567000871006.5
**
 
158 EW7417 00:00:00:11 402331000191017.2  
159 EW5566 00:00:00:11 410082000941022.5
**
 
160 EW6742 00:00:00:11 541421000701016.0
**
 
161 EW2692 00:00:00:11 293910800.010961029.0
**
 
162 DW5624 00:00:00:11 69000000481019.7
**
 
163 EW8330 00:00:00:11 302431400.07097995.2
**
 
164 EW7458 00:00:00:11 38006800.360871004.1
**
 
165 DW0048 00:00:00:11 4612343000551008.8
**
 
166 DW4682 00:00:00:11 7123178000741024.0
**
 
167 FW1899 00:00:00:11 692359000501026.4  
168 FW1952 00:00:00:11 670227000061993.2  
169 EW7108 00:00:00:11 5313203000551023.8
**
 
170 EW1962 00:00:00:11 4300270000701006.6  
171 EW2232 00:00:00:11 2511315000701005.4
**
 
172 DW7566 00:00:00:11 2500298000931022.0
**
 
173 FW1989 00:00:00:11 331015340.010.010.01941014.7  
174 CW6876 00:00:00:11 444513000821006.1
**
 
175 EW6276 00:00:00:12 4792032400.19067995.6
**
 
176 CW1484 00:00:00:12 5000360000841013.9
**
**
177 EW6645 00:00:00:12 0001009.8
**
 
178 EW3101 00:00:00:12 378131300771024.8
**
 
179 EW0125 00:00:00:12 4861330800.020951003.7
**
 
180 DW6141 00:00:00:12 2901350000751019.6
**
 
181 EW0482 00:00:00:12 5115281000831004.7
**
 
182 CW6406 00:00:00:12 4400317000921004.6
**
 
183 DW9504 00:00:00:12 5061134500.010631017.5
**
 
184 EW7336 00:00:00:12 3661629200.050791014.6
**
 
185 dw4321 00:00:00:12 38143300.090.07921006.0
**
 
186 DW3839 00:00:00:12 4871371000721003.0
**
 
187 CW5896 00:00:00:12 44450811006.5
**
**
188 FW1600 00:00:00:12 47713356000841004.0  
189 FW0097 00:00:00:12 684105000491029.7
**
 
190 DW7104 00:00:00:12 3700980.070.080.08941007.0
**
 
191 FW2248 00:00:00:12 3901165000901023.0
**
**
192 FW0445 00:00:00:12 6347268000671001.2  
193 DW4549 00:00:00:12 46462000881004.3
**
 
194 EW8349 00:00:00:13 5603227000561007.2
**
 
195 EW4629 00:00:00:13 4800354000861003.5
**
 
196 EW7836 00:00:00:13 2922284000871027.5
**
 
197 CW3627 00:00:00:13 3900248000941015.8
**
**
198 DW3766 00:00:00:13 480056000781022.3
**
 
199 DW4937 00:00:00:13 3515193160.010.040.02751011.0
**
 
200 EW7150 00:00:00:13 326935600.020.01991014.2
**
 
201 EW5923 00:00:00:13 531390000221012.8
**
 
202 EW8654 00:00:00:13 3800270000791016.5
**
 
203 DW9442 00:00:00:13 6715188000501029.2
**
**
204 EW3122 00:00:00:13 292831500.020731020.5
**
 
205 EW9187 00:00:00:13 6403175000841014.8
**
 
206 DW8887 00:00:00:13 4237293000671018.5
**
 
207 EW9998 00:00:00:13 310020500.020941005.3
**
 
208 DW6748 00:00:00:13 320234800.280901005.0
**
 
209 FW0466 00:00:00:13 43314284000581021.2  
210 EW9316 00:00:00:13 6424184000721008.7
**
 
211 FW1515 00:00:00:13 330228800.010911004.5
**
 
212 EW3429 00:00:00:13 7336108000341029.9
**
 
213 DW3721 00:00:00:13 560056000301010.6
**
 
214 CW3171 00:00:00:13 3913600661019.6  
215 FW2249 00:00:00:13 421523000811022.4
**
**
216 FW2519 00:00:00:13 66411203000571006.6  
217 DW9298 00:00:00:13 3301800531040.3
**
**
218 DW7584 00:00:00:14 30563480020990.0
**
 
219 DW4719 00:00:00:14 6551720601021.1
**
 
220 DW8823 00:00:00:14 322528600.010.01921023.6
**
 
221 EW8287 00:00:00:14 330018400074998.1
**
 
222 EW6541 00:00:00:14 3800293000981021.2
**
 
223 CW5581 00:00:00:14 3900000.030.01841022.9
**
 
224 CW7116 00:00:00:14 6500219000701010.7
**
 
225 EW4888 00:00:00:14 3361034400.020961021.2
**
 
226 EW3013 00:00:00:14 453454000821006.2
**
 
227 EW8702 00:00:00:14 360226400.010701012.9
**
 
228 EW3079 00:00:00:14 46341450.020.030.03891003.9
**
 
229 EW5915 00:00:00:14 310033800.020991006.4
**
 
230 EW7853 00:00:00:14 283390000581015.2
**
 
231 EW8087 00:00:00:14 5202151000871015.9
**
 
232 DW4351 00:00:00:14 381015318000701021.7
**
 
233 EW5747 00:00:00:14 42241080.010.120.12991003.8
**
 
234 EW8324 00:00:00:14 661261000481017.6
**
 
235 CW8065 00:00:00:14 28001900251020.4
**
 
236 EW1804 00:00:00:14 37111215000941004.0
**
 
237 EW9540 00:00:00:14 3100192000411026.5
**
 
238 EW9479 00:00:00:14 4641132500.020641020.0
**
 
239 FW0479 00:00:00:14 6526221000671008.0  
240 EW0472 00:00:00:14 242229800.10991026.0
**
 
241 DW0452 00:00:00:14 31281200.790801010.3
**
 
242 FW0636 00:00:00:14 452335800.1074986.1  
243 FW1075 00:00:00:14 42133390.020.10.1881007.1
**
 
244 EW3500 00:00:00:14 3301302000801013.5
**
 
245 CW6104 00:00:00:14 46002700.010.010.01841002.9  
246 CW3141 00:00:00:14 812869000841006.6
**
 
247 FW2022 00:00:00:14 332333200078978.4  
248 EW4825 00:00:00:14 3800000891017.2
**
 
249 EW6994 00:00:00:14 4445225000801015.3
**
 
250 EW2279 00:00:00:14 63513270000431006.8
**
 
251 EW0402 00:00:00:14 6600203000971010.2
**
 
252 EW4089 00:00:00:15 6951418000501019.7
**
 
253 EW6388 00:00:00:15 6438229000621023.5
**
 
254 EW1557 00:00:00:15 6203241000861013.6
**
 
255 DW0156 00:00:00:15 740082000441016.2
**
 
256 CW0395 00:00:00:15 3841728100.210861010.9
**
**
257 EW5837 00:00:00:15 44813132000671019.0
**
 
258 DW6416 00:00:00:15 3371433100.050941011.6
**
 
259 CW9712 00:00:00:15 250036000.010791021.9
**
 
260 EW8712 00:00:00:15 6614229000671023.5
**
 
261 EW8903 00:00:00:15 0001014.9
**
 
262 EW8297 00:00:00:15 4445270000941008.2
**
 
263 EW5871 00:00:00:15 4605294000571011.7
**
 
264 EW1730 00:00:00:15 292545000841041.2
**
 
265 CW2306 00:00:00:15 6236225000861017.3
**
 
266 EW0707 00:00:00:15 41101800.04381005.0
**
 
267 DW0479 00:00:00:15 60125000851018.2
**
 
268 FW1856 00:00:00:15 4113131000831023.4
**
**
269 FW2131 00:00:00:15 4600335000591025.4  
270 DW8984 00:00:00:15 3701245000931020.9
**
 
271 EW5847 00:00:00:16 3800297000781004.3
**
 
272 EW8144 00:00:00:16 700923000471031.3
**
 
273 EW3427 00:00:00:16 281131200.030831021.1
**
 
274 EW6044 00:00:00:16 2623282000331024.9
**
 
275 EW5678 00:00:00:16 4146290.030.120.1287990.0  
276 CW8593 00:00:00:16 6971783000501024.7
**
 
277 DW5868 00:00:00:16 23513207000741011.7
**
**
278 DW1433 00:00:00:16 6901198000651024.3
**
 
279 EW1029 00:00:00:16 61612360000581009.0
**
 
280 DW8851 00:00:00:16 3900340000781006.8
**
 
281 EW9089 00:00:00:16 4715312000251022.1
**
 
282 EW5131 00:00:00:16 4400172000861010.9
**
 
283 DW7479 00:00:00:16 482517000901015.7
**
 
284 EW6160 00:00:00:16 3448317000921021.5
**
 
285 CW2550 00:00:00:16 250129600.040.04691024.1
**
 
286 FW1273 00:00:00:16 343730900.010781013.6  
287 DW3365 00:00:00:16 00006.550996.3
**
 
288 DW6133 00:00:00:16 410082000961022.0
**
 
289 CW9754 00:00:00:16 7626700.010.060.01871017.4
**
 
290 DW9833 00:00:00:16 3300000.050841011.5  
291 FW2104 00:00:00:16 5334135000471026.0
**
 
292 FW0685 00:00:00:16 340010900096972.9  
293 DW6258 00:00:00:16 370027800841012.0
**
 
294 EW5603 00:00:00:17 38123020.110.110.12911006.3
**
 
295 EW7230 00:00:00:17 5614117000631026.8
**
 
296 DW3740 00:00:00:17 622510000751023.1
**
**
297 DW0323 00:00:00:17 66510222000731011.4
**
**
298 DW5516 00:00:00:17 440531300.040.04821005.9
**
 
299 DW6196 00:00:00:17 64001950001001014.8
**
 
300 DW7002 00:00:00:17 6300194000581005.2
**
 
301 EW7580 00:00:00:17 4114214000611006.1
**
 
302 CW7779 00:00:00:17 6129206000811006.8
**
 
303 EW2359 00:00:00:17 37312328000781016.3
**
 
304 EW9049 00:00:00:17 5721075000181016.3
**
 
305 DW4381 00:00:00:17 24021000481022.9
**
**
306 EW9739 00:00:00:17 570070000881017.1
**
 
307 CW9078 00:00:00:17 3649328000721023.7
**
 
308 EW7129 00:00:00:17 382330000036821.0
**
 
309 DW1121 00:00:00:17 6156270000631012.7
**
 
310 FW0860 00:00:00:17 5622112000371010.9
**
 
311 EW3127 00:00:00:17 3400181000951010.2
**
 
312 CW4316 00:00:00:17 652550381026.8
**
 
313 FW1293 00:00:00:17 3031131400.080841007.9  
314 EW7966 00:00:00:17 30610185000501025.2
**
 
315 FW1318 00:00:00:17 375113370701022.3
**
 
316 EW9777 00:00:00:17 5100356000611023.8
**
 
317 CW3379 00:00:00:17 331515330000881019.6
**
 
318 FW0228 00:00:00:17 3900217000901016.2  
319 EW8640 00:00:00:17 7004172000571023.5
**
 
320 EW4525 00:00:00:17 350012600.010821005.2
**
 
321 EW9903 00:00:00:17 4013270000271017.2
**
 
322 EW6414 00:00:00:18 37001400.180951020.4
**
 
323 DW5560 00:00:00:18 7291956000451019.7
**
 
324 EW0098 00:00:00:18 272030001024.2
**
 
325 EW2788 00:00:00:18 4601000721017.4
**
 
326 EW2887 00:00:00:18 461014113000321024.9
**
 
327 DW9712 00:00:00:18 3901520651020.1
**
 
328 DW9819 00:00:00:18 3405500.060941018.0
**
 
329 DW8901 00:00:00:18 56410331000531005.6
**
 
330 EW3244 00:00:00:18 57110295000691029.0
**
 
331 DW5893 00:00:00:18 3281040951018.2
**
 
332 EW4322 00:00:00:18 4515324000891022.9
**
 
333 EW4904 00:00:00:18 2801263000971026.2
**
 
334 EW1575 00:00:00:19 34463590.010.75
**
**
335 DW2409 00:00:00:19 4837256000731016.4
**
 
336 CW9206 00:00:00:19 3900298000821015.1
**
 
337 EW5037 00:00:00:19 65006800781018.9
**
 
338 DW8044 00:00:00:19 393921400.020881003.8
**
 
339 DW4813 00:00:00:19 5400167000791014.6
**
 
340 EW8716 00:00:00:19 67314158000601018.0
**
 
341 CW3224 00:00:00:19 3901229000701005.7
**
**
342 EW9116 00:00:00:19 3047287000581026.5
**
 
343 FW0468 00:00:00:19 6138296000921015.1
**
 
344 EW8936 00:00:00:19 3701000321018.3
**
 
345 EW9921 00:00:00:19 6200000791010.5
**
 
346 DW8253 00:00:00:19 38000000691021.1
**
 
347 FW2670 00:00:00:19 3681929800.010771018.4  
348 EW7897 00:00:00:20 410524300.180.13851006.7
**
 
349 DW6848 00:00:00:20 4504297000561020.6
**
 
350 EW8380 00:00:00:20 410022100.010961024.1
**
 
351 EW0263 00:00:00:20 6700000861013.6
**
 
352 EW7239 00:00:00:20 51030000811015.1
**
 
353 CW0927 00:00:00:20 6100249000831017.9
**
 
354 EW0786 00:00:00:20 4257200000901021.1  
355 DW4700 00:00:00:20 4902359000771003.6
**
 
356 DW5116 00:00:00:20 370510.1901004.0
**
 
357 EW4382 00:00:00:20 5415319000891031.6
**
 
358 EW6654 00:00:00:20 380277000901021.9
**
 
359 DW0019 00:00:00:20 35363490.020.040.03921009.5
**
 
360 EW6013 00:00:00:20 4012187000691002.7
**
 
361 CW4390 00:00:00:20 36612304000801013.2
**
 
362 DW5146 00:00:00:20 33010000961009.2
**
 
363 FW0748 00:00:00:20 5900000901008.5
**
 
364 FW0763 00:00:00:20 5500000471010.5
**
 
365 EW8981 00:00:00:20 4401000301018.4
**
 
366 FW0910 00:00:00:20 5100000651010.3
**
 
367 EW9023 00:00:00:20 5300000561011.3
**
 
368 CW5791 00:00:00:20 240020000731027.1
**
**
369 DW6114 00:00:00:20 3200325000901020.5
**
 
370 EW5575 00:00:00:20 3601000711021.2
**
 
371 DW0491 00:00:00:21 00006.5501024.1
**
 
372 EW7351 00:00:00:21 542360000511022.5
**
 
373 EW7256 00:00:00:21 631218000501026.9
**
 
374 DW6946 00:00:00:21 610090000931008.9
**
 
375 EW7734 00:00:00:21 66610170000281011.9
**
 
376 EW7381 00:00:00:21 405813200033880.1
**
 
377 CW5324 00:00:00:21 4002266000731007.5  
378 DW8991 00:00:00:21 5826300000911020.6
**
**
379 EW5411 00:00:00:21 540427100072999.6
**
 
380 DW1216 00:00:00:21 3758239000861003.5
**
**
381 EW4941 00:00:00:21 3602195000821003.4
**
 
382 FW0995 00:00:00:21 824622000231025.1  
383 FW1107 00:00:00:21 000  
384 FW1085 00:00:00:21 603719000551016.1  
385 EW4150 00:00:00:21 3500293000731025.7
**
 
386 EW5149 00:00:00:21 3102000401007.1
**
**
387 FW2458 00:00:00:21 3802380.130.190.19901007.2
**
 
388 FW2775 00:00:00:21 67211218000591008.7  
389 dw9691 00:00:00:22 7118152000461026.4
**
 
390 DW8400 00:00:00:22 4801300000611022.5
**
 
391 DW9249 00:00:00:22 430134500.060.0690998.3
**
 
392 DW7842 00:00:00:22 0001010.7
**
 
393 DW8751 00:00:00:22 5758350000791022.4
**
**
394 DW7214 00:00:00:22 470600631018.3
**
**
395 DW5905 00:00:00:22 63005601.630911017.7
**
 
396 EW4258 00:00:00:22 6302270000411031.0
**
 
397 DW7643 00:00:00:22 592935127000701016.3
**
 
398 CW8688 00:00:00:22 5227234000871015.9
**
 
399 EW8626 00:00:00:22 3781527300.060751011.0
**
 
400 CW2091 00:00:00:22 7401112000451026.7
**
 
401 EW9487 00:00:00:22 6713221000511002.4
**
 
402 DW8525 00:00:00:22 3202180651027.6
**
 
403 FW0382 00:00:00:22 852422500341029.8  
404 FW1715 00:00:00:22 5128329000821015.8
**
 
405 EW6715 00:00:00:22 492332000741002.4
**
 
406 EW0925 00:00:00:23 442634600.040.04921005.9
**
 
407 CW2750 00:00:00:23 4700335000721015.0
**
 
408 EW0056 00:00:00:23 3703280000351019.7
**
 
409 DW7516 00:00:00:23 7648209000391013.3
**
 
410 EW1786 00:00:00:23 680129300551027.3
**
 
411 EW4809 00:00:00:23 3951328400.030681016.7
**
 
412 EW5933 00:00:00:23 6825360000681026.5
**
 
413 DW5752 00:00:00:23 42372070.030.030.03941008.3  
414 EW3156 00:00:00:23 6400275000721014.6
**
 
415 EW0446 00:00:00:23 3135346000821027.3
**
 
416 EW8300 00:00:00:23 398153300.060671014.1
**
 
417 DW4311 00:00:00:23 550032600891018.9
**
 
418 EW9769 00:00:00:23 42005100.130.13961004.8
**
 
419 FW0634 00:00:00:23 37027500074997.6
**
 
420 FW0780 00:00:00:23 661118284000571025.9  
421 FW0903 00:00:00:23 3251134900.020.01951010.8
**
 
422 EW9416 00:00:00:23 6000206000901019.4
**
 
423 CW1390 00:00:00:23 39223550.110.120.12911007.0
**
 
424 FW2734 00:00:00:23 697131100004625.1  
425 CW5316 00:00:00:24 4001000.030911021.6
**
**
426 EW0859 00:00:00:24 4022310761018.6
**
 
427 EW4349 00:00:00:24 6639200000631006.1
**
 
428 DW3348 00:00:00:24 3400000.010981023.3
**
 
429 EW8346 00:00:00:24 330028800085997.7
**
 
430 DW4121 00:00:00:24 7623150000481022.5
**
 
431 CW6761 00:00:00:24 671900491024.6
**
 
432 EW0390 00:00:00:24 6503269000921016.1
**
 
433 CW4279 00:00:00:24 231230000721026.9
**
 
434 EW0871 00:00:00:24 6662040000521007.7
**
 
435 DW1521 00:00:00:24 6958301000621016.0
**
 
436 EW7034 00:00:00:24 532929600.010931021.2
**
 
437 DW0425 00:00:00:24 719151280006029.4
**
 
438 CW7992 00:00:00:24 72571380006329.5
**
 
439 CW5071 00:00:00:24 3612750651022.7
**
 
440 FW1441 00:00:00:24 4700263000831022.6
**
 
441 EW2149 00:00:00:24 73712135000431027.4
**
 
442 FW1777 00:00:00:24 561890000511021.9  
443 DW6558 00:00:00:24 4900225000311012.2
**
 
444 DW4590 00:00:00:24 00006.5501007.3
**
**
445 FW2760 00:00:00:24 58712345000451023.3  
446 DW8376 00:00:00:25 3510103150.010.250.01
**
 
447 CW9928 00:00:00:25 35171700.020761007.4
**
 
448 DW1227 00:00:00:25 7135341000611024.4
**
 
449 EW5175 00:00:00:25 29000000831023.1
**
 
450 EW3644 00:00:00:25 5100137000241026.4
**
 
451 CW4358 00:00:00:25 6521960611004.2
**
**
452 DW9840 00:00:00:25 4100117000921014.7
**
 
453 DW7371 00:00:00:25 39042660941022.4
**
 
454 CW7762 00:00:00:25 344933700.10.07951018.6
**
**
455 CW4098 00:00:00:25 4703287000241014.2
**
 
456 DW2144 00:00:00:25 3800355000931016.5
**
 
457 EW6231 00:00:00:25 70155000541027.1
**
 
458 DW0281 00:00:00:25 73021120006636.5
**
 
459 DW8502 00:00:00:25 41000000841004.8
**
 
460 EW9927 00:00:00:25 66113337000441018.8
**
 
461 EW7715 00:00:00:25 2702129000771016.9
**
 
462 DW7765 00:00:00:25 32383550931024.7
**
 
463 DW4989 00:00:00:25 250030900.080931029.7
**
 
464 CW5629 00:00:00:25 6814338000581023.2
**
 
465 DW8636 00:00:00:25 3238290000951027.4
**
 
466 FW1832 00:00:00:25 74210149000431024.5  
467 DW3646 00:00:00:25 5800327000601020.0
**
 
468 EW7817 00:00:00:26 673568000601019.3
**
 
469 EW1826 00:00:00:26 330027900.030891006.5
**
 
470 EW4022 00:00:00:26 6802231000851018.8
**
 
471 CW2931 00:00:00:26 362535700.020791013.8
**
 
472 CW9031 00:00:00:26 4212196000881005.9
**
 
473 EW3310 00:00:00:26 6227145000241013.7
**
 
474 EW3196 00:00:00:26 32612318000821022.9
**
 
475 DW9721 00:00:00:26 310021300601023.3
**
 
476 EW7696 00:00:00:26 7303225000431034.8
**
 
477 EW8913 00:00:00:26 4200180000901020.0
**
 
478 DW7601 00:00:00:26 525627000088991.3
**
 
479 DW8427 00:00:00:26 4200116000821016.5
**
 
480 EW4319 00:00:00:26 361221298000661021.3
**
 
481 EW8122 00:00:00:26 680226604.850401028.1
**
 
482 EW3526 00:00:00:26 440245000891022.6
**
 
483 DW9770 00:00:00:26 571029600011015.8
**
 
484 FW0844 00:00:00:26 323673000861010.0  
485 CW8496 00:00:00:26 5426790.010.23851027.9
**
 
486 EW2435 00:00:00:27 610441000851013.4
**
 
487 DW7061 00:00:00:27 350025500801004.4
**
 
488 DW4111 00:00:00:27 541532000461023.8
**
 
489 EW3454 00:00:00:27 5800276000781003.2
**
 
490 EW1701 00:00:00:27 6604216000701022.6
**
 
491 CW6421 00:00:00:27 683978000571032.4
**
 
492 CW2654 00:00:00:27 3767105000961021.0
**
 
493 DW5671 00:00:00:27 619115900621002.3
**
 
494 EW3102 00:00:00:27 630025200.090.01881021.0
**
**
495 DW9186 00:00:00:27 74514133000331026.6
**
 
496 FW0446 00:00:00:27 67243712000411019.6  
497 EW8566 00:00:00:28 54610302000691022.2
**
 
498 DW5076 00:00:00:28 3901181000861022.7
**
 
499 DW7621 00:00:00:28 7539189000411027.2
**
 
500 CW0181 00:00:00:28 55010243000821016.2
**
 
501 DW0231 00:00:00:28 4300132000461012.9
**
 
502 EW5213 00:00:00:28 52920194000881003.6
**
 
503 DW7412 00:00:00:00 490321500861014.5
**
 
504 EW6851 00:00:00:28 661519400.15771023.2
**
 
505 EW3567 00:00:00:28 70101863000421026.5
**
 
506 CW9714 00:00:00:28 4421590.07831006.2
**
 
507 FW1935 00:00:00:28 65597000.010721026.3  
508 DW4387 00:00:00:28 3200000
**
**
509 EW0787 00:00:00:28 4000112000781014.9
**
 
510 DW1865 00:00:00:28 67364500049967.7
**
**
511 FW0971 00:00:00:28 670021800011018.7  
512 DW1490 00:00:00:29 5000337321021.4
**
 
513 CW3766 00:00:00:29 4917333000721003.5
**
 
514 EW2522 00:00:00:29 5519350000561020.3
**
**
515 EW5758 00:00:00:29 6622900611029.0
**
 
516 CW3586 00:00:00:29 3436228000771004.5
**
 
517 DW8791 00:00:00:29 7025214000561022.6
**
 
518 EW8291 00:00:00:29 708153470001001028.0
**
 
519 EW5749 00:00:00:29 6000113000841016.0  
520 Dw8565 00:00:00:29 4751019000881002.7
**
 
521 EW2345 00:00:00:29 670044000631020.8
**
 
522 EW7561 00:00:00:29 63101431900.390.01721020.9
**
 
523 DW2921 00:00:00:29 5500282000241025.1
**
 
524 CW4611 00:00:00:29 3931534000271016.1
**
**
525 DW7485 00:00:00:29 301715000991022.9
**
 
526 DW5457 00:00:00:29 7236245000441036.1
**
**
527 EW0336 00:00:00:29 77660000431025.8
**
 
528 CW7235 00:00:00:29 68210293000641008.5
**
 
529 EW9295 00:00:00:29 550521700091999.9
**
 
530 DW9919 00:00:00:29 68413242000891017.3
**
 
531 CW7278 00:00:00:29 310028400.010921002.4
**
 
532 DW8421 00:00:00:30 6205275000771009.5
**
 
533 DW1086 00:00:00:30 42013700090997.6
**
 
534 EW0496 00:00:00:30 481245000931002.4
**
 
535 CW3340 00:00:00:30 44492100.060.06871006.4
**
**
536 DW4236 00:00:00:30 38003040.050.060.05891007.0
**
 
537 EW8570 00:00:00:30 66715268000661004.7
**
 
538 CW8826 00:00:00:30 496139800211011.7
**
 
539 EW5900 00:00:00:30 5845135000781018.2
**
 
540 DW7935 00:00:00:30 7603155000511022.9
**
 
541 CW2049 00:00:00:30 4658167000621017.6
**
 
542 DW7504 00:00:00:30 390034500.230.22901004.7
**
 
543 DW5481 00:00:00:30 3059340000881027.5
**
 
544 DW6845 00:00:00:30 5002315000731004.9
**
 
545 EW2112 00:00:00:30 65410316000881015.5
**
 
546 DW3986 00:00:00:30 4500350000861004.0
**
 
547 EW4973 00:00:00:30 3369267000931012.4
**
 
548 CW7832 00:00:00:30 3437326841008.5
**
 
549 EW4008 00:00:00:30 580056000471023.3
**
 
550 FW0706 00:00:00:30 7121180000721016.9  
551 EW3774 00:00:00:30 320315700.18091
**
 
552 FW0942 00:00:00:30 5402181000471024.0
**
 
553 FW1530 00:00:00:30 7504165000891015.5  
554 EW4824 00:00:00:30 564641000401022.1
**
 
555 CW5801 00:00:00:30 49812341000761004.5
**
 
556 DW0541 00:00:00:30 6338264000841010.9
**
 
557 FW1061 00:00:00:30 5100000851015.8  
558 EW5050 00:00:00:30 6400000541018.2
**
 
559 DW2316 00:00:00:30 6100257000791013.0  
560 EW8970 00:00:00:30 535105400.020731011.5
**
 
561 CW6425 00:00:00:30 415797000251022.6
**
 
562 DW8690 00:00:00:31 3837357000831010.8
**
 
563 EW1468 00:00:00:31 3914307000671024.9
**
 
564 CW6353 00:00:00:31 6027283000921015.8
**
 
565 DW1466 00:00:00:31 7859110000461024.6
**
 
566 DW5826 00:00:00:31 663630000691014.0
**
 
567 CW4621 00:00:00:31 471325000811004.3
**
 
568 CW9086 00:00:00:31 370035600.040921022.1
**
 
569 CW3806 00:00:00:31 3003110.010.050.05931004.9
**
**
570 DW2066 00:00:00:31 39484500070996.6
**
 
571 DW0756 00:00:00:31 3800100.030.030.03871006.5
**
 
572 DW3656 00:00:00:31 6166175000681034.9
**
 
573 EW1433 00:00:00:31 4423292000771016.6
**
 
574 EW6611 00:00:00:31 7157205000591024.0
**
**
575 EW4498 00:00:00:31 6627281000671031.8
**
 
576 DW9681 00:00:00:31 6100156000941017.8
**
 
577 EW0512 00:00:00:31 2900000701018.2
**
 
578 EW8771 00:00:00:31 682532000431030.5
**
 
579 CW1196 00:00:00:31 6935329000761018.6
**
 
580 CW0655 00:00:00:31 3900231000741006.0
**
 
581 EW9805 00:00:00:31 43812860.020.110.11891003.0
**
 
582 EW9807 00:00:00:31 6126215000851013.2
**
 
583 EW9915 00:00:00:31 501116221000931015.8
**
 
584 EW9986 00:00:00:31 4901282000671023.0
**
 
585 CW0386 00:00:00:31 443571000311024.9
**
**
586 FW0338 00:00:00:31 65410337000621019.1
**
 
587 DW4171 00:00:00:31 6213252000811023.0  
588 EW2438 00:00:00:31 1903500811027.8
**
 
589 EW6821 00:00:00:31 2900155000511018.1
**
 
590 EW5179 00:00:00:31 35312321000831034.8
**
 
591 FW1393 00:00:00:31 7037155000431029.1  
592 EW6006 00:00:00:31 651722000761013.4
**
**
593 FW1912 00:00:00:31 3235325000831030.6  
594 EW1566 00:00:00:31 3179341000921029.3
**
 
595 FW1951 00:00:00:31 330126000095999.4  
596 EW4646 00:00:00:31 4012248000701037.7  
597 DW6643 00:00:00:31 -902321500011023.3
**
 
598 DW3216 00:00:00:31 44122570.010.080.08811006.8
**
 
599 EW8571 00:00:00:31 7337246000631023.5
**
 
600 EW3412 00:00:00:31 5414356000701003.5
**
 
601 EW4060 00:00:00:32 1500345000851026.9
**
 
602 EW2167 00:00:00:32 3841427700.020731013.5
**
 
603 EW2047 00:00:00:32 47040000681014.8
**
 
604 EW7139 00:00:00:32 34810331000951018.3
**
 
605 EW1923 00:00:00:32 3200000.190951006.8
**
 
606 EW6055 00:00:00:32 41000000901020.7
**
 
607 CW1621 00:00:00:32 40006400.010711021.8
**
 
608 CW4086 00:00:00:32 450096000691013.0
**
 
609 EW3446 00:00:00:32 351320800.020941005.3
**
 
610 CW3001 00:00:00:32 7515175000451026.8
**
 
611 CW4731 00:00:00:32 240015600.860971023.2
**
 
612 EW7016 00:00:00:32 4613189000141017.4
**
 
613 EW6587 00:00:00:32 8151327100.010281008.2  
614 DW6861 00:00:00:32 7551392000491026.1
**
**
615 CW5376 00:00:00:32 502526000721004.2
**
 
616 EW8629 00:00:00:32 3802112000821005.0
**
 
617 DW5686 00:00:00:32 66614234000571006.2
**
 
618 CW4032 00:00:00:32 35004500421020.7
**
 
619 EW5053 00:00:00:32 4072128200.10721012.4
**
 
620 CW6531 00:00:00:32 336840000551023.7
**
**
621 DW9422 00:00:00:32 7238159000571023.8
**
 
622 DW9151 00:00:00:32 512869000711030.5
**
 
623 EW5478 00:00:00:32 7300315000871033.9
**
 
624 EW4750 00:00:00:32 3800256000851021.4
**
 
625 EW9051 00:00:00:32 272618000881030.0
**
 
626 EW4118 00:00:00:32 30241200.010891020.7
**
 
627 EW2473 00:00:00:32 39024900.080.08321008.4
**
 
628 CW7171 00:00:00:32 4713296000711025.7
**
**
629 CW6641 00:00:00:32 39614321000641020.0
**
 
630 DW1631 00:00:00:32 4055338000781027.1
**
 
631 EW9606 00:00:00:32 681214285000881015.0
**
 
632 CW2001 00:00:00:32 3247000.070891027.1
**
 
633 FW0571 00:00:00:32 3469135000441026.7  
634 FW0692 00:00:00:32 30000921021.1
**
 
635 CW9666 00:00:00:32 4302620.010.010.01831004.8
**
 
636 CW6697 00:00:00:32 3001480911024.6
**
 
637 FW0821 00:00:00:32 4402347000851023.2
**
 
638 FW0990 00:00:00:32 80683000351020.6  
639 FW1017 00:00:00:32 78471032.0  
640 FW1272 00:00:00:32 64414333000631013.6
**
 
641 EW5957 00:00:00:32 620123000511021.9
**
 
642 FW1171 00:00:00:32 6100281000871018.0  
643 CW3999 00:00:00:32 4300315000831020.3
**
 
644 EW5001 00:00:00:32 4035242000801009.5
**
 
645 DW8618 00:00:00:32 6415190000601021.1
**
 
646 DW2671 00:00:00:32 3800270000911005.7
**
 
647 EW4969 00:00:00:32 5671017000451023.1
**
 
648 FW2101 00:00:00:32 353331900.080951008.0
**
 
649 FW2448 00:00:00:32 7449232000411023.2  
650 CW1231 00:00:00:32 6400175000921016.9
**
**
651 FW2091 00:00:00:32 4933244000791015.0  
652 FW2554 00:00:00:32 3400233000521025.7  
653 EW7526 00:00:00:32 58003800017939.1
**
 
654 FW2641 00:00:00:32 77611148000391026.5  
655 DW1785 00:00:00:33 8021026300451014.0
**
 
656 CW4224 00:00:00:33 560031200.010861018.9
**
 
657 EW6358 00:00:00:33 6014275000921014.8
**
 
658 DW5986 00:00:00:33 6631176000611006.0
**
 
659 DW8388 00:00:00:33 332631200.010.01941013.5
**
 
660 EW6904 00:00:00:33 64000000771008.9
**
 
661 DW6808 00:00:00:33 63000000941014.7
**
 
662 EW3656 00:00:00:33 782549000431021.5
**
 
663 DW9796 00:00:00:33 59000000521021.9
**
 
664 EW0892 00:00:00:33 3414620.030.030.03831005.5
**
 
665 DW3512 00:00:00:33 26131600.520841015.8
**
 
666 EW0245 00:00:00:33 8325107000321022.4
**
 
667 EW4483 00:00:00:33 6459242000851015.4
**
 
668 EW8543 00:00:00:33 76710103000391025.8
**
 
669 DW3101 00:00:00:33 54611262000811015.4
**
 
670 EW5465 00:00:00:33 441133300.050.05841005.2
**
 
671 EW4711 00:00:00:33 343535300.110861008.8
**
**
672 EW7106 00:00:00:33 5739310000651014.6
**
 
673 CW2551 00:00:00:33 370034600.040841019.6
**
 
674 EW7771 00:00:00:33 400021400.010951022.0
**
 
675 DW8022 00:00:00:33 00.010.011018.8
**
 
676 EW6895 00:00:00:33 5741028000491023.6
**
 
677 EW2575 00:00:00:33 6200132000771019.0
**
 
678 DW8578 00:00:00:33 5224347000591023.0
**
 
679 EW5462 00:00:00:33 6000000241011.3
**
 
680 CW1631 00:00:00:33 310024600.020901007.3
**
 
681 EW8993 00:00:00:33 6605334000571021.1
**
 
682 EW6775 00:00:00:33 323832000.160.07941016.1
**
 
683 dw7888 00:00:00:33 480164000901005.4
**
 
684 EW1314 00:00:00:33 74916106000471024.9
**
 
685 EW2470 00:00:00:33 622622600911012.1
**
 
686 DW7426 00:00:00:33 314711500.010741022.9  
687 EW9466 00:00:00:33 6813293000881018.3
**
 
688 FW0119 00:00:00:33 52918263000221012.0
**
 
689 EW3816 00:00:00:33 4200346000731024.1
**
 
690 FW0281 00:00:00:33 3900248000871017.0  
691 FW0644 00:00:00:33 53213176000621001.8
**
 
692 CW5021 00:00:00:33 475813000791006.0
**
 
693 EW9415 00:00:00:33 494114100.090701002.3
**
 
694 FW1256 00:00:00:33 34810290000931020.5
**
 
695 EW9393 00:00:00:33 54052100051
**
 
696 EW6316 00:00:00:33 32691000.12018979.0
**
 
697 EW4447 00:00:00:33 79588408.588.58381015.5
**
 
698 EW3556 00:00:00:33 3526260000771006.6
**
 
699 FW1000 00:00:00:33 500410400068981.6  
700 FW1874 00:00:00:33 310111700.0901001009.0
**
 
701 DW6835 00:00:00:33 440186000871016.1
**
 
702 FW2261 00:00:00:33 333936000087992.8  
703 FW2371 00:00:00:33 753654000501024.6  
704 EW2493 00:00:00:33 2814280000931022.7
**
 
705 FW2681 00:00:00:33 38512342000721023.3
**
 
706 FW0691 00:00:00:33 321210000511010.0  
707 EW2975 00:00:00:34 55000000501022.5
**
 
708 EW0043 00:00:00:34 4603286000631023.9
**
 
709 EW1221 00:00:00:34 64510291000681004.0
**
 
710 EW7384 00:00:00:34 7061326000341021.8
**
 
711 EW5705 00:00:00:34 3991521100.040861001.4
**
 
712 EW1800 00:00:00:34 47000000891003.1
**
 
713 DW4078 00:00:00:34 3241034500.040.01941009.4
**
 
714 DW6879 00:00:00:34 420070000701018.2
**
 
715 DW2436 00:00:00:34 3741430900.070781017.5
**
 
716 EW1972 00:00:00:34 3700161000961023.0
**
 
717 DW4071 00:00:00:34 6878296000991022.3
**
**
718 CW1627 00:00:00:34 550014000521022.5
**
**
719 DW7333 00:00:00:34 592517500.020.02761013.9
**
 
720 EW9715 00:00:00:34 4836243000811016.3
**
 
721 EW7471 00:00:00:34 3402292000551025.3
**
 
722 FW1071 00:00:00:34 410188000941021.4  
723 CW2900 00:00:00:34 501215157000241011.7
**
 
724 EW4492 00:00:00:34 4203260000811018.0
**
 
725 DW9933 00:00:00:34 590071000941020.4
**
 
726 EW4760 00:00:00:35 3126345000881027.3
**
 
727 CW3077 00:00:00:35 5301344000591022.7
**
**
728 DW6062 00:00:00:35 332933700.010.01931010.9
**
 
729 EW7565 00:00:00:35 340323700.04921007.4
**
 
730 CW6726 00:00:00:35 7113188000621022.4
**
**
731 DW5316 00:00:00:35 72112140000421026.7
**
 
732 DW2956 00:00:00:35 366122370001001023.5
**
 
733 CW9196 00:00:00:35 3901323000621019.3
**
 
734 EW2888 00:00:00:35 4912203250.030.030.03831020.5
**
 
735 cw9326 00:00:00:35 37817139000421169.1  
736 DW2048 00:00:00:35 6531600561006.2
**
 
737 EW8711 00:00:00:35 472445000791005.7
**
 
738 EW7638 00:00:00:35 6502120000631005.5
**
 
739 CW0570 00:00:00:35 340031000971021.5
**
 
740 CW0451 00:00:00:35 4001298000821005.7
**
 
741 CW7731 00:00:00:35 1670001027.3
**
 
742 EW3896 00:00:00:35 4300273000851022.7
**
 
743 DW8291 00:00:00:35 3092132500.480731008.9
**
 
744 EW8193 00:00:00:35 261231300.10.01891018.7
**
 
745 FW0562 00:00:00:35 7727161000411025.0
**
 
746 CW7091 00:00:00:35 42126700.080791024.4
**
 
747 FW0717 00:00:00:35 640167000481021.2
**
 
748 EW0161 00:00:00:35 61411237000641008.6
**
 
749 EW7955 00:00:00:35 762547000331027.0
**
 
750 FW1088 00:00:00:35 6847261000691024.9  
751 EW8138 00:00:00:35 337162200.010931011.8
**
 
752 EW4585 00:00:00:35 33710334000911015.9
**
 
753 FW1784 00:00:00:35 340061000921006.6
**
 
754 FW2206 00:00:00:35 50241700054994.7
**
 
755 EW6075 00:00:00:35 321013127000931021.7
**
 
756 EW9883 00:00:00:35 430271000331026.4
**
 
757 EW7361 00:00:00:35 494641000911020.5
**
 
758 CW7287 00:00:00:35 630723000011017.1
**
 
759 EW4550 00:00:00:36 6716308000661032.5
**
 
760 EW6210 00:00:00:36 3681734300.070611005.4
**
 
761 EW5635 00:00:00:36 782213500471025.0
**
 
762 EW4881 00:00:00:36 3913000.140.05891005.2
**
 
763 EW1961 00:00:00:36 320032000.060921023.0
**
**
764 EW5956 00:00:00:36 7625253000271023.6
**
 
765 DW1286 00:00:00:36 7202050441022.4
**
 
766 EW2500 00:00:00:36 3701333000911004.1
**
 
767 DW7184 00:00:00:36 380026100011023.5
**
 
768 DW9780 00:00:00:36 563713200011019.4
**
 
769 EW5410 00:00:00:36 4500284000901015.9
**
 
770 EW5011 00:00:00:36 4058338000591017.9
**
 
771 DW3426 00:00:00:36 5112050721027.3
**
 
772 DW8362 00:00:00:36 490268000791002.4
**
 
773 EW9589 00:00:00:36 411627100.310.28981005.1
**
 
774 CW9931 00:00:00:36 33616324000871016.6
**
 
775 CW8729 00:00:00:36 560022500.10201012.5
**
 
776 DW6557 00:00:00:36 661022211000771008.3
**
 
777 FW1869 00:00:00:36 5914315000771022.4  
778 DW0520 00:00:00:37 474500711003.8
**
 
779 EW3342 00:00:00:37 5701228000281011.5
**
 
780 EW4194 00:00:00:37 6003238000181013.5
**
 
781 DW5251 00:00:00:37 72370000511030.8
**
 
782 EW7512 00:00:00:37 6721972000461023.5
**
 
783 DW1138 00:00:00:37 7001340000671022.8
**
 
784 EW9050 00:00:00:37 280011000.340541011.1
**
 
785 DW0941 00:00:00:37 3800283000821004.6
**
 
786 EW7345 00:00:00:37 65914116000531022.0
**
 
787 EW8929 00:00:00:37 62711109000551027.2
**
 
788 CW0508 00:00:00:37 3800265000781004.7
**
**
789 EW4541 00:00:00:38 75361440.040.040.04561025.9
**
 
790 CW9711 00:00:00:38 674648000151013.8
**
 
791 EW2310 00:00:00:38 751931700501023.3
**
 
792 EW4634 00:00:00:38 3931323100.050731015.7
**
 
793 EW8004 00:00:00:38 50310296000771013.4
**
 
794 EW6420 00:00:00:38 4200308000931021.6
**
 
795 DW4028 00:00:00:38 4000281000751005.8
**
 
796 EW5436 00:00:00:38 01015.7
**
 
797 EW5860 00:00:00:38 43013220.010.010.01911006.7
**
 
798 EW2883 00:00:00:38 58000000451015.8
**
 
799 CW2796 00:00:00:38 6751120161005.8
**
 
800 EW6468 00:00:00:38 6503336000591019.8
**
 
801 EW3222 00:00:00:38 321223600.010571016.3
**
 
802 DW6614 00:00:00:38 6241580221010.7
**
 
803 CW9800 00:00:00:38 4447273000671022.4
**
 
804 DW6961 00:00:00:38 66814149000341026.0
**
 
805 DW9547 00:00:00:38 3200340000951020.5
**
 
806 CW3111 00:00:00:38 3801348000711019.8
**
**
807 CW7975 00:00:00:38 480099000841003.7
**
 
808 FW0270 00:00:00:38 2537311000901025.0
**
 
809 FW0814 00:00:00:38 5651028400.020.02811006.8  
810 FW0761 00:00:00:38 621463000881010.4
**
 
811 CW9461 00:00:00:38 4612135000861016.6
**
 
812 EW5353 00:00:00:39 5700165000251006.7
**
 
813 CW9463 00:00:00:39 320033100.010591019.8
**
 
814 EW4806 00:00:00:39 4012143000781020.9
**
 
815 EW6202 00:00:00:39 730096000881016.3
**
 
816 EW5351 00:00:00:39 4314223000641006.5
**
 
817 EW7709 00:00:00:39 0001019.3
**
 
818 CW4874 00:00:00:39 333629700.030861013.6
**
 
819 EW5016 00:00:00:39 8227225000311026.6
**
 
820 EW2869 00:00:00:39 72000000581005.8
**
 
821 FW2675 00:00:00:39 660123800.010871018.3  
822 DW8004 00:00:00:40 3325246000851004.7
**
 
823 DW4885 00:00:00:40 3900252000791015.2
**
 
824 CW9721 00:00:00:40 64312229000631001.9
**
 
825 CW1735 00:00:00:40 370000.080.140.14921002.5
**
 
826 DW7348 00:00:00:40 6415259000901013.8
**
 
827 EW4925 00:00:00:40 5113223000191009.3
**
 
828 EW7423 00:00:00:40 5400203000961017.4
**
 
829 EW0121 00:00:00:40 6903151000631026.3
**
 
830 EW2927 00:00:00:40 6425197000881015.3
**
 
831 DW9635 00:00:00:40 5704131000561020.8
**
 
832 EW3897 00:00:00:40 5271429300.010.01631013.4
**
 
833 DW1941 00:00:00:40 4702187000831015.3
**
 
834 FW0403 00:00:00:40 698197000301019.9  
835 EW9690 00:00:00:40 34001500991015.8
**
 
836 CW9372 00:00:00:40 310130800.310.02891017.2
**
 
837 CW9971 00:00:00:40 521422301000761010.5
**
 
838 CW8284 00:00:00:41 490122601014.6
**
 
839 CW6012 00:00:00:41 661545000471020.6
**
 
840 EW6368 00:00:00:41 4913250000821014.1
**
 
841 DW2640 00:00:00:41 370051000721027.5
**
 
842 EW5627 00:00:00:41 38001040.010.040.01901006.3
**
 
843 CW0405 00:00:00:41 4102269000681005.0
**
 
844 EW9788 00:00:00:41 59034701001018.3
**
 
845 EW5238 00:00:00:41 6215347000501020.3
**
 
846 FW0051 00:00:00:41 5081393000591032.6  
847 CW7876 00:00:00:41 351219350000791011.4
**
 
848 DW6479 00:00:00:41 730000.010.01711018.8
**
 
849 FW0727 00:00:00:41 95121024.4  
850 FW0777 00:00:00:41 441424100.010841017.7  
851 FW0861 00:00:00:41 74151782000361033.9  
852 FW0958 00:00:00:41 5314241000861015.8
**
 
853 EW7094 00:00:00:41 3000103000531022.0
**
 
854 FW1718 00:00:00:41 680081000861019.1
**
 
855 DW5533 00:00:00:41 340234100.050861000.8
**
 
856 EW6717 00:00:00:41 40012340.050.050.05911005.8
**
 
857 EW6806 00:00:00:42 3600150.07511006.0
**
 
858 EW5349 00:00:00:42 550041000621021.1
**
 
859 CW7529 00:00:00:42 000
**
 
860 CW8841 00:00:00:42 3901159000891023.3
**
 
861 DW0931 00:00:00:42 5800167000171010.8
**
 
862 EW6059 00:00:00:42 7215144000611023.3
**
 
863 DW0668 00:00:00:42 6200141000951018.4
**
 
864 EW9106 00:00:00:42 3323430.010.090.01961009.2
**
 
865 CW4043 00:00:00:42 734812800074
**
**
866 EW6987 00:00:00:42 34393110.010.040.01921012.3
**
 
867 CW1129 00:00:00:42 01004.9
**
 
868 DW8073 00:00:00:42 702590000521026.5  
869 EW2664 00:00:00:42 6400109000971019.3
**
 
870 CW3728 00:00:00:42 540430561018.4
**
 
871 DW1039 00:00:00:42 381123259000761014.0
**
 
872 EW8515 00:00:00:43 513103000201022.6
**
 
873 DW8485 00:00:00:43 6526213000651012.2
**
 
874 EW0433 00:00:00:43 47812294000751016.5
**
 
875 DW3800 00:00:00:43 2800338000611025.1
**
 
876 CW0297 00:00:00:43 4358960.010.020.02891007.4
**
**
877 EW6678 00:00:00:43 351312700.02089992.9
**
 
878 DW9713 00:00:00:43 43210312000591020.2
**
 
879 DW3893 00:00:00:43 73714149000371028.2
**
 
880 CW9821 00:00:00:43 410092000931021.3
**
 
881 EW2082 00:00:00:43 51003270831016.0
**
 
882 EW9581 00:00:00:43 6606200000571004.7
**
 
883 DW4679 00:00:00:43 5100270000831015.6
**
 
884 EW9717 00:00:00:43 390089000341023.0
**
 
885 EW4049 00:00:00:43 2401249000521024.4
**
 
886 EW2896 00:00:00:43 3761331900.390.08911010.0
**
 
887 DW3111 00:00:00:43 6727300000901018.5
**
 
888 EW9659 00:00:00:43 5100128000901016.1
**
 
889 FW2287 00:00:00:43 45000711018.4
**
 
890 DW4355 00:00:00:44 4201100901021.8
**
 
891 CW3819 00:00:00:44 2402260841024.4
**
**
892 DW6018 00:00:00:44 480042000871021.7
**
 
893 DW8873 00:00:00:44 680011000821017.7
**
**
894 EW9599 00:00:00:44 7400000741017.3
**
 
895 CW5776 00:00:00:44 2856307000641027.8
**
 
896 FW1396 00:00:00:44 41410114000511004.6  
897 DW5555 00:00:00:44 291423200.050891006.9
**
 
898 DW4657 00:00:00:44 4002243000691006.9
**
 
899 DW5272 00:00:00:44 252232300.560931019.5
**
 
900 DW6101 00:00:00:44 75513178000461024.8
**
 
901 EW8308 00:00:00:45 3700216000721017.0
**
 
902 DW0504 00:00:00:45 4700303000551017.7
**
 
903 DW6286 00:00:00:45 570010000851019.0
**
 
904 EW8275 00:00:00:45 7547172000531026.1
**
**
905 EW2061 00:00:00:45 482240931019.6
**
 
906 DW0031 00:00:00:45 471680751004.5
**
 
907 EW7845 00:00:00:45 30009600921009.5
**
 
908 CW5377 00:00:00:45 610035100069974.5  
909 DW8249 00:00:00:45 3002324000641030.8
**
 
910 FW0678 00:00:00:45 3961225400.040761012.4
**
 
911 DW6462 00:00:00:45 44613349000591019.3
**
 
912 FW0113 00:00:00:45 63510225000541014.5  
913 FW0198 00:00:00:45 5013296000691005.0
**
 
914 FW0909 00:00:00:45 300025100.03029991.2
**
 
915 DW0550 00:00:00:45 6600281000861017.7
**
 
916 DW9697 00:00:00:45 4800290000231017.3
**
 
917 FW0793 00:00:00:45 2501270000511025.2  
918 DW1426 00:00:00:46 676626500921018.9
**
 
919 EW3539 00:00:00:46 7422270000481025.3  
920 EW4927 00:00:00:46 6359255000771024.0
**
 
921 EW1452 00:00:00:46 5501180000491021.3
**
 
922 EW5092 00:00:00:46 3801351000641024.1
**
 
923 CW5507 00:00:00:46 3800346000841022.2
**
 
924 DW5704 00:00:00:46 340326000.110631003.1
**
 
925 EW1517 00:00:00:46 650080000871015.6
**
 
926 DW0088 00:00:00:46 75814118000411026.1
**
 
927 DW6483 00:00:00:46 4501322000881016.2
**
 
928 CW7923 00:00:00:46 4715311000261018.6
**
 
929 DW8898 00:00:00:46 764963000421027.1
**
**
930 EW1026 00:00:00:46 4202199000531011.6
**
 
931 DW0457 00:00:00:46 40021600.010.010.01901005.6
**
 
932 DW3589 00:00:00:46 7120299400461019.5
**
 
933 EW9167 00:00:00:46 4825338000781006.5
**
 
934 DW2613 00:00:00:46 4729290000901003.8
**
**
935 EW9957 00:00:00:46 5258281000871017.8
**
 
936 DW9278 00:00:00:46 4937269000721014.9
**
 
937 FW0901 00:00:00:46 4238283000791005.7
**
 
938 DW8973 00:00:00:46 470413000831022.4  
939 FW1480 00:00:00:46 3601140.060.080.06881006.9  
940 CW1648 00:00:00:46 451817000781007.0
**
 
941 FW1771 00:00:00:46 4300162000921018.2
**
 
942 EW0423 00:00:00:46 3308210000541026.4
**
 
943 EW6392 00:00:00:46 36101128000211010.3
**
 
944 FW1689 00:00:00:46 5400000971023.6  
945 DW1462 00:00:00:47 7202790521023.1
**
 
946 CW6917 00:00:00:47 3416156000851013.4
**
 
947 DW5690 00:00:00:47 610243000541021.1
**
 
948 DW6860 00:00:00:47 7535172000421027.3
**
 
949 EW2206 00:00:00:47 67414108000501029.0
**
 
950 DW3701 00:00:00:47 3805311000751007.7
**
 
951 EW4238 00:00:00:47 3600000731023.1
**
 
952 EW8549 00:00:00:47 56413280000581016.7
**
 
953 EW6135 00:00:00:47 6409278000771007.5
**
 
954 EW4743 00:00:00:47 6100600221010.7
**
**
955 FW2543 00:00:00:47 4871239000841018.0  
956 DW8300 00:00:00:48 4629550.01871003.9
**
 
957 CW7664 00:00:00:48 5000288000821014.8
**
 
958 EW4663 00:00:00:48 64000000721019.6
**
 
959 EW1669 00:00:00:48 4521095000191025.9
**
 
960 EW2261 00:00:00:48 63001970.010.010.011001016.4
**
 
961 DW7529 00:00:00:48 270023200.080731022.8
**
 
962 DW6215 00:00:00:48 52310323000771013.3
**
 
963 CW4206 00:00:00:48 6614219000511003.1
**
 
964 EW7029 00:00:00:48 4100294000911016.0
**
 
965 FW0985 00:00:00:48 4713270000851014.6
**
 
966 EW1870 00:00:00:48 6235227000391027.7
**
 
967 EW9714 00:00:00:48 39
**
 
968 CW9718 00:00:00:48 0001005.6
**
 
969 CW7069 00:00:00:48 6612950601008.4
**
 
970 DW2052 00:00:00:48 01019.9
**
 
971 EW5292 00:00:00:48 6300000581035.8
**
 
972 EW7717 00:00:00:49 3803175000391026.1
**
 
973 DW8090 00:00:00:49 7703256000371033.8
**
 
974 EW8944 00:00:00:49 4700341000801022.7
**
 
975 CW9546 00:00:00:49 4001080951022.8
**
 
976 DW4353 00:00:00:49 5191693000201014.6
**
 
977 FW1018 00:00:00:49 323733300.080691017.3  
978 CW0216 00:00:00:49 332536000.070961021.3
**
 
979 CW1718 00:00:00:49 6429238000591003.2  
980 DW3403 00:00:00:49 3712311000531005.6
**
 
981 EW6396 00:00:00:50 703969000471020.9
**
 
982 EW5710 00:00:00:50 530015200.010631029.2
**
 
983 EW3082 00:00:00:50 3826317000741025.3
**
 
984 EW6182 00:00:00:50 5421017000681015.2
**
 
985 CW3916 00:00:00:50 6400165000961015.1
**
 
986 DW9375 00:00:00:50 7490670581027.9
**
 
987 DW1546 00:00:00:50 4914347000711006.5
**
 
988 DW5160 00:00:00:50 360032300.140.07911007.6
**
 
989 CW3106 00:00:00:50 6811820581025.1
**
 
990 DW2753 00:00:00:50 3601280000931021.9
**
 
991 EW2806 00:00:00:50 3891629600.40.01911009.2
**
 
992 CW5086 00:00:00:50 3900450.050.120.121005.7
**
 
993 FW0690 00:00:00:50 71591021.7  
994 EW5320 00:00:00:50 310030000.42086
**
 
995 FW1106 00:00:00:50 73710338000531020.4  
996 CW6705 00:00:00:50 30412348000871028.8
**
 
997 CW9696 00:00:00:50 3303420861020.1
**
**
998 DW4784 00:00:00:51 3733242000941024.6
**
 
999 EW3845 00:00:00:51 74410277000471027.2
**
 
1000 EW7953 00:00:00:51 76410135000341027.4
**
 
1001 DW4230 00:00:00:51 4204200000891005.8
**
 
1002 EW0622 00:00:00:51 612837000641010.8
**
 
1003 DW7959 00:00:00:51 6023217000771016.0
**
 
1004 FW1436 00:00:00:51 6547307000471021.7
**
 
1005 FW2028 00:00:00:51 7500000461024.7  
1006 DW0212 00:00:00:51 6937221000501026.1  
1007 CW4534 00:00:00:52 4603500161007.3
**
 
1008 EW0383 00:00:00:52 59000000161007.5
**
 
1009 EW2253 00:00:00:52 33075600.010961019.9
**
 
1010 EW3727 00:00:00:52 6800000.010661022.9
**
 
1011 DW7251 00:00:00:52 6203100000791019.0
**
 
1012 EW7505 00:00:00:52 520055000561023.0
**
 
1013 EW2056 00:00:00:52 52110246000821016.2
**
 
1014 EW0419 00:00:00:52 3601330000891004.4
**
 
1015 DW0553 00:00:00:52 5404226000781016.3
**
 
1016 DW6554 00:00:00:52 350000.010841008.1
**
 
1017 EW9081 00:00:00:52 3800191000941020.0
**
 
1018 FW0260 00:00:00:52 72121790000471028.5  
1019 CW4299 00:00:00:52 0001019.0
**
 
1020 DW1328 00:00:00:53 3653360791025.6
**
 
1021 DW5406 00:00:00:53 76137800.040411028.4
**
 
1022 EW6996 00:00:00:53 34310136000401034.2
**
 
1023 EW4415 00:00:00:53 554103600.030.01611020.9
**
 
1024 DW6214 00:00:00:53 663815400.120441023.5
**
 
1025 EW4199 00:00:00:53 332717000941019.3
**
 
1026 EW0595 00:00:00:53 3200205000461017.5
**
 
1027 CW6132 00:00:00:53 6941623000441021.3
**
 
1028 CW4480 00:00:00:53 35914337000681021.0
**
 
1029 EW5173 00:00:00:53 3941628000.230901010.2
**
**
1030 EW1798 00:00:00:53 52000000931019.5
**
 
1031 FW0704 00:00:00:53 730116000.080.06771019.6  
1032 CW6155 00:00:00:53 6071068000471022.5
**
 
1033 CW3353 00:00:00:53 3013319000621026.8
**
 
1034 DW4821 00:00:00:54 336928000841023.9
**
 
1035 EW6320 00:00:00:54 361228307000371020.7
**
 
1036 DW7580 00:00:00:54 34812322000761022.9
**
 
1037 CW7400 00:00:00:54 6861283000541006.9
**
 
1038 CW7783 00:00:00:54 71512160000511029.2
**
 
1039 EW8578 00:00:00:54 50035000891025.7
**
 
1040 EW2817 00:00:00:54 65017400.050591005.4
**
 
1041 DW7301 00:00:00:54 2925255000751019.1
**
 
1042 DW6344 00:00:00:54 34152200.050941010.5
**
 
1043 CW6316 00:00:00:54 301510641017.4
**
 
1044 CW8553 00:00:00:54 4403240881021.8
**
 
1045 CW4635 00:00:00:54 4125231000811021.9
**
 
1046 EW5295 00:00:00:54 4200127000841021.0
**
 
1047 DW8286 00:00:00:54 39333140781000.9
**
 
1048 FW0835 00:00:00:54 7014227000601024.7  
1049 DW9231 00:00:00:54 5351222800020814.0
**
 
1050 FW1035 00:00:00:54 460133700089972.8  
1051 FW1119 00:00:00:54 72101837000441025.9
**
**
1052 CW4445 00:00:00:54 2703130901016.4
**
 
1053 DW7126 00:00:00:54 663734000741018.8
**
 
1054 CW4654 00:00:00:54 7031770571021.5
**
**
1055 FW2301 00:00:00:54 6469203000561005.2  
1056 EW7104 00:00:00:54 35410317000731022.8
**
 
1057 CW4253 00:00:00:54 24001740721007.0
**
 
1058 EW2422 00:00:00:55 450229000711012.7  
1059 EW6457 00:00:00:55 341433000.030871008.8
**
 
1060 EW0586 00:00:00:55 400025400035965.7
**
 
1061 EW5726 00:00:00:55 4191645000281023.5
**
 
1062 CW1720 00:00:00:55 34135400491020.0
**
 
1063 CW5560 00:00:00:55 3101305000621026.6
**
 
1064 CW6906 00:00:00:55 3745337000671013.2
**
 
1065 DW9080 00:00:00:55 590068000801024.7
**
 
1066 EW3060 00:00:00:55 44817202000691013.9
**
 
1067 FW0039 00:00:00:55 62611285000911016.1
**
 
1068 FW0855 00:00:00:55 320017500.16090979.6
**
 
1069 DW7106 00:00:00:55 54000000281011.4
**
 
1070 FW0018 00:00:00:55 281317297000621003.0  
1071 DW8871 00:00:00:55 3971322000751024.8
**
 
1072 CW1323 00:00:00:56 454725400.040.04911003.7
**
**
1073 DW7161 00:00:00:56 6512690901018.0  
1074 DW6064 00:00:00:56 443832800.10.1871003.8
**
**
1075 CW2071 00:00:00:56 3214400.110881026.9
**
 
1076 CW7395 00:00:00:56 410046000891016.9
**
 
1077 EW0127 00:00:00:56 310034500.010941028.9
**
 
1078 EW4336 00:00:00:56 400034600.180.15941005.1
**
 
1079 DW7764 00:00:00:56 7006252000511030.5
**
 
1080 EW9938 00:00:00:56 4713331000691005.1
**
 
1081 FW0321 00:00:00:56 324490000.5811020.7  
1082 DW5277 00:00:00:56 6403253000971018.3
**
 
1083 CW2988 00:00:00:56 301532500.030941023.5
**
 
1084 DW2408 00:00:00:56 410019900931017.1
**
 
1085 FW2071 00:00:00:56 4915348000861008.8  
1086 FW2084 00:00:00:56 441333000551026.7
**
 
1087 DW0354 00:00:00:56 002960001019.9  
1088 EW8095 00:00:00:57 491421000881004.8
**
 
1089 EW3683 00:00:00:57 380025000.010941022.8
**
 
1090 CW3776 00:00:00:57 673657000641009.0
**
**
1091 CW5670 00:00:00:57 4603284000891023.0
**
 
1092 DW5123 00:00:00:57 3514322000711022.9
**
 
1093 EW7209 00:00:00:57 3512293000861033.6
**
 
1094 DW0664 00:00:00:57 5603430551021.3
**
 
1095 DW5621 00:00:00:57 7213114000511022.6
**
 
1096 CW7872 00:00:00:57 67122019800051
**
 
1097 CW4844 00:00:00:57 5216317000701012.7  
1098 EW3090 00:00:00:57 33001230.010.010.01941014.7
**
 
1099 FW0155 00:00:00:57 730190000731015.7
**
 
1100 FW0344 00:00:00:57 673470000661023.1  
1101 EW7802 00:00:00:57 5901255000451032.5
**
 
1102 EW3970 00:00:00:58 5302206000781016.2
**
 
1103 EW2561 00:00:00:58 77124300.940.14511025.6
**
 
1104 EW7067 00:00:00:58 5612258000771003.8
**
 
1105 CW1353 00:00:00:58 6402510961017.3
**
 
1106 EW3206 00:00:00:58 758121190004726.3
**
 
1107 DW7094 00:00:00:58 410062000921015.7
**
 
1108 CW9690 00:00:00:58 3702224000831002.5
**
 
1109 FW0447 00:00:00:58 4624204000851013.9  
1110 CW9710 00:00:00:58 000001017.1
**
 
1111 EW7485 00:00:00:58 79028200.3951018.0  
1112 EW4951 00:00:00:58 3721313900.040761014.6
**
 
1113 EW9771 00:00:00:58 0001011.9
**
 
1114 EW4259 00:00:00:58 360026900.020881007.1
**
 
1115 DW8874 00:00:00:59 3500292000761014.2
**
 
1116 CW1546 00:00:00:59 550344000161014.3
**
 
1117 DW6667 00:00:00:59 260000072
**
 
1118 EW1728 00:00:00:59 630158000741005.0
**
 
1119 EW1412 00:00:00:59 33383210.010.10.0793994.2
**
 
1120 CW6440 00:00:00:59 39002370.110.130.13941006.0
**
**
1121 EW6180 00:00:00:59 560095000951022.8
**
 
1122 EW5352 00:00:00:59 391638000751026.7
**
 
1123 CW2615 00:00:00:59 311835000.440781017.6
**
 
1124 EW8605 00:00:00:59 684765000381023.5
**
 
1125 EW4393 00:00:00:59 3737115000841016.8
**
 
1126 FW0133 00:00:00:59 3600153000381023.4
**
 
1127 EW2077 00:00:00:59 2300259000561049.8
**
 
1128 FW0515 00:00:00:59 4614106000691005.5  
1129 EW9174 00:00:00:59 390267000371022.3
**
 
1130 fw1197 00:00:00:59 69253260001025.5
**
 
1131 EW4778 00:00:00:59 823776000851009.1
**
 
1132 DW5721 00:00:00:59 6504238000361027.6
**
 
1133 EW7630 00:00:00:59 3658304000731020.2
**
 
1134 FW1825 00:00:00:59 303429200.030901005.0
**
 
1135 DW7729 00:00:00:59 332732200.03921013.5
**
 
1136 DW8913 00:00:00:59 4871229000891002.8
**
 
1137 EW7858 00:00:00:59 320064000521023.8
**
 
1138 EW8244 00:00:00:59 2915316000461021.8
**
 
1139 EW0888 00:00:00:59 7204163000751013.5
**
 
1140 EW1373 00:00:00:59 320300.170.17381016.0
**
 
1141 ew4347 00:00:00:60 394922200.020731003.0
**
 
1142 DW4722 00:00:00:60 3741730831005.5
**
 
1143 EW8387 00:00:00:60 3507315000801017.0
**
 
1144 EW4025 00:00:00:60 7634122000471026.3
**
**
1145 DW4148 00:00:00:60 3600000.040891012.7
**
 
1146 DW5166 00:00:00:60 6013225000941017.3
**
 
1147 DW4138 00:00:00:60 6106316000651082.3  
1148 EW2834 00:00:00:60 380019000961022.5
**
 
1149 DW8909 00:00:00:60 7149115000481024.7
**
 
1150 EW8945 00:00:00:60 4513242000771016.6
**
 
1151 EW1712 00:00:00:60 39162426400.220861010.4
**
 
1152 DW9499 00:00:00:60 2402246000821027.6
**
 
1153 FW0197 00:00:00:60 6102590921014.4
**
 
1154 FW0267 00:00:00:60 4928325000901005.0
**
 
1155 EW9817 00:00:00:60 6104180000791020.3
**
 
1156 FW0924 00:00:00:60 650278000931018.8
**
 
1157 EW9277 00:00:00:60 500248000761011.2  
1158 EW7495 00:00:00:60 7813180000361029.8
**
 
1159 EW8430 00:00:01:01 4101129000901016.6
**
 
1160 CW0009 00:00:01:01 7436140000671025.0
**
 
1161 CW0134 00:00:01:01 370221100073  
1162 EW1083 00:00:01:01 325831800.150.01961016.2
**
 
1163 DW7484 00:00:01:01 5781432000391024.6
**
 
1164 CW5482 00:00:01:01 2902286000311022.6
**
 
1165 EW2607 00:00:01:01 4606247000811014.8
**
 
1166 EW5916 00:00:01:01 3851026000.040691017.3
**
 
1167 EW2128 00:00:01:01 4925316000501006.2
**
 
1168 EW6442 00:00:01:01 614914000881007.7
**
 
1169 DW2258 00:00:01:01 42812231000891002.8
**
 
1170 CW2618 00:00:01:01 22038700053999.8  
1171 EW9922 00:00:01:01 6000000921003.5
**
 
1172 DW7733 00:00:01:01 341215340000881011.7
**
 
1173 EW2020 00:00:01:01 4941134200.010771005.3
**
 
1174 DW1159 00:00:01:01 26143900.010661022.1
**
 
1175 CW1840 00:00:01:01 560019400311012.6
**
 
1176 EW0867 00:00:01:01 7114187000521029.2
**
 
1177 FW1647 00:00:01:01 2827254000751018.9
**
 
1178 DW0125 00:00:01:01 7713115000401023.4
**
**
1179 FW2068 00:00:01:01 222700001023.1
**
 
1180 DW5459 00:00:01:02 300028100082  
1181 EW4633 00:00:01:02 37622231000741014.1
**
 
1182 DW0495 00:00:01:02 382446000561014.8
**
 
1183 dw8490 00:00:01:02 35130000671021.2
**
 
1184 DW8425 00:00:01:02 270082000761019.5
**
 
1185 DW0630 00:00:01:02 6636146000731022.8
**
**
1186 EW1169 00:00:01:02 380085000761020.9
**
 
1187 CW8027 00:00:01:02 334826500.040821005.0
**
**
1188 EW7060 00:00:01:02 313944000471005.5
**
 
1189 DW2056 00:00:01:02 341227300.020831009.1
**
 
1190 EW8998 00:00:01:02 67005000681019.6
**
 
1191 EW0810 00:00:01:02 661663000701030.9
**
 
1192 FW0069 00:00:01:02 6113217000221009.8
**
 
1193 DW2907 00:00:01:02 690046000811018.9
**
 
1194 DW2584 00:00:01:02 46921119000241022.3
**
 
1195 EW6149 00:00:01:02 340980891025.2
**
 
1196 EW4243 00:00:01:02 390125000.240941006.1
**
 
1197 FW2126 00:00:01:02 381651000341026.2  
1198 CW2539 00:00:01:02 350073000711012.6
**
 
1199 EW3940 00:00:01:03 35003700.050921020.7
**
 
1200 EW1232 00:00:01:03 3641625300.060781012.8
**
 
1201 EW4989 00:00:01:03 503936000471025.2
**
 
1202 DW1084 00:00:01:03 47914347000701005.2
**
**
1203 CW4320 00:00:01:03 67232280681021.4
**
**
1204 EW4055 00:00:01:03 672333800581018.9
**
 
1205 DW1085 00:00:01:03 3500170000311021.7
**
 
1206 EW4564 00:00:01:03 711015195000551030.0
**
 
1207 CW1120 00:00:01:03 5035258000981031.2
**
 
1208 DW0975 00:00:01:03 320327000561023.0
**
 
1209 DW0339 00:00:01:03 7303600481027.3  
1210 EW2811 00:00:01:03 240035500.190761027.1
**
 
1211 EW1043 00:00:01:03 6401240000981018.3
**
 
1212 CW0937 00:00:01:03 731890631026.8  
1213 EW6174 00:00:01:03 732636000361026.1
**
 
1214 EW3511 00:00:01:03 6736121000481030.0
**
 
1215 CW9838 00:00:01:03 8015318000261026.4  
1216 FW0405 00:00:01:03 4100205000981023.0
**
 
1217 CW2343 00:00:01:03 5401355000521025.4  
1218 DW1898 00:00:01:03 540146000481024.2
**
 
1219 CW7857 00:00:01:03 5302312000831015.1
**
 
1220 DW4712 00:00:01:03 6105254000621005.8
**
 
1221 FW1762 00:00:01:03 73002020571023.7  
1222 FW2272 00:00:01:03 502135059983.1
**
 
1223 CW7615 00:00:01:03 6526151000481018.7
**
 
1224 FW2603 00:00:01:03 48515250000931016.1
**
 
1225 FW2736 00:00:01:03 4981580831015.6
**
 
1226 DW7129 00:00:01:04 6113212000891016.8
**
 
1227 EW2690 00:00:01:04 33383000.10.01931008.5
**
 
1228 CW8386 00:00:01:04 3523360000651020.6
**
 
1229 DW5242 00:00:01:04 644550141013.4
**
 
1230 DW0331 00:00:01:04 320115700.280781007.9
**
 
1231 EW8803 00:00:01:04 624949000591021.6
**
 
1232 EW8842 00:00:01:04 651518900.070.01641005.8
**
 
1233 EW7705 00:00:01:04 67513255000501015.2
**
**
1234 EW0868 00:00:01:04 390022000941022.6
**
 
1235 EW8032 00:00:01:04 734790000491026.8
**
 
1236 EW7725 00:00:01:04 576163230.010.060.05641013.9
**
 
1237 DW0010 00:00:01:04 53713338000721017.5
**
 
1238 CW5634 00:00:01:04 6724153000171007.9
**
**
1239 CW0352 00:00:01:04 2714169000761024.9
**
 
1240 EW2266 00:00:01:04 3800233000931016.7
**
 
1241 CW3827 00:00:01:04 47243451000231022.9
**
 
1242 DW5321 00:00:01:04 80101510300.010891013.1
**
 
1243 FW2253 00:00:01:04 5346245000761006.6  
1244 FW2412 00:00:01:04 7113329000421025.3  
1245 DW7981 00:00:01:05 4905259000831007.0
**
 
1246 EW5498 00:00:01:05 7041024000481027.2
**
 
1247 DW6150 00:00:01:05 32132200.010891005.3
**
 
1248 CW5020 00:00:01:05 33023400.010931018.5
**
 
1249 EW6098 00:00:01:05 6915270000341016.3
**
 
1250 CW5988 00:00:01:05 4939316000831016.6
**
 
1251 EW4219 00:00:01:05 3671116000751023.1
**
 
1252 EW3247 00:00:01:05 4824337000641009.8
**
 
1253 EW7554 00:00:01:05 3038313000591029.2
**
 
1254 DW8199 00:00:01:05 371426100.170.02891009.0
**
 
1255 EW4189 00:00:01:05 4251024000701015.3
**
 
1256 CW2522 00:00:01:05 350031700.030641006.5
**
**
1257 DW3169 00:00:01:05 460011000871016.5
**
 
1258 EW0036 00:00:01:05 61512271000551012.5
**
 
1259 EW8563 00:00:01:05 4749341000791017.8
**
 
1260 DW3299 00:00:01:05 560300631021.1
**
 
1261 DW7732 00:00:01:05 412365000621027.2
**
 
1262 DW3753 00:00:01:05 523922000551023.2
**
 
1263 EW0510 00:00:01:05 39002980.040.080.08413356.1
**
 
1264 EW6155 00:00:01:05 2602302000451023.1
**
 
1265 EW3370 00:00:01:05 5669207000841013.3
**
 
1266 FW0790 00:00:01:05 74511145000431027.9  
1267 FW0856 00:00:01:05 6212157000991015.0
**
 
1268 FW1210 00:00:01:05 283334100.060841019.5
**
 
1269 FW1328 00:00:01:05 35714311000671020.9
**
 
1270 EW6504 00:00:01:05 3159320000901027.1
**
 
1271 FW1999 00:00:01:05 43242900.010.01811006.8
**
 
1272 EW6576 00:00:01:05 530065000761014.9
**
 
1273 FW2530 00:00:01:05 320826000861010.8
**
 
1274 EW0603 00:00:01:06 332532000.030881013.4
**
 
1275 DW6707 00:00:01:06 430210000821014.9
**
 
1276 EW4463 00:00:01:06 2400000941021.9
**
 
1277 CW8271 00:00:01:06 4713220801005.5
**
 
1278 CW9785 00:00:01:06 3522219000711026.6
**
 
1279 DW7092 00:00:01:06 270178000681024.7
**
 
1280 DW6160 00:00:01:06 3100296000821027.2
**
 
1281 EW1806 00:00:01:06 7316177000571019.1
**
**
1282 EW3759 00:00:01:06 5003286000891015.6
**
 
1283 EW1941 00:00:01:06 3402270000861004.8
**
 
1284 DW4870 00:00:01:06 7113358000461026.6
**
 
1285 EW1247 00:00:01:06 388147300.010881024.3
**
**
1286 CW4482 00:00:01:06 6631021000501020.4
**
 
1287 EW3297 00:00:01:06 7137149000541024.4
**
 
1288 DW6241 00:00:01:06 37006000981023.3
**
 
1289 FW0168 00:00:01:06 360027100071911.2
**
 
1290 CW8998 00:00:01:06 3401324000511028.7
**
 
1291 EW5922 00:00:01:06 441630700.040.04801006.0
**
 
1292 Dw7854 00:00:01:06 4701321000701022.2
**
 
1293 EW7756 00:00:01:06 4712230771005.6
**
 
1294 EW4341 00:00:01:06 482230711017.4
**
 
1295 FW2611 00:00:01:06 4791544000861002.4  
1296 DW5033 00:00:01:07 6100338000801016.7
**
 
1297 CW3454 00:00:01:07 6306254000821010.4
**
 
1298 EW8414 00:00:01:07 5049331000561020.5
**
 
1299 EW5506 00:00:01:07 6946179000461027.9
**
 
1300 EW5813 00:00:01:07 303428900801015.4
**
 
1301 EW0059 00:00:01:07 4000289000961020.6
**
 
1302 CW0169 00:00:01:07 4001246000721003.4
**
**
1303 DW9161 00:00:01:07 3100359000881027.8
**
**
1304 DW8294 00:00:01:07 5227101000591029.3
**
 
1305 EW6322 00:00:01:07 421242000641022.0
**
 
1306 DW6746 00:00:01:07 69610139000491027.1
**
 
1307 DW6725 00:00:01:07 334923500.060911006.4
**
 
1308 CW1800 00:00:01:07 3300158000751017.5
**
**
1309 DW6970 00:00:01:07 3100255000291212.9
**
 
1310 EW6785 00:00:01:07 39102327500.270891012.1
**
 
1311 CW9676 00:00:01:07 5081288000241014.9
**
 
1312 EW7425 00:00:01:07 4117248000671001.4  
1313 EW2055 00:00:01:07 3800000991022.2
**
 
1314 EW9790 00:00:01:07 4428274000591019.0
**
 
1315 EW9819 00:00:01:07 4102790.030.050.04931004.2
**
 
1316 EW9826 00:00:01:07 71712129000561026.3
**
 
1317 CW9529 00:00:01:07 450097000751015.9
**
 
1318 EW2781 00:00:01:07 671479000621010.5
**
 
1319 FW2061 00:00:01:07 4312240000901023.4
**
 
1320 FW1888 00:00:01:07 7602110000401022.8  
1321 FW1846 00:00:01:07 4921988.0  
1322 FW2483 00:00:01:07 420230400.030.03881007.5
**
 
1323 CW3644 00:00:01:08 69491090.150.350.351001072.9
**
 
1324 EW4818 00:00:01:08 4102000671006.4
**
 
1325 DW3862 00:00:01:08 450114100.060.06851004.0
**
 
1326 EW8077 00:00:01:08 320000.010.01911012.2
**
 
1327 CW7015 00:00:01:08 42818120000271020.4
**
 
1328 DW4033 00:00:01:08 71311326000621028.1
**
 
1329 DW2770 00:00:01:08 62354500.160831020.3
**
**
1330 DW5789 00:00:01:08 410013000791018.7
**
 
1331 CW3702 00:00:01:08 2616153000511024.3
**
 
1332 CW8810 00:00:01:08 37911130000521025.3
**
 
1333 EW2145 00:00:01:08 3236277000841006.3
**
 
1334 EW8835 00:00:01:08 341224600.040911001.5
**
 
1335 FW1433 00:00:01:08 344814000.010751024.5
**
 
1336 EW8063 00:00:01:08 -147121120001019.2
**
 
1337 CW5780 00:00:01:08 36011222000401028.5
**
 
1338 DW8961 00:00:01:08 431340931022.2
**
 
1339 FW0760 00:00:01:08 45002570991023.6
**
 
1340 EW0430 00:00:01:09 4501277000881016.2
**
 
1341 CW3508 00:00:01:09 620114500.010911012.3  
1342 CW7324 00:00:01:09 350119300.110781004.8
**
 
1343 EW3693 00:00:01:09 7038123000601029.8
**
 
1344 EW4610 00:00:01:09 80127300411023.6
**
 
1345 DW7229 00:00:01:09 3700000751004.8
**
 
1346 FW0892 00:00:01:09 6107214000991014.5  
1347 EW7298 00:00:01:09 3506311000741025.9
**
 
1348 CW6688 00:00:01:09 41007500.030931023.3
**
 
1349 EW6071 00:00:01:09 4724360000361013.0
**
 
1350 FW1895 00:00:01:09 461222321000631013.8  
1351 FW2020 00:00:01:09 000
**
 
1352 FW2589 00:00:01:09 67449000611019.0  
1353 EW0812 00:00:01:10 3036202000581024.2
**
 
1354 EW6514 00:00:01:10 3901215000831005.8
**
 
1355 DW6619 00:00:01:10 490393000741003.4
**
 
1356 dw2000 00:00:01:10 2700250000821014.7
**
 
1357 CW5917 00:00:01:10 282532200.380851021.4
**
**
1358 DW2058 00:00:01:10 3900220000891021.4
**
 
1359 DW6494 00:00:01:10 4302248000371013.9
**
 
1360 EW0461 00:00:01:10 392434900.060751013.5
**
 
1361 CW0814 00:00:01:10 5572580871010.4
**
 
1362 CW4150 00:00:01:10 72316112000371026.7
**
**
1363 EW8220 00:00:01:10 41003600.390961024.3
**
 
1364 CW9181 00:00:01:10 4200279000891016.0
**
 
1365 EW9605 00:00:01:10 7400000961018.4
**
 
1366 FW0666 00:00:01:10 4523360000791021.5
**
 
1367 EW8966 00:00:01:10 3346351000991016.4
**
 
1368 EW4469 00:00:01:10 33891010.7
**
 
1369 EW8748 00:00:01:10 615127700.020811022.9
**
 
1370 EW8829 00:00:01:10 3000000971003.0
**
 
1371 DW1736 00:00:01:11 47014298000971002.8
**
 
1372 CW0453 00:00:01:11 2945304000901026.7
**
**
1373 DW4421 00:00:01:11 60000000981012.6
**
 
1374 EW5930 00:00:01:11 35029200701004.2
**
 
1375 DW7889 00:00:01:11 59710360000751021.6
**
 
1376 DW2913 00:00:01:11 6841185000481027.2
**
 
1377 CW3643 00:00:01:11 633782000721021.5
**
**
1378 EW5937 00:00:01:11 3000990581024.5
**
 
1379 DW9246 00:00:01:11 6726109000551025.9
**
**
1380 EW7290 00:00:01:11 295828700.150891029.9
**
 
1381 EW7350 00:00:01:11 33492800.090.03941016.1
**
 
1382 DW0226 00:00:01:11 48411337000891003.2
**
 
1383 EW9039 00:00:01:11 4214342000861015.0
**
 
1384 EW1423 00:00:01:11 73916100000351027.9
**
 
1385 DW3025 00:00:01:11 52510129000181012.5
**
 
1386 FW0364 00:00:01:11 392549000581002.7
**
 
1387 CW0561 00:00:01:11 270042000681029.0
**
 
1388 FW0254 00:00:01:11 462412600.030.03941000.6  
1389 CW4870 00:00:01:11 0001013.5
**
 
1390 FW1712 00:00:01:11 5034245000271020.0  
1391 FW1719 00:00:01:11 68019000531026.3  
1392 DW6908 00:00:01:11 3991528300.050701013.2
**
 
1393 EW9270 00:00:01:11 230000.010871022.6
**
 
1394 EW5377 00:00:01:11 39009002.190721011.6
**
 
1395 EW1554 00:00:01:12 5101333000791017.4
**
 
1396 EW5811 00:00:01:12 44513315000631019.4
**
 
1397 EW7347 00:00:01:12 7103281000581022.7
**
 
1398 DW1995 00:00:01:12 70712248000441025.0
**
 
1399 EW3791 00:00:01:12 6861943000431020.1
**
 
1400 DW7524 00:00:01:12 -601006.9
**
 
1401 EW9888 00:00:01:12 56612294000801013.8  
1402 EW9511 00:00:01:12 280000691029.6
**
 
1403 FW1193 00:00:01:12 6400294000981017.2
**
 
1404 DW4725 00:00:01:12 632422000561028.6
**
 
1405 CW8425 00:00:01:12 784870000431022.1
**
 
1406 CW8796 00:00:01:12 3402225000471025.3
**
 
1407 FW1733 00:00:01:12 642023244000831009.1  
1408 FW1794 00:00:01:12 6068266000681025.8
**
 
1409 FW0329 00:00:01:12 7748126000371040.2
**
 
1410 EW7684 00:00:01:12 43000000931023.4
**
 
1411 FW1979 00:00:01:12 443424000591025.8  
1412 EW5849 00:00:01:12 5412168200.040901023.5
**
 
1413 DW8348 00:00:01:12 3728296000191013.6
**
 
1414 EW8135 00:00:01:12 4300293000791015.5
**
 
1415 FW2663 00:00:01:12 6506343000611003.1  
1416 EW0880 00:00:01:13 420182000891005.0
**
 
1417 DW3094 00:00:01:13 3800333000581019.9
**
 
1418 EW3139 00:00:01:13 513930100.010631021.8
**
 
1419 DW5785 00:00:01:13 671418800451032.3
**
 
1420 DW7311 00:00:01:13 0000
**
 
1421 CW7146 00:00:01:13 5214211000771004.9
**
 
1422 CW7619 00:00:01:13 65714256000801012.8
**
 
1423 EW2144 00:00:01:13 47002080201012.2
**
 
1424 CW4784 00:00:01:13 3405144000391026.0
**
 
1425 DW6865 00:00:01:13 420068000981022.8
**
 
1426 CW1672 00:00:01:13 4500000.010.01891002.1
**
 
1427 EW6813 00:00:01:13 3001325000871026.3
**
 
1428 EW4304 00:00:01:13 3771831100.430.01781013.4
**
 
1429 EW9341 00:00:01:13 76712101000381025.8
**
 
1430 EW9345 00:00:01:13 432631000.040.04771005.8
**
 
1431 DW7030 00:00:01:13 5417237000821016.3
**
 
1432 FW1411 00:00:01:13 6504100000771012.2
**
 
1433 DW8218 00:00:01:13 341014360.010.030.0211019.4
**
 
1434 DW2020 00:00:01:13 34371700.090.01901016.2
**
 
1435 EW6905 00:00:01:13 461129307.730771023.0
**
 
1436 CW7610 00:00:01:13 31001440501004.1
**
 
1437 CW5834 00:00:01:14 49614290000741014.6
**
 
1438 EW5282 00:00:01:14 4331734500.060681013.5
**
 
1439 CW2057 00:00:01:14 504938000691004.0
**
 
1440 EW1979 00:00:01:14 550470441019.8
**
 
1441 DW7187 00:00:01:14 326123480.020.040.02951009.1
**
 
1442 EW6162 00:00:01:14 53101531500.010.01791007.7
**
 
1443 EW4330 00:00:01:14 6826186000561025.0
**
 
1444 CW9098 00:00:01:14 41008500.230.23911004.1
**
 
1445 DW4738 00:00:01:14 4201000631015.0
**
 
1446 CW9454 00:00:01:14 5123000651000.9
**
 
1447 EW9381 00:00:01:14 5900215000981016.8
**
 
1448 DW7744 00:00:01:14 663578000381024.0
**
 
1449 FW0730 00:00:01:14 670032500601005.5
**
**
1450 CW4993 00:00:01:14 5602192000501019.4
**
 
1451 DW0089 00:00:01:14 325618004.97098997.6
**
 
1452 CW8812 00:00:01:14 47182200083999.5
**
 
1453 EW1637 00:00:01:14 40612172000371023.0
**
 
1454 FW2404 00:00:01:14 34713325000721021.8
**
 
1455 DW8744 00:00:01:14 6801164000621023.5  
1456 dw7816 00:00:01:14 3526321000731024.6
**
 
1457 FW2740 00:00:01:14 690000.040.04791017.3
**
 
1458 EW1610 00:00:01:14 555871000511010.6
**
 
1459 EW0050 00:00:01:15 7441168000421026.0
**
**
1460 CW3773 00:00:01:15 32002600.40.4961016.9
**
**
1461 EW6402 00:00:01:15 3300000721026.6
**
 
1462 DW9399 00:00:01:15 3900000611013.3
**
 
1463 DW1154 00:00:01:15 6300000701017.2
**
 
1464 EW6473 00:00:01:15 45110202000721014.4
**
 
1465 EW5516 00:00:01:15 4000000871016.3
**
 
1466 EW1407 00:00:01:15 33364300.170.09941016.2
**
 
1467 cw5732 00:00:01:15 470223000681006.1
**
 
1468 EW6244 00:00:01:15 4000300000921021.4
**
 
1469 CW4495 00:00:01:16 650088000841018.4
**
**
1470 DW7918 00:00:01:16 324732700.110.01951015.6
**
 
1471 EW6612 00:00:01:16 630019000831020.4
**
 
1472 CW3821 00:00:01:16 3936200000281021.2
**
 
1473 CW3590 00:00:01:16 55040000481022.3
**
**
1474 DW0841 00:00:01:16 4702169000861018.4
**
 
1475 CW8095 00:00:01:16 5602355000451024.1
**
 
1476 EW2616 00:00:01:16 3351127000.0601001006.1
**
 
1477 DW1830 00:00:01:16 3900271000861019.0
**
**
1478 EW9438 00:00:01:16 42512349000621026.2
**
 
1479 CW3518 00:00:01:16 49780000521025.3
**
 
1480 EW1059 00:00:01:16 470570000841002.8
**
 
1481 DW2916 00:00:01:16 3313254000901000.9
**
 
1482 FW0524 00:00:01:16 7229183000461024.4  
1483 FW1404 00:00:01:16 7226139000551031.9
**
 
1484 EW2754 00:00:01:16 79713115000521001.5
**
 
1485 DW4448 00:00:01:16 3023283000511022.6
**
 
1486 CW8746 00:00:01:16 4100000861010.2
**
 
1487 DW4026 00:00:01:16 3100236000801010.9
**
 
1488 FW2402 00:00:01:16 5000000961018.0  
1489 FW2531 00:00:01:16 4300000831018.9  
1490 EW0797 00:00:01:17 3981729500.020631016.6
**
 
1491 EW0520 00:00:01:17 325113480.010.010.01951008.2
**
 
1492 EW5471 00:00:01:17 3435186000421023.7
**
 
1493 EW0288 00:00:01:17 3614282000831007.1
**
 
1494 DW9925 00:00:01:17 3601000381025.4
**
 
1495 EW3918 00:00:01:17 4300000891019.8
**
 
1496 EW5982 00:00:01:17 4700342000491026.2
**
 
1497 EW6435 00:00:01:17 3636319000711026.5
**
 
1498 DW1298 00:00:01:17 6701175000681026.7
**
 
1499 EW6892 00:00:01:17 500000.010591018.6
**
 
1500 DW6368 00:00:01:17 5200257000821015.4
**
 
1501 CW4588 00:00:01:17 5233590591019.8
**
**
1502 DW3420 00:00:01:17 501638000731014.0
**
 
1503 EW4748 00:00:01:17 41022200.10.1951006.2
**
 
1504 DW7067 00:00:01:17 32153100.050921006.8
**
 
1505 EW0110 00:00:01:17 410032400.240.13861002.3
**
 
1506 CW6829 00:00:01:17 37000951022.2
**
 
1507 EW2749 00:00:01:17 341427600.010871002.9
**
**
1508 CW0318 00:00:01:17 4102350000671026.7
**
**
1509 DW0304 00:00:01:17 45121430.010.030.03901004.1
**
 
1510 DW3566 00:00:01:17 7281667000421025.3  
1511 DW9418 00:00:01:17 6014143000461022.9
**
 
1512 CW0879 00:00:01:17 49710261000831016.4  
1513 EW5546 00:00:01:17 66462000461025.7
**
 
1514 DW2400 00:00:01:17 3952280441012.4
**
 
1515 EW6248 00:00:01:17 46612830.040.10.1891006.7
**
 
1516 CW6467 00:00:01:17 303635500.04091988.0
**
 
1517 DW2217 00:00:01:17 3703000721003.6
**
 
1518 FW1552 00:00:01:17 2500000981020.2
**
 
1519 FW1603 00:00:01:17 6001226000931016.5  
1520 FW1833 00:00:01:17 362524300.040921003.2
**
 
1521 EW8212 00:00:01:17 44023440.010.080.08921003.4
**
 
1522 DW3849 00:00:01:17 4902246000871014.0
**
 
1523 DW7712 00:00:01:17 3300302000781019.0
**
 
1524 DW2427 00:00:01:17 6528265000931014.5
**
 
1525 EW8073 00:00:01:18 3827130000411023.2
**
 
1526 DW8622 00:00:01:18 7439191000561025.9
**
 
1527 DW7594 00:00:01:18 463733000881004.8
**
 
1528 CW2789 00:00:01:18 462302000751016.6
**
 
1529 EW4436 00:00:01:18 49512297000991000.6
**
 
1530 EW6025 00:00:01:18 3600000951014.2
**
 
1531 CW5404 00:00:01:18 4112271000841020.9
**
 
1532 EW5681 00:00:01:18 4902229000751002.0
**
 
1533 CW3540 00:00:01:18 69715278000551031.4
**
 
1534 DW3070 00:00:01:18 6000000941016.9
**
 
1535 EW5826 00:00:01:18 324121100.020.01941013.9
**
 
1536 EW7827 00:00:01:18 3726318000761026.8
**
 
1537 EW6672 00:00:01:18 672104500051927.8
**
 
1538 EW5855 00:00:01:18 3501275000801004.4
**
 
1539 EW5741 00:00:01:18 8002200371021.8
**
 
1540 EW4997 00:00:01:18 5491825200.020.0278993.6
**
 
1541 EW7888 00:00:01:18 7151036000501028.9
**
 
1542 CW9040 00:00:01:18 75312314000411014.1
**
**
1543 DW0152 00:00:01:18 7305142000411024.6
**
 
1544 DW0818 00:00:01:18 45286400.230311015.0
**
 
1545 EW2747 00:00:01:18 44614294000621020.5
**
 
1546 FW0373 00:00:01:18 5200000601011.3
**
 
1547 EW1852 00:00:01:18 540238000541025.6
**
 
1548 FW1086 00:00:01:18 4101000651005.8
**
 
1549 DW4998 00:00:01:18 7002215000451025.0
**
 
1550 FW1813 00:00:01:18 4700100000801019.0  
1551 EW4475 00:00:01:18 6800000791018.9
**
 
1552 EW6345 00:00:01:18 543930000781016.2
**
 
1553 EW3989 00:00:01:18 210000.030831021.5
**
 
1554 FW2017 00:00:01:18 5002345000531024.1  
1555 FW2150 00:00:01:18 3500293000901022.8
**
 
1556 EW4722 00:00:01:18 370390.060.170.17911006.1
**
 
1557 EW5965 00:00:01:18 432531000861017.2
**
 
1558 DW0345 00:00:01:19 480029300079
**
 
1559 CW2906 00:00:01:19 4701180000251022.8
**
 
1560 EW8625 00:00:01:19 410167000821017.9
**
 
1561 DW3089 00:00:01:19 514631600.310691021.2
**
 
1562 EW1645 00:00:01:19 58382450.020.020.02801006.3
**
 
1563 DW7571 00:00:01:19 323722500.070911014.3
**
 
1564 EW7232 00:00:01:19 5100327000261014.1
**
 
1565 EW6401 00:00:01:19 6222280000731023.1
**
 
1566 EW6661 00:00:01:19 3246224000661018.8
**
 
1567 DW2182 00:00:01:19 240000.280871026.0
**
**
1568 EW2160 00:00:01:19 6900000791017.7
**
 
1569 EW2569 00:00:01:19 7304180000391025.2
**
 
1570 CW8667 00:00:01:19 5958109000851017.6
**
**
1571 DW9732 00:00:01:19 3435207000881021.4
**
 
1572 CW0476 00:00:01:19 332720300.010.01961010.9
**
 
1573 EW9411 00:00:01:19 390390.080.160.16861006.4
**
 
1574 EW6786 00:00:01:19 5902000511028.8
**
 
1575 FW0179 00:00:01:19 492345000581011.3
**
 
1576 FW0226 00:00:01:19 67815204000641005.4  
1577 EW3176 00:00:01:19 640051000621004.8
**
 
1578 EW4557 00:00:01:19 2900000481024.5
**
**
1579 EW0976 00:00:01:19 3900270000641013.0
**
 
1580 CW2327 00:00:01:19 35000000781024.5
**
**
1581 EW3829 00:00:01:19 2603141000481017.7
**
 
1582 FW1481 00:00:01:19 23004400.060941025.6
**
 
1583 DW6711 00:00:01:19 54065000631023.1
**
 
1584 EW9058 00:00:01:19 849204400073
**
 
1585 EW3870 00:00:01:19 7337167000641013.0
**
 
1586 FW2314 00:00:01:19 75514328000311028.7  
1587 FW2335 00:00:01:19 440179000711024.2
**
 
1588 FW2363 00:00:01:19 6402215000931017.8  
1589 EW5649 00:00:01:19 4000000901022.7
**
 
1590 FW2442 00:00:01:19 672224283000511017.7  
1591 FW2476 00:00:01:19 4400252000761013.6
**
 
1592 FW0866 00:00:01:19 3713237000741007.0  
1593 FW0073 00:00:01:19 5900000781020.5  
1594 DW9034 00:00:01:20 6001241000791005.3
**
 
1595 CW3512 00:00:01:20 4041226400.160721014.1
**
 
1596 EW1823 00:00:01:20 5004296000521022.9
**
 
1597 EW2849 00:00:01:20 7731315700043
**
 
1598 EW7436 00:00:01:20 3503338000811025.6
**
 
1599 EW1120 00:00:01:20 6513226000661009.7
**
 
1600 EW1134 00:00:01:20 721021340000441022.3
**
 
1601 EW0879 00:00:01:20 6400353000611016.3
**
 
1602 EW1227 00:00:01:20 4800000851017.0
**
 
1603 EW5901 00:00:01:20 5802290000151013.1  
1604 EW6572 00:00:01:20 63212250000641004.2
**
 
1605 EW1109 00:00:01:20 32917110.010.520.01791020.3
**
 
1606 CW1768 00:00:01:20 3702241000731003.8
**
 
1607 EW0146 00:00:01:20 39512283000821021.8
**
 
1608 DW3450 00:00:01:20 311332300.020871027.4
**
 
1609 EW6476 00:00:01:20 3601347000921018.1
**
 
1610 DW1372 00:00:01:20 66489600033636.3
**
 
1611 EW7911 00:00:01:20 3336400.090681023.1
**
 
1612 EW5723 00:00:01:20 54013290461024.9
**
 
1613 CW5882 00:00:01:20 382434900.20.13911006.7
**
 
1614 EW3643 00:00:01:20 48235000711005.7
**
 
1615 EW4120 00:00:01:20 5701000671004.2
**
 
1616 DW7791 00:00:01:20 5700000481028.0
**
 
1617 EW8830 00:00:01:20 3441135000.040.02851007.3
**
 
1618 EW9309 00:00:01:20 5600000034977.9
**
 
1619 CW4824 00:00:01:20 321630600.050.04921012.9
**
**
1620 DW2370 00:00:01:20 55410244000801015.7
**
 
1621 EW6915 00:00:01:20 3402100000871008.8
**
 
1622 EW8229 00:00:01:20 420329000861015.6
**
 
1623 EW5536 00:00:01:20 5018328000721004.3
**
 
1624 FW0052 00:00:01:20 531120108000201014.9
**
 
1625 FW0273 00:00:01:20 511322000551023.2
**
 
1626 DW3940 00:00:01:20 534186300.280.05551003.7
**
 
1627 EW8600 00:00:01:20 360000.120941020.1
**
 
1628 CW7030 00:00:01:20 340050.010.030.02951009.1
**
 
1629 FW0697 00:00:01:20 4151032100.010591018.3
**
 
1630 EW2670 00:00:01:20 2900000601022.0
**
 
1631 FW0750 00:00:01:20 5700000861009.2
**
**
1632 EW0755 00:00:01:20 6514270000841016.3  
1633 FW1282 00:00:01:20 6212254000801013.0  
1634 FW0225 00:00:01:20 7713123000331027.8
**
 
1635 FW1477 00:00:01:20 611222238000401024.2
**
 
1636 FW1317 00:00:01:20 7303172000541022.4  
1637 FW1755 00:00:01:20 4600259000811018.4  
1638 EW4813 00:00:01:20 7214151000501011.3
**
 
1639 FW1786 00:00:01:20 4933345000661024.7  
1640 CW4552 00:00:01:20 591455000431006.1
**
**
1641 CW4910 00:00:01:20 4600327000831021.1
**
 
1642 DW2099 00:00:01:20 5637330000601019.2
**
 
1643 FW2154 00:00:01:20 5200000441012.9  
1644 FW2280 00:00:01:20 448141400.080.08771006.9  
1645 FW2289 00:00:01:20 37174600.060.06911003.3
**
 
1646 EW4290 00:00:01:20 6500000871018.3
**
 
1647 EW8565 00:00:01:20 716171430421028.3
**
 
1648 EW9402 00:00:01:20 4705235000901017.2
**
 
1649 FW0754 00:00:01:20 601329200.010841016.3
**
 
1650 EW7146 00:00:01:21 34465400074938.8
**
 
1651 EW6749 00:00:01:21 4200000821017.8
**
 
1652 EW2809 00:00:01:21 4801270000731005.1
**
 
1653 DW6276 00:00:01:21 2400000801027.1
**
 
1654 EW1296 00:00:01:21 45263580.010.050.05811006.0
**
 
1655 EW1940 00:00:01:21 6851190000671023.2
**
 
1656 CW6633 00:00:01:21 3001000461025.0
**
 
1657 EW7694 00:00:01:21 3601322000931022.3
**
 
1658 EW6095 00:00:01:21 5000000771019.9
**
 
1659 CW3315 00:00:01:21 2902198000991007.6
**
 
1660 DW1347 00:00:01:21 1901163000541020.9
**
 
1661 EW7538 00:00:01:21 6561086000541029.4
**
 
1662 EW0811 00:00:01:21 3402000821007.3
**
 
1663 EW4115 00:00:01:21 73516304000401020.6
**
 
1664 CW5699 00:00:01:21 291353000641023.1
**
 
1665 EW3673 00:00:01:21 5413860181010.6
**
 
1666 CW6118 00:00:01:21 0000  
1667 EW8536 00:00:01:21 4001000751005.4
**
 
1668 DW5071 00:00:01:21 5601236000271011.6
**
**
1669 DW1289 00:00:01:21 3971529200.020631017.0
**
 
1670 EW0158 00:00:01:21 526845000431023.6
**
 
1671 CW8738 00:00:01:21 33029900.090901016.6
**
 
1672 CW3660 00:00:01:21 4014243000661005.3
**
**
1673 EW2270 00:00:01:21 4302207000781019.8
**
 
1674 EW1483 00:00:01:21 5101243000871016.7
**
 
1675 DW4135 00:00:01:21 6400178000971017.4
**
 
1676 EW1896 00:00:01:21 6405291000981016.2
**
 
1677 CW7218 00:00:01:21 6517174000491024.8
**
 
1678 EW5772 00:00:01:21 3200359000741022.2
**
 
1679 EW6089 00:00:01:21 400000.150861022.6
**
 
1680 DW4702 00:00:01:21 3900000791021.2
**
 
1681 EW8784 00:00:01:21 64916215000921013.9
**
 
1682 EW8798 00:00:01:21 8203000791006.6
**
 
1683 EW9032 00:00:01:21 3800299000801025.7
**
 
1684 EW2699 00:00:01:21 711290000581024.4
**
 
1685 DW6767 00:00:01:21 280024800.250931017.0
**
 
1686 EW9862 00:00:01:21 6805228000621023.3
**
 
1687 EW9866 00:00:01:21 4102280000911021.7
**
 
1688 EW9902 00:00:01:21 5851523000551024.0
**
 
1689 EW8775 00:00:01:21 462490000281009.6
**
 
1690 CW9335 00:00:01:21 48009800751004.1
**
 
1691 DW1743 00:00:01:21 6724161000671024.0
**
 
1692 FW0751 00:00:01:21 5700000811009.6
**
 
1693 FW0762 00:00:01:21 68357200.40321010.7  
1694 CW6205 00:00:01:21 34614327000731020.8
**
 
1695 FW0954 00:00:01:21 560140000511023.9  
1696 FW1021 00:00:01:21 38411309000641023.9
**
 
1697 FW1074 00:00:01:21 34517288000831009.0  
1698 DW2176 00:00:01:21 34041210.020.080.04911002.9
**
 
1699 EW3345 00:00:01:21 46713314000911019.6
**
 
1700 EW7861 00:00:01:21 4537291000861021.8
**
 
1701 DW2111 00:00:01:21 34383130.010.090.02941011.8
**
 
1702 EW9168 00:00:01:21 340000.040831006.2
**
 
1703 FW1569 00:00:01:21 311724100.10301021.6  
1704 DW6244 00:00:01:21 7600000921016.1
**
 
1705 DW5551 00:00:01:21 3305159000371027.9
**
 
1706 FW1817 00:00:01:21 5100000921009.8  
1707 CW6395 00:00:01:21 661018224000691003.1
**
**
1708 FW1920 00:00:01:21 2837312000641027.1  
1709 CW6242 00:00:01:21 59384200.140911022.2
**
 
1710 CW8668 00:00:01:21 6321752000421023.2
**
 
1711 FW2175 00:00:01:21 3136194000271019.2
**
 
1712 CW5608 00:00:01:21 31410200000421025.7
**
 
1713 FW0516 00:00:01:21 262533200.390.05901022.5  
1714 FW2298 00:00:01:21 3612308000761005.9
**
 
1715 EW9768 00:00:01:21 6103000491010.9
**
 
1716 EW5843 00:00:01:21 5015125000931013.0
**
 
1717 EW5359 00:00:01:21 5351522000821004.9
**
 
1718 FW2197 00:00:01:21 3700000631014.2  
1719 DW4331 00:00:01:21 5439292000721015.2
**
 
1720 FW2746 00:00:01:21 732329000036990.5  
1721 FW2550 00:00:01:21 7026212000601023.6  
1722 EW5835 00:00:01:21 3300274000931006.4
**
 
1723 EW6810 00:00:01:22 391316000841020.6
**
 
1724 EW4197 00:00:01:22 46414352000261009.3
**
 
1725 CW0630 00:00:01:22 4736322000941004.8
**
**
1726 EW4918 00:00:01:22 301225600.020.02951006.1
**
 
1727 EW1985 00:00:01:22 7448186000401025.5
**
 
1728 EW7619 00:00:01:22 480359000841015.1
**
 
1729 DW8320 00:00:01:22 381828100.060751013.8
**
 
1730 EW6498 00:00:01:22 3913230.050.130.14911004.3
**
 
1731 EW8042 00:00:01:22 5002000831016.3
**
 
1732 CW0020 00:00:01:22 501328200.030.03871024.2
**
**
1733 EW8484 00:00:01:22 3500000991007.0
**
 
1734 DW6044 00:00:01:22 440231000821006.3
**
 
1735 EW7874 00:00:01:22 7125296000621025.2
**
 
1736 EW7666 00:00:01:22 6302119000981017.2
**
 
1737 DW4107 00:00:01:22 352421000.010651000.4
**
 
1738 DW7775 00:00:01:22 330330500.090.02931019.3
**
 
1739 EW2566 00:00:01:22 7157222000491019.9
**
 
1740 DW4077 00:00:01:22 5679306000871016.4
**
 
1741 CW9991 00:00:01:22 4900148000371012.3
**
 
1742 CW6351 00:00:01:22 2947322000531028.0
**
**
1743 EW4849 00:00:01:22 401293000841012.1
**
 
1744 EW8552 00:00:01:22 4903000721004.4
**
 
1745 EW5532 00:00:01:22 58020000881017.6
**
 
1746 EW0364 00:00:01:22 420215600.010841005.2
**
 
1747 CW5406 00:00:01:22 4807337000831002.9
**
 
1748 EW8088 00:00:01:22 7302179000561023.6
**
 
1749 FW0047 00:00:01:22 4426103000851021.5  
1750 DW7572 00:00:01:22 235730600.110931026.6
**
**
1751 FW0391 00:00:01:22 8046285000221026.6
**
 
1752 EW2739 00:00:01:22 5201360000311010.4
**
 
1753 FW0803 00:00:01:22 640026301.151.1498894.7  
1754 EW0177 00:00:01:22 320000.220961015.6
**
 
1755 FW0933 00:00:01:22 66816210000591006.2
**
 
1756 DW9323 00:00:01:22 4200000911022.8
**
**
1757 DW4895 00:00:01:22 331532200.080951018.8
**
 
1758 EW3645 00:00:01:22 13100000.180.041001029.7
**
 
1759 DW0067 00:00:01:22 6813134000591027.5
**
 
1760 EW9433 00:00:01:22 491422000691023.0
**
 
1761 EW3445 00:00:01:22 7661215200461023.9
**
 
1762 FW1872 00:00:01:22 3401359000  
1763 DW8240 00:00:01:22 32611600.030.02941013.2  
1764 FW2205 00:00:01:22 01265000  
1765 FW2257 00:00:01:22 553422000381011.5  
1766 EW7791 00:00:01:22 7417281180.060.560.31921016.6
**
 
1767 EW4335 00:00:01:22 307145000871022.1
**
 
1768 EW8914 00:00:01:22 4804101000761004.3
**
 
1769 FW1136 00:00:01:22 4717308000851003.4  
1770 DW7380 00:00:01:22 582927000441016.3
**
 
1771 FW2503 00:00:01:22 4200000951016.3
**
 
1772 EW4670 00:00:01:22 732420300381029.9
**
 
1773 DW1926 00:00:01:23 5912230000801021.2
**
 
1774 DW2736 00:00:01:23 3900300000901015.5
**
**
1775 EW3070 00:00:01:23 5426264000431013.9
**
 
1776 EW5121 00:00:01:23 6401135000681020.7
**
 
1777 EW0237 00:00:01:23 4814344000751003.7
**
 
1778 EW9302 00:00:01:23 310020600.040961004.0
**
 
1779 EW2131 00:00:01:23 2301157000531024.1
**
 
1780 EW1880 00:00:01:23 3101349000861021.8
**
 
1781 DW1601 00:00:01:23 3325317000851012.8
**
 
1782 EW4728 00:00:01:23 355103440.010.10.071001001.2  
1783 CW7500 00:00:01:23 402269000721003.5  
1784 CW2735 00:00:01:23 5124305000881017.0
**
**
1785 FW2222 00:00:01:23 3300157000861004.1
**
 
1786 FW2294 00:00:01:23 37022740.040.060.07931005.2
**
 
1787 EW6913 00:00:01:23 72811344000471021.0
**
 
1788 CW5456 00:00:01:24 4302290000921021.8
**
**
1789 DW7731 00:00:01:24 34000000781013.3
**
 
1790 EW5439 00:00:01:24 36000000871014.4
**
 
1791 DW6997 00:00:01:24 6747218000651022.2
**
 
1792 EW3055 00:00:01:24 5200114000821015.4
**
 
1793 EW6780 00:00:01:24 433432300.05831006.5
**
 
1794 EW1822 00:00:01:24 51000000821019.8
**
 
1795 CW9055 00:00:01:24 3402220881006.6  
1796 EW5825 00:00:01:24 6413261000981017.7
**
 
1797 EW1079 00:00:01:24 7215323000521031.0
**
 
1798 EW2837 00:00:01:24 3801117000911020.7
**
 
1799 CW9067 00:00:01:24 50820321000441006.1
**
 
1800 DW8366 00:00:01:24 6335257000851013.2
**
 
1801 DW9520 00:00:01:24 341218130.020.050.04991009.3
**
 
1802 DW9808 00:00:01:24 320020000831023.7
**
 
1803 DW6679 00:00:01:24 77511144000451027.4  
1804 EW8090 00:00:01:24 6407290000761013.5
**
**
1805 EW9010 00:00:01:24 5414283000951014.7
**
 
1806 CW8310 00:00:01:24 472838000841004.2
**
 
1807 EW3038 00:00:01:24 67410266000441010.9
**
 
1808 EW9634 00:00:01:24 3728322000761024.0
**
 
1809 EW2832 00:00:01:24 3461035900.020811011.5
**
 
1810 EW8161 00:00:01:24 730000.140911012.3
**
 
1811 CW5234 00:00:01:24 432432500.010.01781009.0
**
 
1812 FW1177 00:00:01:24 5434350000471024.6  
1813 CW4396 00:00:01:24 272335500.410871025.7
**
 
1814 DW6875 00:00:01:24 71514317000471029.0
**
 
1815 DW3665 00:00:01:24 7552940761013.7
**
 
1816 FW1583 00:00:01:24 4900270000711006.7  
1817 FW1607 00:00:01:24 35913380.030.280.22941018.3  
1818 FW1645 00:00:01:24 490090000621025.2  
1819 FW1861 00:00:01:24 5400334000951016.5  
1820 FW1850 00:00:01:24 3423295000821008.9  
1821 DW1384 00:00:01:24 74513112000451028.8
**
 
1822 FW2196 00:00:01:24 5700112000951020.2  
1823 FW2307 00:00:01:24 260022000381022.0  
1824 EW4036 00:00:01:24 5627286000771029.8
**
 
1825 DW0558 00:00:01:24 5100000781016.5
**
 
1826 FW1302 00:00:01:24 4200180000891023.7  
1827 FW2685 00:00:01:24 6435332000571024.1  
1828 DW5529 00:00:01:25 52005800030
**
 
1829 CW3398 00:00:01:25 5551019000421023.7
**
 
1830 DW5828 00:00:01:25 250049000691025.3
**
 
1831 dw8180 00:00:01:25 650026200011017.5
**
 
1832 CW5520 00:00:01:25 550024600061014.5
**
 
1833 DW3921 00:00:01:25 5423356000821015.8
**
**
1834 CW1327 00:00:01:25 5700159000981018.4
**
 
1835 DW5210 00:00:01:25 7026164000681022.8
**
**
1836 CW6739 00:00:01:25 380421100074995.6
**
 
1837 EW1968 00:00:01:25 000
**
 
1838 CW5870 00:00:01:25 6001135000811009.0
**
 
1839 EW9430 00:00:01:25 4000180000891023.8
**
 
1840 FW0443 00:00:01:25 4512700073996.2  
1841 FW0646 00:00:01:25 6626279000561012.6
**
 
1842 FW0689 00:00:01:25 7467132000481030.8  
1843 DW5021 00:00:01:25 381018360000511005.7  
1844 FW0959 00:00:01:25 633487000571010.9
**
 
1845 DW7143 00:00:01:25 3703296000711022.0
**
 
1846 FW1092 00:00:01:25 70920156000501026.6  
1847 EW1516 00:00:01:25 6424291000721021.6
**
 
1848 FW1233 00:00:01:25 490090000721006.9  
1849 EW7884 00:00:01:25 600011000471022.5
**
 
1850 CW2158 00:00:01:25 3253600751018.9
**
**
1851 EW5233 00:00:01:25 4713357000501014.2
**
 
1852 FW2117 00:00:01:25 430210000731032.1  
1853 FW2293 00:00:01:25 554420300721018.0  
1854 EW9314 00:00:01:25 3601300000821005.3
**
 
1855 EW4205 00:00:01:26 4527298000571019.4
**
 
1856 DW4513 00:00:01:26 3604213000951004.1
**
 
1857 CW9774 00:00:01:26 30231100.30931028.1
**
 
1858 EW0079 00:00:01:26 56102075000661026.1
**
 
1859 CW2530 00:00:01:26 4771263000861001.4
**
 
1860 DW7857 00:00:01:26 733427000451026.8
**
 
1861 CW8508 00:00:01:26 5200259000761015.4
**
 
1862 EW4007 00:00:01:26 42122960.010.490.39971008.4
**
 
1863 DW9920 00:00:01:26 4721225900.070.07821010.4
**
 
1864 EW6418 00:00:01:26 3861530400.190751018.1
**
 
1865 EW7063 00:00:01:26 3682032800.080881011.1
**
 
1866 EW8003 00:00:01:26 4736319000781022.5
**
 
1867 EW2440 00:00:01:26 230880841028.4
**
 
1868 EW3589 00:00:01:26 373876000621031.6
**
 
1869 EW2893 00:00:01:26 34312325000831018.7
**
 
1870 EW7440 00:00:01:26 623335000881015.9
**
 
1871 DW4939 00:00:01:26 733432000391031.0
**
 
1872 DW6030 00:00:01:26 5902278000781021.3
**
**
1873 DW7955 00:00:01:26 374827000391023.0
**
 
1874 EW2362 00:00:01:26 4000217000911014.2
**
 
1875 DW3644 00:00:01:26 64110146000541026.6
**
 
1876 DW7146 00:00:01:26 32146000.020781006.1
**
 
1877 EW4338 00:00:01:26 312435000441033.7
**
 
1878 DW9328 00:00:01:26 64152780.010.090.09871007.7
**
 
1879 EW9037 00:00:01:26 3882031100.010701017.8
**
 
1880 EW2625 00:00:01:26 560208000351011.2
**
 
1881 EW9486 00:00:01:26 282333700.180661022.9
**
 
1882 EW9528 00:00:01:26 4936122000231014.6  
1883 EW6225 00:00:01:26 4000259000961018.9
**
 
1884 CW7186 00:00:01:26 472100.030671004.3
**
 
1885 DW3472 00:00:01:26 45019000841022.0
**
 
1886 EW9395 00:00:01:26 46352280001001011.3  
1887 FW0553 00:00:01:26 400022500.080.01901017.6  
1888 EW9305 00:00:01:26 565952000461026.8  
1889 FW1008 00:00:01:26 6646186000551003.4  
1890 DW4688 00:00:01:26 3900216000891016.8
**
 
1891 DW4862 00:00:01:26 37615339000671022.6  
1892 EW6139 00:00:01:26 660053000431021.1
**
 
1893 EW7270 00:00:01:26 7300000.8461017.8
**
 
1894 EW6045 00:00:01:26 5200336000661021.6
**
 
1895 FW1624 00:00:01:26 510231000801016.2  
1896 CW0325 00:00:01:26 440078000951021.8
**
 
1897 CW4217 00:00:01:26 5802112000621015.1  
1898 FW0296 00:00:01:26 292431500.020521013.7  
1899 DW9351 00:00:01:26 00650001016.9
**
 
1900 FW2009 00:00:01:26 6910184000611024.8  
1901 FW2057 00:00:01:26 522428000631024.9
**
 
1902 FW2172 00:00:01:26 6322247000411013.0  
1903 DW8488 00:00:01:26 3900327000801006.3
**
 
1904 FW2648 00:00:01:26 6950227000861019.1  
1905 DW7912 00:00:01:26 5600180000591006.9
**
 
1906 EW9553 00:00:01:26 4013286000711007.7  
1907 CW5327 00:00:01:26 31011600.510.01931015.6
**
 
1908 EW5770 00:00:01:27 75615342000371026.4
**
 
1909 EW6535 00:00:01:27 2634314000751025.1  
1910 DW3224 00:00:01:27 4459332000921023.4
**
 
1911 EW4675 00:00:01:27 37003550.070.170.17941006.7
**
 
1912 EW7277 00:00:01:27 656968000651030.5
**
 
1913 EW4964 00:00:01:27 654780000481036.6
**
 
1914 CW2433 00:00:01:27 3000500.010821029.0
**
**
1915 DW9470 00:00:01:27 26104000.380891026.9
**
 
1916 EW8580 00:00:01:27 6530229000671007.4
**
 
1917 CW0294 00:00:01:27 630011900.010891018.8  
1918 CW5689 00:00:01:27 279033200.010.01891015.4
**
 
1919 CW2195 00:00:01:27 611022281000751005.6
**
**
1920 DW6359 00:00:01:27 26032400.030881023.0
**
 
1921 CW0443 00:00:01:27 3500201001001013.5
**
 
1922 EW1658 00:00:01:27 330027800.030951006.3
**
 
1923 EW7503 00:00:01:27 6817292000531023.4
**
 
1924 EW8604 00:00:01:27 360031500.040861008.1  
1925 EW8313 00:00:01:27 343527100.010891008.0
**
 
1926 DW5936 00:00:01:27 6658239000541024.4
**
 
1927 cw4507 00:00:01:27 452312000841019.6
**
 
1928 EW8730 00:00:01:27 5800323000931016.8
**
 
1929 EW9175 00:00:01:27 42002470.030.040.04871015.8
**
 
1930 DW1146 00:00:01:27 375821002.542.54741005.7
**
 
1931 CW5084 00:00:01:27 312524000.020943324.0
**
 
1932 DW6919 00:00:01:27 353025700.040841004.3
**
 
1933 FW0150 00:00:01:27 68614180000431027.7
**
**
1934 FW0315 00:00:01:27 4000315000821017.3  
1935 FW0345 00:00:01:27 2700225000531024.0  
1936 CW8935 00:00:01:27 440054000751014.1  
1937 FW0979 00:00:01:27 4726105000311022.2
**
 
1938 FW1041 00:00:01:27 600021000161015.8  
1939 FW1091 00:00:01:27 38002700.070.070.07921008.6  
1940 DW8433 00:00:01:27 3000270000851020.9
**
 
1941 DW3085 00:00:01:27 390028600077997.6
**
 
1942 EW4595 00:00:01:27 732419000821011.2
**
 
1943 FW2484 00:00:01:27 6738351000611024.0  
1944 EW9724 00:00:01:27 3300145000471015.1  
1945 DW8404 00:00:01:28 37914317000731023.2
**
 
1946 EW7348 00:00:01:28 3211247000941007.4
**
 
1947 DW2270 00:00:01:28 6600350000461020.6
**
 
1948 EW7922 00:00:01:28 313431100.0701001021.5  
1949 CW8077 00:00:01:28 284734500.370901019.6
**
 
1950 DW9310 00:00:01:28 294833000531020.1
**
 
1951 CW1795 00:00:01:28 3323313000641019.4
**
**
1952 EW7844 00:00:01:28 6415335000811012.5
**
 
1953 CW1450 00:00:01:28 6000292000911017.4
**
**
1954 EW8240 00:00:01:28 4100315000861017.1  
1955 EW6503 00:00:01:28 6447279000361007.7
**
 
1956 EW8089 00:00:01:28 671274000421022.0
**
 
1957 EW8320 00:00:01:28 3700202000761019.2
**
 
1958 EW6088 00:00:01:28 56513327000711009.3
**
 
1959 DW7199 00:00:01:28 44510343000631020.7
**
 
1960 DW2039 00:00:01:28 6447236000721023.2
**
 
1961 DW4366 00:00:01:28 2838122000541023.0
**
 
1962 DW9477 00:00:01:28 3503314000831013.5
**
 
1963 EW4828 00:00:01:28 373614600.030871005.0
**
 
1964 DW8266 00:00:01:28 691371000461019.3
**
 
1965 DW6827 00:00:01:28 321229700.010891026.6
**
 
1966 EW2592 00:00:01:28 3171024000.040561008.0
**
 
1967 DW5766 00:00:01:28 00.070.071006.7
**
 
1968 CW6981 00:00:01:28 3000122000511022.7
**
**
1969 CW0725 00:00:01:28 58249000411023.6
**
**
1970 EW9040 00:00:01:28 4223118000861023.4  
1971 EW9192 00:00:01:28 3200252000901005.9
**
 
1972 EW7338 00:00:01:28 61517312000721018.5
**
 
1973 EW9593 00:00:01:28 541245000471024.2
**
 
1974 EW8386 00:00:01:28 5200180000631026.1  
1975 DW4505 00:00:01:28 6814221000591007.6
**
 
1976 DW6906 00:00:01:28 576133140421005.3
**
 
1977 DW2489 00:00:01:28 3605242000801006.1
**
 
1978 CW0101 00:00:01:28 2812244000691025.4
**
**
1979 EW1617 00:00:01:28 4000000981020.9
**
 
1980 CW3744 00:00:01:28 37510164000401023.4
**
 
1981 FW1684 00:00:01:28 3413161000721017.2
**
 
1982 FW1831 00:00:01:28 714893000381028.0
**
 
1983 EW7343 00:00:01:28 3600225000771006.7
**
 
1984 DW9972 00:00:01:28 290020400064
**
 
1985 FW2265 00:00:01:28 680289000571022.5  
1986 FW0007 00:00:01:28 40000000671005.8
**
 
1987 EW8446 00:00:01:28 305032600.020931020.4
**
 
1988 EW8480 00:00:01:29 5013246000961017.6  
1989 EW7582 00:00:01:29 3759284000631023.0  
1990 EW7570 00:00:01:29 4201195000611023.6  
1991 CW1508 00:00:01:29 5248341000231013.3  
1992 DW6352 00:00:01:29 251240000711028.1
**
 
1993 CW9560 00:00:01:29 60410231000721020.1
**
 
1994 DW7967 00:00:01:29 46000000741025.1
**
 
1995 CW3318 00:00:01:29 3225333000881026.2
**
 
1996 EW5545 00:00:01:29 6961339000581024.6
**
**
1997 EW3084 00:00:01:29 5914236000581028.2
**
 
1998 EW7533 00:00:01:29 6926290000881014.8
**
 
1999 DW2149 00:00:01:29 3800235000841013.6
**
**
2000 EW5775 00:00:01:29 7313117000561012.8
**
 
2001 DW4166 00:00:01:29 6400360000511016.9
**
 
2002 EW5865 00:00:01:29 370427000.070.06951006.2
**
 
2003 CW1909 00:00:01:29 40020000821015.7
**
**
2004 EW7157 00:00:01:29 450115000681008.4  
2005 EW2956 00:00:01:29 4215810.020.040.04921005.4
**
 
2006 EW7122 00:00:01:29 2625278000781022.8
**
 
2007 CW1773 00:00:01:29 3300196000901004.2
**
**
2008 cw3410 00:00:01:29 305348000881026.8
**
**
2009 DW3422 00:00:01:29 420560931021.4
**
 
2010 EW3730 00:00:01:29 34000000971013.0
**
 
2011 CW2227 00:00:01:29 70710205000871018.5
**
**
2012 DW8689 00:00:01:29 56131733900.06099996.5
**
 
2013 EW8766 00:00:01:29 3800220.010.010.01831008.8  
2014 DW0215 00:00:01:29 7346261000531022.7
**
 
2015 EW7711 00:00:01:29 300133700.030981028.8  
2016 CW9520 00:00:01:29 440219000781016.3
**
 
2017 FW0065 00:00:01:29 6613109000711021.7
**
 
2018 FW0450 00:00:01:29 641425000721048.7
**
 
2019 FW0734 00:00:01:29 65011400.020.02931022.9
**
 
2020 EW1380 00:00:01:29 71711130000341031.6
**
 
2021 EW0112 00:00:01:29 000958.2
**
 
2022 EW1211 00:00:01:29 8247225000211015.2
**
 
2023 FW1484 00:00:01:29 701495000531017.1
**
 
2024 DW8806 00:00:01:29 368924600.010101003.9
**
 
2025 EW0103 00:00:01:29 3461329100.020.01861019.2
**
 
2026 DW2616 00:00:01:29 3738340000691023.6
**
**
2027 EW4981 00:00:01:29 5700319000731027.0  
2028 CW0645 00:00:01:29 5523175000801015.8
**
 
2029 CW9900 00:00:01:29 4324335000541021.6
**
 
2030 EW4489 00:00:01:29 5600180000391026.8
**
 
2031 FW2422 00:00:01:29 55149000471024.0
**
 
2032 FW0620 00:00:01:29 6512354000511010.9  
2033 FW2617 00:00:01:29 53382000491023.2  
2034 EW8158 00:00:01:29 3300270000691021.4
**
 
2035 DW3485 00:00:01:30 3701210000871005.4
**
 
2036 DW0060 00:00:01:30 3000290000921008.5
**
 
2037 EW3935 00:00:01:30 72410127000491022.2
**
 
2038 CW0230 00:00:01:30 7203229000621023.7
**
 
2039 EW4866 00:00:01:30 6003100000851008.7
**
 
2040 DW7835 00:00:01:30 53142523000191010.1
**
**
2041 EW6607 00:00:01:30 611123145000561021.4
**
 
2042 DW9353 00:00:01:30 3801260000751005.3
**
 
2043 EW1789 00:00:01:30 413411000791014.6
**
 
2044 EW7153 00:00:01:30 3500225000981021.9
**
 
2045 EW7158 00:00:01:30 3900225000951015.0
**
 
2046 CW4014 00:00:01:30 39002700.140.20.19901007.1  
2047 EW7083 00:00:01:30 47252850001001003.9
**
 
2048 EW7222 00:00:01:30 62916234000841009.1  
2049 EW7740 00:00:01:30 6425212000711011.8  
2050 EW7154 00:00:01:30 3357300.140.06971017.9  
2051 EW7994 00:00:01:30 41001120.041.020.07981010.9
**
 
2052 EW2610 00:00:01:30 5200308000931019.9
**
 
2053 EW4924 00:00:01:30 384723000631011.4
**
 
2054 EW3522 00:00:01:30 7704170000391026.2
**
 
2055 DW7901 00:00:01:30 69321338000411028.0
**
 
2056 DW5633 00:00:01:30 6002109000681019.9
**
 
2057 EW6103 00:00:01:30 6735225000621030.7
**
 
2058 EW2799 00:00:01:30 620273000921012.7
**
 
2059 EW4185 00:00:01:30 4423244000791017.5
**
 
2060 EW8567 00:00:01:30 54917213000311009.2
**
 
2061 EW5239 00:00:01:30 63915305000631031.2
**
 
2062 EW3507 00:00:01:30 68712277000481017.7
**
 
2063 EW9120 00:00:01:30 66102123700053953.6
**
 
2064 FW0292 00:00:01:30 6514239000711023.8
**
 
2065 EW1888 00:00:01:30 61000000501019.5
**
 
2066 EW2725 00:00:01:30 3900273000881006.8
**
 
2067 FW0665 00:00:01:30 3000269000551012.2
**
 
2068 FW0742 00:00:01:30 5061047000521024.7  
2069 FW0782 00:00:01:30 72710149000541025.2
**
**
2070 DW8209 00:00:01:30 0001025.6
**
 
2071 EW7173 00:00:01:30 3912247000671006.2
**
 
2072 EW7626 00:00:01:30 6824160000441036.5
**
 
2073 FW1448 00:00:01:30 3012357000551026.1  
2074 CW5885 00:00:01:30 41383600.080.120.12861004.9
**
 
2075 CW4250 00:00:01:30 290319500.130951003.7  
2076 CW1010 00:00:01:30 3700000.010.011001021.7
**
 
2077 DW3190 00:00:01:30 7113110000491027.4
**
 
2078 EW9056 00:00:01:30 32111267000851022.7
**
 
2079 EW3921 00:00:01:30 54036900022989.7
**
 
2080 CW1844 00:00:01:30 4000324000881016.9
**
**
2081 Fw2521 00:00:01:30 6303309000631005.8  
2082 DW2661 00:00:01:30 64714211000541022.0  
2083 EW9001 00:00:01:30 3600188000511026.4
**
 
2084 EW0195 00:00:01:30 46398000631005.3
**
 
2085 FW2647 00:00:01:30 7138137000611019.4  
2086 DW7160 00:00:01:31 591015208000521024.5
**
 
2087 CW6835 00:00:01:31 5935252000811031.2
**
 
2088 DW1880 00:00:01:31 2500321000881020.0
**
 
2089 CW1550 00:00:01:31 5188340000641005.1
**
**
2090 EW8119 00:00:01:31 39414168000341023.2
**
 
2091 dw6791 00:00:01:31 562720000521022.4
**
 
2092 EW0399 00:00:01:31 6302333000791023.0
**
 
2093 CW0775 00:00:01:31 6961629000431029.0
**
 
2094 CW2340 00:00:01:31 380015800.01094980.8  
2095 EW2978 00:00:01:31 45000000321020.4
**
 
2096 DW4557 00:00:01:31 65715204000601002.5
**
 
2097 CW0465 00:00:01:31 3612261000881010.0
**
**
2098 EW4320 00:00:01:31 7418183000501021.9  
2099 DW3331 00:00:01:31 361331600.140.13881006.1
**
**
2100 DW8355 00:00:01:31 4413354000621025.7
**
 
2101 DW8604 00:00:01:31 7639159000431027.3
**
 
2102 EW0415 00:00:01:31 781374000331015.0
**
 
2103 EW5290 00:00:01:31 210022500.570991026.3
**
 
2104 DW6963 00:00:01:31 38101727000.110751012.7
**
 
2105 EW7358 00:00:01:31 3431032300.070871023.4
**
 
2106 EW7906 00:00:01:31 600714000541021.7
**
 
2107 CW6401 00:00:01:31 3258200.060921006.3
**
 
2108 EW3780 00:00:01:31 64416242000751012.1
**
 
2109 DW9352 00:00:01:31 42000000931015.9
**
 
2110 EW8655 00:00:01:31 350234300088999.0
**
 
2111 EW2998 00:00:01:31 447914000821008.9
**
 
2112 EW5230 00:00:01:31 6600300000811023.8
**
 
2113 EW4225 00:00:01:31 303932700.010941018.5
**
 
2114 DW3787 00:00:01:31 7033130641022.7
**
 
2115 EW7163 00:00:01:31 470045000641026.3  
2116 EW7156 00:00:01:31 400131500.130.06951006.7  
2117 EW0150 00:00:01:31 661118325000581030.5
**
 
2118 DW3702 00:00:01:31 47000000821023.0
**
 
2119 EW1675 00:00:01:31 503524000701003.2
**
 
2120 DW2168 00:00:01:31 3448143000801022.9
**
 
2121 DW8816 00:00:01:31 7713196000431023.0  
2122 EW4421 00:00:01:31 5724335000671015.2
**
 
2123 EW0594 00:00:01:31 6015235000751020.3
**
**
2124 EW0767 00:00:01:31 350022800.010911008.9
**
 
2125 cw6899 00:00:01:31 5700000051
**
 
2126 EW1876 00:00:01:31 610065000791022.2
**
 
2127 CW9234 00:00:01:31 4201190.01811015.4
**
 
2128 EW5820 00:00:01:31 220025300.010881029.9
**
 
2129 DW0462 00:00:01:31 4802135000581016.4
**
 
2130 EW2826 00:00:01:31 6512217000531014.6
**
 
2131 CW8559 00:00:01:31 35203260.01941011.6
**
 
2132 EW8856 00:00:01:31 43000000751013.8
**
 
2133 EW5095 00:00:01:31 462659000311028.0
**
 
2134 EW6343 00:00:01:31 65010000661023.5
**
 
2135 FW0643 00:00:01:31 6323270000641005.3  
2136 FW0810 00:00:01:31 705953000501038.3
**
 
2137 CW8839 00:00:01:31 441413800.290.05961005.7
**
**
2138 FW1189 00:00:01:31 6224171000421034.1
**
 
2139 DW1871 00:00:01:31 3603600511010.3
**
 
2140 FW1400 00:00:01:31 49000000821007.1  
2141 DW7748 00:00:01:31 723790000361024.6
**
 
2142 FW1492 00:00:01:31 3401700.090.190.19901006.8  
2143 FW1584 00:00:01:31 556133160.070.070.07871006.6
**
 
2144 FW1511 00:00:01:31 38000000941020.8
**
 
2145 FW1775 00:00:01:31 300532900.020821008.8
**
 
2146 EW9760 00:00:01:31 3502203000821014.0
**
 
2147 FW1868 00:00:01:31 6416309000551025.8  
2148 EW7164 00:00:01:31 42912246000531003.2  
2149 FW2386 00:00:01:31 5200180000671017.1  
2150 EW6385 00:00:01:31 6228183000211004.2
**
 
2151 FW2415 00:00:01:31 59512228000761019.1  
2152 FW1898 00:00:01:31 31263170.010.010.01961010.4  
2153 CW9444 00:00:01:31 6300347000541019.6
**
 
2154 FW2727 00:00:01:31 42000000921022.7
**
 
2155 EW1478 00:00:01:32 7214238000571022.7
**
 
2156 CW2235 00:00:01:32 5200300000951030.6
**
**
2157 CW2321 00:00:01:32 7426158000561013.5
**
 
2158 CW1575 00:00:01:32 3513190000401021.8
**
**
2159 EW7205 00:00:01:32 7902131000331011.3
**
 
2160 DW5977 00:00:01:32 3502100.110971008.1
**
 
2161 EW2736 00:00:01:32 36102328900.030821011.6
**
 
2162 DW9145 00:00:01:32 240034000721025.1
**
 
2163 EW4932 00:00:01:32 41000000881020.9
**
 
2164 EW8282 00:00:01:32 790448000411032.7
**
 
2165 DW2488 00:00:01:32 6803283000771017.5
**
 
2166 EW1600 00:00:01:32 61142616700.110.01601021.2
**
 
2167 EW4696 00:00:01:32 53000000621023.5
**
 
2168 EW7755 00:00:01:32 3088126000671024.8
**
 
2169 DW8321 00:00:01:32 38000000821014.3
**
 
2170 DW5330 00:00:01:32 6977338000771017.5
**
 
2171 EW1057 00:00:01:32 62000000631008.3
**
 
2172 CW5416 00:00:01:32 4200353000641015.2
**
 
2173 DW8780 00:00:01:32 4636349000901002.9
**
 
2174 EW0172 00:00:01:32 67459800.020.01611023.9
**
 
2175 EW6866 00:00:01:32 6626250000671003.1  
2176 EW4723 00:00:01:32 400131000971023.2
**
 
2177 EW0499 00:00:01:32 32000000851025.4
**
 
2178 EW7337 00:00:01:32 6700346000851022.7  
2179 CW7834 00:00:01:32 3404550941005.1  
2180 EW0872 00:00:01:32 5400225000911024.7
**
 
2181 EW7404 00:00:01:32 5720050871.5  
2182 EW7484 00:00:01:32 4934157000281020.2  
2183 EW0094 00:00:01:32 4546112000871016.3
**
 
2184 DW7501 00:00:01:32 32513700.20781016.4
**
 
2185 DW6047 00:00:01:32 39003380.060.140.14931007.9  
2186 DW4073 00:00:01:32 36003380.010.010.01861004.8
**
 
2187 EW8639 00:00:01:32 4900000078970.6
**
 
2188 CW8637 00:00:01:32 371417900.010821004.7
**
 
2189 DW6399 00:00:01:32 51812302000511018.1
**
 
2190 DW4248 00:00:01:32 3828326000711022.1
**
 
2191 CW0657 00:00:01:32 4424324000841019.7
**
 
2192 DW1185 00:00:01:32 1170000001001018.5  
2193 CW7220 00:00:01:32 63712119000811022.9
**
 
2194 EW7920 00:00:01:32 6661331500057999.7
**
 
2195 CW4669 00:00:01:32 33684500.040631020.2
**
**
2196 CW4354 00:00:01:32 400000.10.150.15891006.4
**
 
2197 EW8215 00:00:01:32 4800184000701023.0
**
 
2198 EW8739 00:00:01:32 7671394000311013.3
**
 
2199 CW3847 00:00:01:32 7014349000451019.6
**
 
2200 EW8907 00:00:01:32 76312132000501027.2
**
 
2201 DW5858 00:00:01:32 32369800.110881020.3
**
 
2202 EW9090 00:00:01:32 401929900.020561016.5
**
 
2203 EW4394 00:00:01:32 3403000.030951017.8
**
 
2204 EW9436 00:00:01:32 410011200.010881007.5  
2205 DW2776 00:00:01:32 7223230000191032.2
**
 
2206 DW6810 00:00:01:32 5625338000511024.4
**
 
2207 DW8501 00:00:01:32 742894000351013.5
**
 
2208 EW9620 00:00:01:32 3438296000811018.3
**
 
2209 DW2728 00:00:01:32 3112187000711027.3
**
 
2210 CW7491 00:00:01:32 43000000911023.1
**
 
2211 DW6659 00:00:01:32 3400000.010961021.3
**
 
2212 DW4098 00:00:01:32 650000.040.410.41911024.4
**
 
2213 FW0400 00:00:01:32 3000000.010941005.7  
2214 EW9448 00:00:01:32 673575000601000.3
**
 
2215 EW9035 00:00:01:32 7559315000441022.0
**
 
2216 FW0668 00:00:01:32 341625311000871019.2
**
 
2217 CW2470 00:00:01:32 67110212000653389.8
**
 
2218 EW7168 00:00:01:32 3500247000411025.8  
2219 DW9638 00:00:01:32 7271310100045
**
 
2220 EW3873 00:00:01:32 5500140000851030.6
**
 
2221 FW1266 00:00:01:32 303912500044989.7
**
 
2222 CW2865 00:00:01:32 270135200.20911027.8  
2223 FW1377 00:00:01:32 66100000661023.0
**
 
2224 FW1413 00:00:01:32 5600357000301011.0
**
 
2225 EW8420 00:00:01:32 6725125000511016.0  
2226 EW7913 00:00:01:32 7726136000401016.1
**
 
2227 FW1602 00:00:01:32 6869337000441026.1
**
 
2228 EW7886 00:00:01:32 382370000871021.4  
2229 EW0090 00:00:01:32 471017355000581024.3
**
 
2230 DW5310 00:00:01:32 4201270000761019.5
**
 
2231 CW2672 00:00:01:32 5200290000881019.0
**
 
2232 DW1223 00:00:01:32 260126400861021.7
**
 
2233 EW0035 00:00:01:32 54613222000731015.0  
2234 DW6236 00:00:01:32 7037195000421024.3
**
 
2235 EW5608 00:00:01:32 360110200.010921015.6
**
 
2236 CW6625 00:00:01:32 54616256000711012.0
**
 
2237 FW2392 00:00:01:32 4447101000761003.3
**
 
2238 EW3350 00:00:01:32 65511326000661017.4
**
 
2239 FW2440 00:00:01:32 425132250.010.610.5999914.8  
2240 EW2142 00:00:01:32 5501303000891031.4
**
 
2241 FW1406 00:00:01:32 615103100.710791020.4  
2242 dw7462 00:00:01:32 4071726500.10721013.7
**
 
2243 CW9316 00:00:01:32 3300000078996.9
**
 
2244 FW2605 00:00:01:32 500619500081966.3  
2245 FW2665 00:00:01:32 27002400.350961029.7  
2246 FW2702 00:00:01:32 3151035300.490791017.4  
2247 FW2720 00:00:01:32 5335117000341007.6  
2248 cw5111 00:00:01:33 7226219000581023.7
**
 
2249 CW2295 00:00:01:33 3623174000631022.7
**
**
2250 CW4114 00:00:01:33 32310329000781016.1
**
 
2251 EW5165 00:00:01:33 6219219000651008.6
**
 
2252 DW6618 00:00:01:33 392360000901020.7
**
 
2253 DW5570 00:00:01:33 313532200.080.01931017.3
**
 
2254 dw7649 00:00:01:33 4702274000821003.8
**
 
2255 DW6903 00:00:01:33 4016234000651004.9
**
 
2256 EW7311 00:00:01:33 3615324000401024.9
**
 
2257 EW1628 00:00:01:33 38000000921016.2
**
 
2258 EW2202 00:00:01:33 3571132700.010881007.0
**
 
2259 EW3651 00:00:01:33 34000000941015.4
**
 
2260 DW1695 00:00:01:33 420089000941022.9
**
**
2261 CW3800 00:00:01:33 351329200.020791014.2
**
 
2262 EW4437 00:00:01:33 4051032000.020631017.0
**
 
2263 EW6902 00:00:01:33 6526215000651005.7
**
 
2264 EW1292 00:00:01:33 4801231000781015.6
**
 
2265 ew2633 00:00:01:33 4051328500.090691014.7
**
 
2266 DW9463 00:00:01:33 36111918900.010771015.2
**
 
2267 EW2136 00:00:01:33 4000000.010931023.1
**
 
2268 DW2585 00:00:01:33 5026193000851016.3
**
**
2269 CW0133 00:00:01:33 544734500060
**
**
2270 DW4879 00:00:01:33 417890000201018.8
**
 
2271 EW1878 00:00:01:33 5903153000801017.5
**
 
2272 DW9620 00:00:01:33 38183128300.220681012.8
**
**
2273 EW0814 00:00:01:33 3222107000931007.0
**
 
2274 EW3649 00:00:01:33 4000000.010961021.8
**
 
2275 CW3577 00:00:01:33 4013216000691003.5
**
 
2276 EW4350 00:00:01:33 6429230000611002.3
**
 
2277 EW6864 00:00:01:33 44131895000491010.6
**
 
2278 CW9352 00:00:01:33 364567000301020.1
**
**
2279 EW5800 00:00:01:33 40000000911022.4
**
 
2280 DW7154 00:00:01:33 2723216000621015.1
**
 
2281 DW8313 00:00:01:33 40000000711014.4
**
 
2282 EW7174 00:00:01:33 3871225200.050651018.2  
2283 DW3092 00:00:01:33 38000000781005.4
**
 
2284 EW2796 00:00:01:33 442377000901023.0
**
 
2285 EW7161 00:00:01:33 320131500.010851019.4  
2286 DW4252 00:00:01:33 714555000621025.0
**
 
2287 EW7160 00:00:01:33 6559199000651013.9
**
 
2288 CW1845 00:00:01:33 3901319000731027.7
**
 
2289 EW6449 00:00:01:33 56027000201011.9
**
 
2290 DW0427 00:00:01:33 5471317500.010.01921021.1
**
 
2291 CW4535 00:00:01:33 4225338000671026.0
**
 
2292 EW3770 00:00:01:33 4625205000331012.7
**
 
2293 CW3517 00:00:01:33 66000000701023.4
**
 
2294 EW6578 00:00:01:33 6905261000481031.4
**
 
2295 DW2423 00:00:01:33 7014115000431023.3
**
 
2296 DW9866 00:00:01:33 32713115000911001.9
**
**
2297 DW4827 00:00:01:33 4000280000941021.2
**
**
2298 CW0238 00:00:01:33 4141431700.010651016.4
**
**
2299 CW9604 00:00:01:33 4313333000891023.0
**
 
2300 DW4685 00:00:01:33 18000000911026.1
**
 
2301 DW0265 00:00:01:33 7336176000591023.6
**
 
2302 CW3185 00:00:01:33 611120215000741020.2
**
 
2303 CW2798 00:00:01:33 627131000821022.7
**
 
2304 CW4719 00:00:01:33 43000000791015.8  
2305 EW8920 00:00:01:33 4148221000771005.5
**
 
2306 EW1850 00:00:01:33 4148299000541008.3  
2307 DW7883 00:00:01:33 582557000311023.0
**
**
2308 EW9362 00:00:01:33 3971928300.030611015.8
**
 
2309 CW2710 00:00:01:33 430014200.030881021.7
**
 
2310 CW6018 00:00:01:33 3000000.460.01961014.6
**
**
2311 DW2073 00:00:01:33 4701325000691022.6
**
**
2312 EW9977 00:00:01:33 36020000961021.4
**
 
2313 EW9135 00:00:01:33 4701222000771021.1
**
 
2314 DW2781 00:00:01:33 40000000681024.9
**
 
2315 EW0123 00:00:01:33 39000000941021.2
**
 
2316 FW0201 00:00:01:33 2634202000761031.0  
2317 FW0394 00:00:01:33 3100000.010891027.2
**
 
2318 DW6004 00:00:01:33 41263540.040.070.07861006.2
**
 
2319 FW0720 00:00:01:33 7471290000341023.8  
2320 EW1284 00:00:01:33 410022000931022.5
**
 
2321 EW9259 00:00:01:33 49020000521023.6
**
 
2322 EW4819 00:00:01:33 7015190000581022.2
**
 
2323 EW8163 00:00:01:33 3200112000911014.1
**
 
2324 FW1245 00:00:01:33 331512100.050821004.4  
2325 CW4210 00:00:01:33 34712249000841004.0
**
 
2326 FW1385 00:00:01:33 492833700.160731018.3
**
 
2327 FW0629 00:00:01:33 6700000.040461011.8  
2328 FW1415 00:00:01:33 5631068000661009.8  
2329 FW1429 00:00:01:33 49048000781005.8
**
 
2330 FW1131 00:00:01:33 7224102000341028.2  
2331 FW1096 00:00:01:33 3434132000911006.4  
2332 FW1475 00:00:01:33 561329000531022.5
**
 
2333 EW0408 00:00:01:33 58010000921018.3
**
 
2334 EW6887 00:00:01:33 6800132000561029.0
**
 
2335 EW8589 00:00:01:33 350022500.010861008.3
**
 
2336 EW0642 00:00:01:33 50000000711005.2
**
 
2337 EW4491 00:00:01:33 332111000841017.2
**
 
2338 DW9349 00:00:01:33 6971818000571020.2
**
 
2339 CW7575 00:00:01:33 3801307000861004.9
**
 
2340 FW2019 00:00:01:33 6010151000511018.6  
2341 EW0068 00:00:01:33 310190000411029.3
**
 
2342 FW1463 00:00:01:33 6415247000961009.6  
2343 DW6756 00:00:01:33 6326118000671023.1
**
 
2344 CW0710 00:00:01:33 6717236000621363.2
**
**
2345 FW2450 00:00:01:33 66000000911012.7  
2346 FW2565 00:00:01:33 6927186000571024.0  
2347 DW2539 00:00:01:33 4545171000801013.5  
2348 FW2669 00:00:01:33 7100000.020.02541020.2  
2349 FW0135 00:00:01:33 350034100.09083991.1  
2350 EW7982 00:00:01:34 3800000.040.04991016.7
**
 
2351 CW3065 00:00:01:34 2113283000571022.7
**
 
2352 EW1664 00:00:01:34 7434212000461024.3
**
 
2353 EW6185 00:00:01:34 313735900.060991019.8
**
 
2354 CW4629 00:00:01:34 32111436000.030.02100963.3
**
 
2355 DW4756 00:00:01:34 741424107000311025.3
**
 
2356 DW5588 00:00:01:34 302531300.060771014.3
**
 
2357 EW4424 00:00:01:34 55000000391009.3
**
 
2358 CW3953 00:00:01:34 3200000.030931018.6
**
 
2359 EW0989 00:00:01:34 35137600076996.5
**
 
2360 EW0990 00:00:01:34 2659200.150891025.6
**
 
2361 DW9783 00:00:01:34 681793000521029.4
**
 
2362 CW7670 00:00:01:34 4051230700.320851011.5
**
 
2363 DW7714 00:00:01:34 14184-0.9
**
 
2364 EW1148 00:00:01:34 36102427000.050851013.8
**
 
2365 DW7280 00:00:01:34 493834400.110.04691011.6
**
 
2366 EW2118 00:00:01:34 3479232000741026.2
**
 
2367 CW7399 00:00:01:34 400020200.010931007.8  
2368 EW8016 00:00:01:34 77411134000411028.0
**
 
2369 EW1161 00:00:01:34 6313220000671003.6
**
**
2370 CW7840 00:00:01:34 58000000201021.9
**
 
2371 EW6000 00:00:01:34 2924226000901025.9
**
 
2372 EW3093 00:00:01:34 2902210000701027.3
**
 
2373 DW0117 00:00:01:34 5204236000871013.8
**
 
2374 DW2221 00:00:01:34 3915400.040.120.12921005.3
**
 
2375 EW0751 00:00:01:34 4901292000851014.0
**
 
2376 DW3282 00:00:01:34 720797000421026.9
**
 
2377 EW4977 00:00:01:34 321431400.210811014.2
**
 
2378 DW4786 00:00:01:34 3017154000501024.3
**
 
2379 DW9188 00:00:01:34 3414299000731025.3
**
 
2380 DW9320 00:00:01:34 3200000.070.01921016.2
**
 
2381 EW1948 00:00:01:34 37510334000681023.7
**
 
2382 EW7096 00:00:01:34 5081219000751003.9
**
 
2383 DW4641 00:00:01:34 40022470.10.110.11891005.0
**
 
2384 EW1802 00:00:01:34 333832900.050.02891007.9
**
 
2385 EW6753 00:00:01:34 25000000721028.1
**
 
2386 CW4840 00:00:01:34 6357260000771018.0
**
 
2387 EW6724 00:00:01:34 38000000931016.8
**
 
2388 DW3544 00:00:01:34 5025117000751005.0
**
 
2389 EW2802 00:00:01:34 3859215000381022.9
**
 
2390 CW5250 00:00:01:34 3800710.050.140.14851004.9
**
**
2391 EW7520 00:00:01:34 431216000.070.07841006.9
**
 
2392 EW2297 00:00:01:34 63241000681023.5
**
 
2393 DW2070 00:00:01:34 471682000841015.0
**
**
2394 EW0335 00:00:01:34 5901330000461020.8
**
 
2395 DW4522 00:00:01:34 40410142000361021.4
**
 
2396 EW4740 00:00:01:34 43022480076968.7
**
 
2397 DW8941 00:00:01:34 680218000.010641022.9
**
 
2398 DW6095 00:00:01:34 601017132000761027.5
**
 
2399 CW0126 00:00:01:34 6321020900.0101
**
 
2400 EW8935 00:00:01:34 3514321000721023.7
**
 
2401 EW1049 00:00:01:34 56000000551019.8
**
 
2402 EW7165 00:00:01:34 260014000961023.3
**
 
2403 DW6417 00:00:01:34 78310156000411026.4
**
 
2404 EW7217 00:00:01:34 44002920.040.040.04931021.5  
2405 cw9610 00:00:01:34 40101533500073994.9
**
 
2406 EW9675 00:00:01:34 73812121000481015.4
**
 
2407 EW2961 00:00:01:34 421618000681025.9
**
 
2408 DW9210 00:00:01:34 370180.010.010.01931018.7
**
 
2409 EW9654 00:00:01:34 39142025200.160621010.5
**
 
2410 FW0077 00:00:01:34 35000000771027.0
**
 
2411 EW0975 00:00:01:34 35713326000711022.6
**
 
2412 FW0549 00:00:01:34 2303358000451022.3
**
 
2413 DW3560 00:00:01:34 4413319000861016.3
**
 
2414 EW8391 00:00:01:34 4600301000791017.2
**
 
2415 FW0561 00:00:01:34 4725289000931026.1
**
 
2416 EW7401 00:00:01:34 4201328000851019.6
**
 
2417 DW7021 00:00:01:34 58000000731015.5
**
 
2418 DW9574 00:00:01:34 524932100.010701015.8  
2419 EW2534 00:00:01:34 6251035000891030.0
**
 
2420 EW5102 00:00:01:34 35000000861004.9
**
 
2421 CW9854 00:00:01:34 331323200.030931006.3
**
 
2422 EW3209 00:00:01:34 4100238000921016.3
**
 
2423 EW6188 00:00:01:34 478129000881003.2
**
 
2424 FW0560 00:00:01:34 641712264000831011.6
**
 
2425 EW9812 00:00:01:34 2901279000621029.6
**
 
2426 DW6002 00:00:01:34 4489351000501033.2
**
 
2427 EW0720 00:00:01:34 34361000931018.4
**
 
2428 DW2843 00:00:01:34 7434165000531023.9
**
 
2429 FW1757 00:00:01:34 4314306000851020.1  
2430 CW6563 00:00:01:34 3471031500.04017139.3
**
 
2431 EW6485 00:00:01:34 29611242000521021.2
**
 
2432 EW9105 00:00:01:34 3334112000911019.6
**
 
2433 FW0360 00:00:01:34 7725115000391034.9  
2434 EW8125 00:00:01:34 7013128000641022.6
**
 
2435 EW5215 00:00:01:34 4400000801015.9
**
 
2436 EW0283 00:00:01:34 7201127000731017.4
**
 
2437 EW8290 00:00:01:34 5304000926.9  
2438 EW2032 00:00:01:34 70000000271021.1
**
 
2439 EW6819 00:00:01:34 311426500.110901005.5
**
 
2440 DW8344 00:00:01:34 2501253000721025.4
**
 
2441 DW9409 00:00:01:34 4500277000861013.7
**
 
2442 FW2637 00:00:01:34 77611133000431027.7  
2443 FW2664 00:00:01:34 4671329300.110611012.0  
2444 EW7155 00:00:01:34 330031500.020821005.2  
2445 DW8452 00:00:01:35 7361535000401020.6
**
 
2446 EW4438 00:00:01:35 4100247000971030.3  
2447 EW7568 00:00:01:35 6959175000591022.9
**
 
2448 EW2875 00:00:01:35 621321256000821022.7
**
 
2449 DW3195 00:00:01:35 3313188300.010911024.6
**
 
2450 EW1385 00:00:01:35 3215100.080771008.4
**
 
2451 EW7792 00:00:01:35 4200000.190.1999993.2
**
 
2452 EW7857 00:00:01:35 38000000901005.0
**
 
2453 CW2285 00:00:01:35 621320294000261009.8
**
 
2454 CW8250 00:00:01:35 7737127000511028.2
**
 
2455 CW5469 00:00:01:35 23040000571021.9
**
 
2456 DW8024 00:00:01:35 6937225000621022.1
**
 
2457 CW1404 00:00:01:35 362628000.02085999.5
**
**
2458 CW4592 00:00:01:35 321331400.50941027.6
**
 
2459 EW0013 00:00:01:35 3200333000541023.5
**
 
2460 DW2911 00:00:01:35 3400228000841026.3
**
 
2461 DW0000 00:00:01:35 591013243000731020.3
**
**
2462 EW7590 00:00:01:35 3900218000731005.7
**
 
2463 dw2812 00:00:01:35 3346251000711027.2
**
 
2464 CW9540 00:00:01:35 36000000861006.1
**
 
2465 DW7537 00:00:01:35 43127600.10.01951022.6
**
 
2466 CW5099 00:00:01:35 4600271000741021.0
**
**
2467 CW2312 00:00:01:35 3851129100.070731012.6
**
 
2468 EW6308 00:00:01:35 5741233000491022.5
**
 
2469 EW4273 00:00:01:35 5004240000211011.7
**
 
2470 DW8657 00:00:01:35 290030100.040841020.5
**
 
2471 CW6808 00:00:01:35 40511209000671016.9
**
 
2472 EW5961 00:00:01:35 760084000841014.8
**
 
2473 EW8812 00:00:01:35 654628300.070751024.4
**
 
2474 DW5670 00:00:01:35 7217250000.01641030.3
**
 
2475 DW0904 00:00:01:35 6213000.630751019.9
**
 
2476 EW6130 00:00:01:35 631215112000701028.4
**
 
2477 EW4187 00:00:01:35 3871227000.08081
**
 
2478 CW7221 00:00:01:35 41141110.050.140.14891005.4
**
 
2479 DW9990 00:00:01:35 341230500.040831014.1
**
 
2480 EW8865 00:00:01:35 64310232000681023.7
**
 
2481 DW8431 00:00:01:35 701518800011022.2
**
 
2482 DW1436 00:00:01:35 7041026400.010601021.7
**
 
2483 DW9590 00:00:01:35 540231500.29059959.9
**
 
2484 EW4893 .
**
 
2485 FW1683 00:00:01:35 6712216400701024.1
**
 
2486 EW2585 00:00:01:35 3244302000831016.7
**
 
2487 CW1925 00:00:01:35 531851000561000.6  
2488 FW1740 00:00:01:35 4000000.040771016.3
**
 
2489 EW3019 00:00:01:35 38414246000741003.6
**
 
2490 DW4294 00:00:01:35 6367225000871008.5
**
 
2491 CW6094 00:00:01:35 372526400.110.01741010.6
**
 
2492 EW7116 00:00:01:35 4024221000841005.8  
2493 DW6162 00:00:01:35 2927800.060971009.4
**
 
2494 CW1466 00:00:01:35 56000000261015.8
**
**
2495 CW3474 00:00:01:35 2828144000511021.8
**
 
2496 DW1415 00:00:01:35 4202239000761006.7
**
**
2497 FW2508 00:00:01:35 3205155000501023.3
**
 
2498 EW6377 00:00:01:35 5824148000511051.4
**
 
2499 FW2678 00:00:01:35 35911311000901008.4  
2500 FW2692 00:00:01:35 49410270000671016.0  
2501 FW2693 00:00:01:35 53132019900.050.05781031.4  
2502 EW6360 00:00:01:36 5415325000701016.3
**
 
2503 DW9101 00:00:01:36 6306101000541020.3
**
 
2504 DW1496 00:00:01:36 55020000831017.1
**
 
2505 DW5477 00:00:01:36 3524232000821022.9
**
 
2506 CW8371 00:00:01:36 41000000691005.5
**
 
2507 DW7171 00:00:01:36 450041000751012.9
**
 
2508 CW3556 00:00:01:36 36717357000711022.3
**
**
2509 EW7321 00:00:01:36 6000301000871016.9
**
 
2510 DW4064 00:00:01:36 5101199000911016.4
**
 
2511 CW9769 00:00:01:36 327143420.010.060.03921011.2
**
 
2512 EW7069 00:00:01:36 304632500.040881016.9
**
 
2513 DW8435 00:00:01:36 701332300.760931015.7
**
 
2514 DW3623 00:00:01:36 7322360511022.3
**
 
2515 DW3529 00:00:01:36 357131440421020.2
**
 
2516 CW5437 00:00:01:36 3134300.090941007.7
**
 
2517 EW9197 00:00:01:36 3451250.010.090.07941018.6
**
 
2518 EW9439 00:00:01:36 6505320000771013.4
**
 
2519 DW2722 00:00:01:36 52425900661026.8
**
 
2520 EW6962 00:00:01:36 347112300.040931025.1
**
 
2521 FW0401 00:00:01:36 732315100.30.04491022.4
**
 
2522 FW0485 00:00:01:36 40112329200.170741012.6
**
 
2523 CW9805 00:00:01:36 3423270000691012.4
**
 
2524 EW2015 00:00:01:36 3892027000.11084973.3
**
 
2525 DW2483 00:00:01:36 3279324000661016.1
**
 
2526 EW7291 00:00:01:36 4457360000881016.9
**
 
2527 DW6063 00:00:01:36 5904217000161011.7  
2528 FW1355 00:00:01:36 871125334000281020.2  
2529 EW3662 00:00:01:36 320098000641025.0
**
 
2530 DW1073 00:00:01:36 6303244000891019.3  
2531 CW5217 00:00:01:36 3600212000931004.7
**
 
2532 EW7707 00:00:01:36 300132800.030871028.2
**
 
2533 EW5385 00:00:01:37 713690000751015.9
**
 
2534 EW7235 00:00:01:37 3002229000901025.6
**
 
2535 CW2972 00:00:01:37 43513339000731018.2
**
 
2536 DW1837 00:00:01:37 6669194000611006.9
**
 
2537 CW5356 00:00:01:37 4326870941020.7  
2538 CW5498 00:00:01:37 491479000801002.3
**
 
2539 EW4729 00:00:01:37 6400352000451021.3
**
 
2540 EW0347 00:00:01:37 3537227000771005.1
**
 
2541 DW6198 00:00:01:37 671764000591032.2
**
 
2542 DW4348 00:00:01:37 5225117000161010.6
**
 
2543 CW1675 00:00:01:37 7651380000251026.0
**
 
2544 DW7306 00:00:01:37 61830700591013.7
**
 
2545 DW9627 00:00:01:37 4114126000881020.9
**
 
2546 EW9519 00:00:01:37 560018000861033.5
**
 
2547 EW3743 00:00:01:37 6926176000591023.9
**
 
2548 EW9946 00:00:01:37 59039034867.4
**
 
2549 EW7054 00:00:01:37 0001010.1
**
 
2550 FW0798 00:00:01:37 4503323000611025.8  
2551 EW2281 00:00:01:37 39001100.080.07941004.4
**
 
2552 EW7581 00:00:01:37 350024700068997.2
**
 
2553 DW1308 00:00:01:37 420840871004.6
**
 
2554 DW7675 00:00:01:37 560222500.020.02821026.1
**
 
2555 EW6240 00:00:01:37 7247171000621025.1
**
 
2556 DW4184 00:00:01:37 65111319000681006.4
**
 
2557 CW7706 00:00:01:38 5324235000221018.9
**
 
2558 EW7234 00:00:01:38 310180000911025.9
**
 
2559 DW8556 00:00:01:38 5700252000811023.1
**
 
2560 dw7240 00:00:01:38 33000000721008.7
**
**
2561 DW3664 00:00:01:38 43122890821021.2
**
 
2562 EW8885 00:00:01:38 3403325000941020.2
**
 
2563 DW0777 00:00:01:38 4904286000631019.6
**
 
2564 FW0799 00:00:01:38 3500129000301023.3  
2565 EW8180 00:00:01:38 6202347000571015.7
**
 
2566 FW1924 00:00:01:38 4402207000301010.5  
2567 CW0783 00:00:01:38 330066000961015.5
**
 
2568 DW6862 00:00:01:38 641115254000811005.4
**
 
2569 FW1447 00:00:01:38 3437199000771018.4  
2570 EW8444 00:00:01:39 64611000581009.2
**
 
2571 CW9723 00:00:01:39 353928400.010901006.0
**
 
2572 EW5834 00:00:01:39 475131700581020.4
**
 
2573 EW5986 00:00:01:39 5705340000611017.2
**
 
2574 EW7356 00:00:01:39 320025200.010861007.1
**
 
2575 EW5097 00:00:01:39 72000000541043.5
**
 
2576 DW7778 00:00:01:39 40002700841013.7
**
 
2577 CW1569 00:00:01:39 3223600951016.7
**
 
2578 EW6650 00:00:01:39 41000000851020.7
**
 
2579 FW1485 00:00:01:39 0001026.2  
2580 FW0241 00:00:01:39 4213252000631001.4  
2581 FW2506 00:00:01:39 68916346000381017.8  
2582 FW2559 00:00:01:39 662712300.060921008.2  
2583 DW7859 00:00:01:39 470373000701005.4
**
 
2584 DW5562 00:00:01:40 79613287000761013.1
**
 
2585 DW4029 00:00:01:40 6939233000911019.9
**
 
2586 EW1910 00:00:01:40 4100346000891009.0
**
 
2587 EW7223 00:00:01:40 5200180000881016.7
**
 
2588 CW6526 00:00:01:40 733790000561031.7  
2589 DW1114 00:00:01:40 371021671011.5
**
 
2590 CW0572 00:00:01:40 6200148000871017.7
**
**
2591 DW4610 00:00:01:40 70410231000511022.6
**
 
2592 EW1337 00:00:01:40 64710232000651002.8
**
 
2593 DW1920 00:00:01:40 4108275000731003.7
**
 
2594 EW5526 00:00:01:40 6700100.010.10.01571022.2
**
 
2595 EW9556 00:00:01:40 6516245000591002.6
**
**
2596 EW9838 00:00:01:40 3401321000901011.4
**
 
2597 EW1744 00:00:01:40 4014210000711006.6
**
 
2598 EW8576 00:00:01:40 37141230.020.0287993.6
**
 
2599 CW3186 00:00:01:40 42023220891021.3
**
 
2600 EW1916 00:00:01:40 453368081982.0
**
 
2601 EW2349 00:00:01:40 300035500.050951029.1
**
 
2602 EW5279 00:00:01:40 71610118000141025.7
**
 
2603 EW9720 00:00:01:40 360028600.010641025.9
**
 
2604 EW0095 00:00:01:41 4019323000631021.6
**
 
2605 CW0728 00:00:01:41 4106234000661002.6
**
**
2606 DW5812 00:00:01:41 817139300.140.04831010.2
**
 
2607 DW8790 00:00:01:41 711299000651016.6
**
 
2608 DW7318 00:00:01:41 0001007.6
**
 
2609 EW8510 00:00:01:41 360015000.090971021.2
**
 
2610 CW9901 00:00:01:41 34413300000901020.9
**
**
2611 CW6780 00:00:01:41 41015600811020.8
**
 
2612 DW8095 00:00:01:41 2802950781026.6
**
 
2613 DW7469 00:00:01:41 2900360000931015.0
**
 
2614 EW0039 00:00:01:41 7302135000431023.7
**
 
2615 EW6828 00:00:01:41 733810000881009.6  
2616 DW4267 00:00:01:41 5901171000241009.6
**
 
2617 FW1108 00:00:01:41 3711152270.010.060.01901002.7
**
 
2618 EW4453 00:00:01:41 7401427000601018.6
**
 
2619 FW1446 00:00:01:41 751417700.010501023.7
**
 
2620 EW3581 00:00:01:41 333433900.050881002.0
**
 
2621 EW6623 00:00:01:41 58004000651029.7
**
 
2622 CW8256 00:00:01:42 578145000511022.5
**
 
2623 CW7352 00:00:01:42 60000000841031.0
**
 
2624 EW5833 00:00:01:42 322627200.010831012.9
**
 
2625 EW2940 00:00:01:42 640015700.010981017.5
**
 
2626 EW6555 00:00:01:42 400085000901016.2
**
 
2627 DW6648 00:00:01:42 673623000721021.5
**
 
2628 EW4276 00:00:01:42 431336000.010.01931002.8
**
 
2629 CW1074 00:00:01:42 3905100056998.1
**
 
2630 EW5374 00:00:01:42 32493550.010.030.02941009.7
**
 
2631 EW9231 00:00:01:42 5401355000521023.9
**
 
2632 EW9071 00:00:01:42 3800263000931018.3
**
 
2633 FW1364 00:00:01:42 430128600.30.24941006.0
**
 
2634 FW1432 00:00:01:42 78310139000331027.0
**
 
2635 FW1923 00:00:01:42 293634900.060.02791021.0
**
 
2636 EW5236 00:00:01:42 770448000451028.1
**
 
2637 EW8425 00:00:01:42 663665000621004.2  
2638 EW9101 00:00:01:42 3437299000851006.9
**
 
2639 CW5554 00:00:01:43 6722114000661022.8
**
**
2640 DW6650 00:00:01:43 6314281000901013.5
**
 
2641 EW2847 00:00:01:43 22315259000911008.8
**
 
2642 EW5421 00:00:01:43 28310160000521020.0
**
 
2643 CW1275 00:00:01:44 520055000561024.4
**
 
2644 CW7387 00:00:01:44 4700252000821015.6
**
 
2645 EW8461 00:00:01:44 380121000.010911023.5
**
 
2646 DW4666 00:00:01:44 68815328000461030.7
**
 
2647 EW4954 00:00:01:44 7525208000471026.1
**
 
2648 EW2001 00:00:01:44 3803320000771026.9
**
 
2649 EW4288 00:00:01:44 3412142000791019.8
**
 
2650 DW6610 00:00:01:44 4527309000601021.2
**
 
2651 CW9307 00:00:01:44 31002650591022.7
**
 
2652 FW1271 00:00:01:44 42002810821017.3
**
 
2653 EW9045 00:00:01:44 5715274000711016.3
**
 
2654 EW5582 00:00:01:44 3500105000501025.9
**
 
2655 CW6135 00:00:01:45 386846000211022.5
**
 
2656 CW3200 00:00:01:45 42810107000271024.1
**
 
2657 EW7574 00:00:01:45 4003186000831006.0
**
 
2658 EW4155 00:00:01:45 543632000421024.0
**
 
2659 ew8298 00:00:01:45 650770000361015.3
**
 
2660 FW1785 00:00:01:45 78155000471015.7  
2661 FW1863 00:00:01:45 3802152000921018.0  
2662 FW1173 00:00:01:45 55121000.02261022.4
**
 
2663 CW6162 00:00:01:45 6403313000881016.2
**
 
2664 EW7785 00:00:01:46 481418140000971026.2
**
 
2665 EW1587 00:00:01:46 3014297000581029.7
**
 
2666 EW7942 00:00:01:46 5224158000811013.6
**
 
2667 DW9436 00:00:01:46 3200160000931014.0
**
 
2668 EW3028 00:00:01:46 380086000751010.0
**
 
2669 EW8377 00:00:01:46 6404119000131012.0
**
 
2670 EW6655 00:00:01:46 7249144000361026.3
**
 
2671 DW5582 00:00:01:46 630237000761022.7
**
**
2672 FW0371 00:00:01:46 386102600.010761013.1
**
 
2673 EW8205 00:00:01:46 4017167000361023.2
**
 
2674 DW8979 00:00:01:47 42179000831016.5
**
 
2675 CW9012 00:00:01:47 49512256000411015.5
**
 
2676 CW9739 00:00:01:47 59411192000821020.9
**
 
2677 DW6996 00:00:01:47 6101275000191011.6
**
 
2678 EW5899 00:00:01:47 330328100.010911006.1
**
 
2679 DW0348 00:00:01:47 320028100.110.02931006.8
**
**
2680 CW3157 00:00:01:47 4102710.040.090.09841005.5
**
 
2681 EW3234 00:00:01:48 6403268000951017.0
**
 
2682 EW4076 00:00:01:48 4501283000891017.0
**
 
2683 CW7625 00:00:01:48 4300296000781022.3
**
 
2684 EW4617 00:00:01:48 0001005.1
**
 
2685 EW7999 00:00:01:48 3500345000771027.5
**
 
2686 EW7558 00:00:01:48 4229720.030.050.05921006.7
**
 
2687 EW1855 00:00:01:48 2800159000861020.0
**
 
2688 FW0286 00:00:01:48 69510227000611008.4
**
 
2689 EW0693 00:00:01:48 322832500.070791018.3
**
 
2690 EW8139 00:00:01:48 360027101.28087967.5  
2691 FW1479 00:00:01:48 6931735700451026.6  
2692 EW1315 00:00:01:48 6736244000781024.1
**
 
2693 FW2079 00:00:01:48 4901104000601012.4  
2694 FW2121 00:00:01:48 3321130461025.4
**
 
2695 FW2156 00:00:01:48 30002680651012.5
**
 
2696 FW2497 00:00:01:48 70002910561006.1
**
 
2697 DW9439 00:00:01:48 2913178000681038.4
**
 
2698 FW2643 00:00:01:48 7424248000571021.4  
2699 DW4698 00:00:01:49 440069000751018.2
**
 
2700 EW7739 00:00:01:49 33614300000851016.1
**
 
2701 EW3760 00:00:01:49 5614198000231017.0
**
 
2702 EW7318 00:00:01:49 4100203000661006.2
**
 
2703 DW4604 00:00:01:49 7048305000551029.4
**
 
2704 DW7670 00:00:01:49 41411253000891004.0
**
 
2705 EW7498 00:00:01:49 253432000.220951026.8
**
 
2706 CW3330 00:00:01:49 71610164000521030.8
**
**
2707 EW7443 00:00:01:49 5700105000631020.8
**
 
2708 DW9668 00:00:01:49 330844000901021.1
**
 
2709 EW8406 00:00:01:49 490056000901014.9
**
 
2710 DW6436 00:00:01:49 01015.7
**
 
2711 EW9538 00:00:01:49 4200249000901015.4
**
 
2712 EW3579 00:00:01:49 76814116000231026.0
**
 
2713 EW2895 00:00:01:49 3428122000841014.0
**
 
2714 EW0856 00:00:01:49 493490001020.5
**
 
2715 FW2134 00:00:01:49 420110.04871006.0
**
 
2716 FW0402 00:00:01:49 6317141000751025.5  
2717 FW1630 00:00:01:49 62813209000691014.7  
2718 CW6152 00:00:01:50 35711315000831012.2
**
 
2719 CW5061 00:00:01:50 3900126000961019.7
**
 
2720 EW0352 00:00:01:50 2824314000681027.1
**
 
2721 DW4842 00:00:01:50 450260651024.4
**
 
2722 DW5465 00:00:01:50 320082000991004.6
**
 
2723 EW8931 00:00:01:50 6713206000601006.8
**
 
2724 EW5817 00:00:01:50 319936000.040861017.9  
2725 EW4856 00:00:01:50 41014000851020.4
**
 
2726 EW5913 00:00:01:50 3902331000691005.5
**
 
2727 Fw0501 00:00:01:50 511299000211016.6
**
 
2728 EW9394 00:00:01:50 530570000471026.0
**
 
2729 EW6093 00:00:01:50 6971722000561019.7
**
 
2730 EW6940 00:00:01:51 380096000.01871007.0
**
 
2731 CW6892 00:00:01:51 594680000181011.8
**
 
2732 EW3803 00:00:01:51 682784000651017.6
**
 
2733 EW8862 00:00:01:51 680176000641022.8
**
 
2734 EW0564 00:00:01:51 01012.1
**
 
2735 DW1544 00:00:01:51 67005000541020.1
**
 
2736 FW2176 00:00:01:51 3603277000721021.1
**
 
2737 FW2333 00:00:01:51 4400000791015.6  
2738 DW7734 00:00:01:51 303615300.160681018.0
**
 
2739 DW6049 00:00:01:52 42271800.090.09961005.1
**
 
2740 CW0713 00:00:01:52 3600221000911014.2
**
**
2741 EW6690 00:00:01:52 390113600.070971021.5
**
 
2742 EW2874 00:00:01:52 3067327000891024.8
**
**
2743 DW1388 00:00:01:52 5100266000281013.2
**
 
2744 DW0200 00:00:01:52 3105351000851009.6
**
 
2745 DW1265 00:00:01:52 4301280911017.0
**
 
2746 EW0680 00:00:01:52 34182528300.020901013.3
**
 
2747 EW2542 00:00:01:52 71000000811018.7
**
 
2748 EW5303 00:00:01:52 63000000571002.2
**
 
2749 EW2580 00:00:01:52 3125319000891007.8
**
 
2750 DW0529 00:00:01:52 440021500090968.4  
2751 EW9458 00:00:01:52 441014232000311012.4
**
 
2752 EW9681 00:00:01:52 3431033300.020.02911006.8
**
 
2753 EW9669 00:00:01:52 46110355000731007.1  
2754 FW2471 00:00:01:52 2800192000441028.8  
2755 EW7726 00:00:01:53 3791730000.060771012.3
**
 
2756 EW5921 00:00:01:53 3715350000761018.6
**
 
2757 CW9274 00:00:01:53 320081000641023.0
**
**
2758 CW5467 00:00:01:53 334631500.20941017.0
**
 
2759 FW0191 00:00:01:53 3605138000331029.9
**
 
2760 EW0957 00:00:01:53 2500102000581023.3
**
 
2761 DW6011 00:00:01:53 291536000.150841021.2
**
 
2762 FW1998 00:00:01:53 744129500381028.4
**
 
2763 CW5757 00:00:01:53 6103118000741010.7  
2764 DW9799 00:00:01:54 2824322000651027.1
**
 
2765 DW2741 00:00:01:54 5702325000641014.4
**
 
2766 EW4650 00:00:01:54 5781761000391020.1
**
 
2767 DW5574 00:00:01:54 701457000581022.6
**
 
2768 EW0609 00:00:01:54 4431084000321026.5
**
 
2769 DW8215 00:00:01:54 0001026.4  
2770 EW7523 00:00:01:54 4837228000241012.5
**
 
2771 DW9413 00:00:01:54 2900500.020791014.4
**
 
2772 EW0321 00:00:01:54 59816246000751008.3
**
 
2773 FW1345 00:00:01:54 5105311000761003.8  
2774 EW7567 00:00:01:55 351016154000411023.9
**
 
2775 EW7496 00:00:01:55 41132920.020.030.02851005.5
**
 
2776 EW2663 00:00:01:55 50015000751004.5
**
 
2777 EW6171 00:00:01:55 68310345000741018.0
**
 
2778 CW8897 00:00:01:55 1500224000791028.6
**
 
2779 FW2276 00:00:01:55 69000000201016.3
**
 
2780 FW2576 00:00:01:55 5005355000241022.8
**
 
2781 FW2659 00:00:01:55 331730800.020881026.2  
2782 EW4085 00:00:01:56 4500291000761012.3
**
 
2783 DW2738 00:00:01:56 471245000701003.0
**
 
2784 EW6694 00:00:01:56 271019323000761014.7
**
 
2785 EW7741 00:00:01:56 4702272000851016.9
**
 
2786 EW1950 00:00:01:56 3600117000921003.3
**
 
2787 CW1478 00:00:01:56 67173000701019.8
**
 
2788 EW4311 00:00:01:56 74310168000771019.6
**
**
2789 EW4444 00:00:01:56 4300340000881003.0
**
 
2790 EW8672 00:00:01:57 49614351000941003.8
**
 
2791 cw4141 00:00:01:57 4914174000851014.6
**
 
2792 EW4631 00:00:01:57 383819400066985.0
**
 
2793 EW5637 00:00:01:57 432311200.090.09941005.3
**
 
2794 CW4859 00:00:01:57 4731135500671004.1
**
 
2795 CW0172 00:00:01:57 38002680.120.20.2881004.2
**
 
2796 CW1203 00:00:01:57 6028257000701009.7
**
 
2797 DW8116 00:00:01:57 330227000.240.02871015.6
**
 
2798 EW7372 00:00:01:57 3601126000781020.0
**
 
2799 EW9996 00:00:01:57 420030900.190.19961009.7
**
 
2800 CW6601 00:00:01:57 362388000891018.0
**
 
2801 FW0122 00:00:01:57 4212135000691022.6
**
 
2802 DW5864 00:00:01:57 4200342000801023.0
**
 
2803 EW1680 00:00:01:57 37003150.040.050.05801007.1
**
 
2804 EW7831 00:00:01:57 483771000691027.1
**
 
2805 FW2346 00:00:01:57 6851098000551018.1
**
 
2806 DW7059 00:00:01:58 702422000631024.1
**
**
2807 EW4771 00:00:01:58 3101335000951016.9  
2808 EW7258 00:00:01:58 33121010291014.9
**
 
2809 EW5454 00:00:01:58 75002700004225.2
**
 
2810 EW8805 00:00:01:58 6171268000611021.8
**
 
2811 EW3601 00:00:01:58 32112418200.010481022.4
**
 
2812 EW9935 00:00:01:58 45011070001001022.6
**
 
2813 FW1089 00:00:01:58 2746321000801023.4  
2814 FW2132 00:00:01:58 4625144000701010.5  
2815 DW3528 00:00:01:59 67002350.020.020.02811019.0
**
 
2816 EW8665 00:00:01:59 7036253000451027.2
**
 
2817 EW8599 00:00:01:59 320119400.050951005.3
**
 
2818 DW1998 00:00:01:59 47112255000941003.4
**
 
2819 DW0391 00:00:01:59 4000259000881011.2
**
 
2820 CW0699 00:00:01:59 6101197000901013.2
**
 
2821 EW5198 00:00:01:59 45001170.030.030.03931015.7
**
 
2822 DW5266 00:00:01:59 36001440871011.7
**
 
2823 EW4365 00:00:01:59 335103190.010.130.01941011.9
**
 
2824 CW0962 00:00:01:59 4104207000741005.3
**
 
2825 DW7164 00:00:01:59 3781521100.020651016.5
**
 
2826 EW9683 00:00:01:59 3800194000951014.9
**
 
2827 CW9366 00:00:01:59 36410336000711022.7
**
 
2828 EW0130 00:00:01:59 4171032900.380.31961003.4
**
 
2829 FW0237 00:00:01:59 66311298000571004.2
**
 
2830 FW2179 00:00:01:59 480351000771002.3
**
 
2831 EW5064 00:00:01:59 33019000.01961017.4
**
 
2832 DW5640 00:00:02:00 318124100.170931020.9
**
 
2833 EW5286 00:00:02:00 483710000541022.0
**
 
2834 CW8728 00:00:02:00 310306000731021.8
**
 
2835 CW4409 00:00:02:00 4426265000601012.4
**
 
2836 EW9536 00:00:02:00 681483000521025.0
**
 
2837 DW2789 00:00:02:00 440014000741018.0
**
 
2838 EW1295 00:00:02:00 3951333000.030651016.4
**
 
2839 DW5938 00:00:02:00 3261090000951033.6
**
 
2840 EW9897 00:00:02:00 38352800.120.11931007.0
**
 
2841 EW1196 00:00:02:01 3671731100.010791013.1
**
 
2842 DW1257 00:00:02:01 6100236000901017.9
**
 
2843 EW0731 00:00:02:01 69614350000461020.4
**
 
2844 CW8190 00:00:02:01 6602204000591004.6
**
 
2845 FW0675 00:00:02:01 4402285000791021.1
**
 
2846 CW6038 00:00:02:01 6671383000761013.4
**
 
2847 FW1139 00:00:02:01 71401030.4  
2848 DW8453 00:00:02:01 622024173000741024.5
**
 
2849 DW6851 00:00:02:01 344734000.160.161001006.2
**
 
2850 EW0401 00:00:02:02 682836000521019.7
**
 
2851 DW4129 00:00:02:02 6016206000641004.7
**
 
2852 EW9092 00:00:02:02 5601144000221014.9
**
 
2853 FW2710 00:00:02:02 331015327000921019.8
**
**
2854 CW8919 00:00:02:03 6713333000681018.6
**
 
2855 CW8540 00:00:02:03 3314194000571023.5
**
 
2856 EW0913 00:00:02:03 2900000.020901026.0
**
 
2857 DW2849 00:00:02:03 4423338000771015.5
**
 
2858 DW1379 00:00:02:03 4926244000211020.9
**
 
2859 EW7346 00:00:02:03 271363000311024.2
**
 
2860 EW3732 00:00:02:03 3200267000921023.0
**
 
2861 EW5993 00:00:02:03 424913201.060.0892983.5
**
 
2862 EW2967 00:00:02:03 6427234000100990.6
**
 
2863 EW0410 00:00:02:03 0001018.0
**
 
2864 CW1018 00:00:02:03 6312202000871018.8
**
 
2865 CW4171 00:00:02:03 6232630811023.0
**
**
2866 FW0574 00:00:02:03 41000000831016.9
**
 
2867 FW0858 00:00:02:03 442533100.080.08911006.1
**
 
2868 FW1063 00:00:02:03 7412328000521032.3  
2869 CW9088 00:00:02:04 3503180000561014.6
**
 
2870 DW8295 00:00:02:04 4027255000721004.5
**
 
2871 DW0383 00:00:02:04 3300274000911006.2
**
 
2872 EW5633 00:00:02:04 4904349000691013.9
**
 
2873 EW6118 00:00:02:04 4646360000841022.7
**
 
2874 FW2709 00:00:02:04 2201260501033.6  
2875 CW5521 00:00:02:05 3351333800.030921022.0
**
 
2876 CW0682 00:00:02:05 4047192000821018.3
**
 
2877 DW5664 00:00:02:05 2871134700.130771015.6
**
 
2878 EW6417 00:00:02:05 413733000631026.0
**
 
2879 EW3525 00:00:02:05 770021000561023.0
**
 
2880 CW1020 00:00:02:05 3936268000651014.2
**
**
2881 EW4224 00:00:02:05 292511000971019.6
**
 
2882 EW3115 00:00:02:05 6626249000541006.5
**
 
2883 EW6843 00:00:02:05 7212349000481013.2  
2884 EW9951 00:00:02:05 55815280000761017.3
**
 
2885 FW1416 00:00:02:05 300135300.170901008.0
**
 
2886 EW8284 00:00:02:05 4000289000921031.5
**
 
2887 FW1500 00:00:02:05 65312209000831013.9
**
 
2888 FW2651 00:00:02:05 4371333800.010751012.0  
2889 EW6627 00:00:02:06 62005000571017.9
**
 
2890 DW6242 00:00:02:06 3300279000461020.0
**
 
2891 FW0671 00:00:02:06 70210132000631013.8  
2892 EW7421 00:00:02:06 7617211000741013.1
**
 
2893 DW4579 00:00:02:06 5500337000601022.5
**
 
2894 EW3978 00:00:02:06 7100130000681015.4
**
 
2895 FW1490 00:00:02:06 29211239000661026.5
**
 
2896 FW2010 00:00:02:06 30020000921024.4
**
 
2897 FW2409 00:00:02:06 4213123000301024.8
**
 
2898 DW9944 00:00:02:07 381368998.2
**
 
2899 EW1298 00:00:02:07 313730200.120761022.4
**
 
2900 DW7364 00:00:02:07 46163900731005.2
**
 
2901 DW1850 00:00:02:07 570416000501019.8
**
 
2902 EW4287 00:00:02:07 38001920.110.110.11931007.0
**
 
2903 EW5348 00:00:02:07 440012200.070.07961006.6
**
 
2904 FW2479 00:00:02:07 390310731006.7  
2905 EW1599 00:00:02:08 39013550.120.130.12931002.1
**
 
2906 EW8363 00:00:02:08 4412225000861013.3
**
 
2907 DW8953 00:00:02:08 5437346000721015.8
**
 
2908 DW2963 00:00:02:08 32241700.440.01881020.4
**
 
2909 DW7721 00:00:02:08 6002326000471020.0
**
 
2910 DW4490 00:00:02:08 440063000881023.7
**
 
2911 EW1697 00:00:02:08 4013160000861017.4
**
 
2912 EW1922 00:00:02:08 3900305000691009.3
**
 
2913 FW0298 00:00:02:08 3371111000951014.8  
2914 FW0872 00:00:02:08 6415213000651005.7  
2915 CW7253 00:00:02:08 4136960.020.110.11941003.0
**
 
2916 EW0833 00:00:02:08 394113000711016.4
**
 
2917 DW7000 00:00:02:08 6017111000731004.7
**
 
2918 CW2334 00:00:02:08 33052600.020951009.6
**
 
2919 FW1992 00:00:02:08 4300246000991014.7
**
 
2920 DW1087 00:00:02:08 432024148000531019.3
**
 
2921 EW6018 00:00:02:09 3861325600.060791013.0
**
 
2922 EW5206 00:00:02:09 534141480.040.040.04831004.8
**
 
2923 DW6957 00:00:02:09 3734157000451026.5
**
 
2924 CW5218 00:00:02:09 380038000921021.6
**
 
2925 DW5544 00:00:02:09 370076000891016.3
**
 
2926 DW7658 00:00:02:09 390726000.180761008.2
**
 
2927 EW8921 00:00:02:09 390142000371014.6
**
 
2928 EW8967 00:00:02:09 6002121000181015.0
**
 
2929 EW9043 00:00:02:09 691500481027.6
**
 
2930 FW0366 00:00:02:09 5861348000461023.9
**
 
2931 CW6930 00:00:02:09 4103146000891021.4
**
 
2932 EW3638 00:00:02:09 4502360000841021.9
**
**
2933 FW1686 00:00:02:09 3841031400.270.08941010.6
**
 
2934 DW8231 00:00:02:09 280055000631027.5
**
 
2935 CW9665 00:00:02:09 3503175000341020.2
**
 
2936 FW2437 00:00:02:09 603444000431021.5
**
 
2937 DW6052 00:00:02:09 4100308000881022.4
**
 
2938 DW2537 00:00:02:10 50275000701006.4
**
 
2939 EW1492 00:00:02:10 330335300.130.08961015.2
**
 
2940 CW7559 00:00:02:10 250042000741027.5
**
 
2941 EW4131 00:00:02:10 2936273000471024.2
**
 
2942 DW9923 00:00:02:10 4200290000901059.3
**
 
2943 EW9772 00:00:02:10 630047000911017.8
**
 
2944 FW0320 00:00:02:10 3701322000841006.8
**
 
2945 DW1734 00:00:02:10 3812210000681003.8
**
 
2946 DW0602 00:00:02:10 3103139000411729.1  
2947 FW1286 00:00:02:10 56355000471022.7  
2948 FW2199 00:00:02:10 69110309000531020.6  
2949 FW1326 00:00:02:10 6501114000141013.3  
2950 DW8270 00:00:02:10 303835700.050881023.5
**
 
2951 EW9200 00:00:02:10 370529900.010951019.5
**
 
2952 CW8484 00:00:02:11 333824700.030881004.7
**
 
2953 CW9205 00:00:02:11 4303270000801017.3
**
 
2954 EW2804 00:00:02:11 480034000741024.0
**
**
2955 EW7084 00:00:02:11 3200283000901008.1
**
 
2956 FW2095 00:00:02:11 3603255000841007.7  
2957 DW4408 00:00:02:11 650416000761016.0
**
 
2958 DW4536 00:00:02:12 5312252000211014.2
**
 
2959 DW6885 00:00:02:12 3501178000811005.5
**
 
2960 EW6624 00:00:02:12 361119318000811020.6  
2961 EW7685 00:00:02:12 5500339000931018.4
**
 
2962 EW9565 00:00:02:12 4906212000231022.0  
2963 EW6062 00:00:02:12 532423000431024.4
**
 
2964 CW5711 00:00:02:12 7024259
**
 
2965 EW9154 00:00:02:12 312351000561026.4
**
 
2966 DW8206 00:00:02:12 6014179000841013.0
**
 
2967 EW7211 00:00:02:12 7314125000751017.3
**
 
2968 FW1667 00:00:02:12 5900146000961018.7
**
 
2969 EW2598 00:00:02:13 320028200.020871013.3
**
 
2970 EW1626 00:00:02:13 5800270000731008.5
**
 
2971 DW7441 00:00:02:13 3833360000881022.7
**
 
2972 EW8375 00:00:02:13 3024281000551022.2
**
 
2973 EW3512 00:00:02:13 88714310000801012.5
**
 
2974 FW0058 00:00:02:13 5216182000781016.0  
2975 EW9732 00:00:02:13 4003131000341022.4
**
 
2976 EW4099 00:00:02:13 702429300631024.3
**
 
2977 DW9429 00:00:02:13 68410180000251019.9
**
 
2978 EW9800 00:00:02:13 39012390.090.160.16931008.4  
2979 EW6364 00:00:02:13 62007900059997.6
**
 
2980 FW2661 00:00:02:13 32055300.180.05851020.7
**
 
2981 CW2313 00:00:02:13 370473000621018.4
**
 
2982 EW4645 00:00:02:14 517119600.010.01951022.1
**
 
2983 EW6131 00:00:02:14 440016500.060.06951004.9
**
 
2984 EW6381 00:00:02:14 7714103000391024.1
**
 
2985 EW5045 00:00:02:14 5301360000781016.9
**
 
2986 EW3773 00:00:02:14 0001014.7
**
 
2987 EW8870 00:00:02:14 491425240000261012.3
**
 
2988 FW2201 00:00:02:14 3501390.040.080.08931004.5  
2989 FW2306 00:00:02:14 39617346000721023.9  
2990 DW2113 00:00:02:14 40006500065
**
 
2991 FW2625 00:00:02:14 40003180.060.140.1494987.2  
2992 FW2719 00:00:02:14 3300274000751023.7  
2993 EW2805 00:00:02:15 5300271000781016.5
**
 
2994 CW5430 00:00:02:15 460437000591005.9
**
**
2995 FW0285 00:00:02:15 52005000781017.5  
2996 EW2513 00:00:02:15 31414320000661021.2
**
 
2997 EW9132 00:00:02:15 7337159000481025.9
**
 
2998 EW8704 00:00:02:16 300016591025.2
**
 
2999 EW3001 00:00:02:16 2858271000891028.8
**
 
3000 EW7118 00:00:02:16 5514119000451023.2
**
**
3001 CW4869 00:00:02:16 34152815000731012.8
**
**
3002 DW4212 00:00:02:16 6504153000441024.1
**
 
3003 DW1593 00:00:02:16 4300000631020.1
**
 
3004 EW7460 00:00:02:17 471438000851005.1
**
 
3005 EW2070 00:00:02:17 5800234000851017.6
**
 
3006 EW3108 00:00:02:17 5813260000581029.1
**
 
3007 EW2563 00:00:02:17 36021100.050.05901005.4
**
**
3008 EW2257 00:00:02:17 3801900.060.060.06931009.5
**
 
3009 FW0987 00:00:02:17 5100000551012.0
**
 
3010 EW1796 00:00:02:17 4001980361004.9
**
 
3011 FW2008 00:00:02:17 691411000511031.5  
3012 EW5214 00:00:02:18 4201243000921021.4
**
 
3013 DW1774 00:00:02:18 70102333000491020.2
**
 
3014 EW8426 00:00:02:18 4003370981002.2
**
 
3015 DW6341 00:00:02:18 0001012.6
**
 
3016 FW0248 00:00:02:18 6526194000651007.3  
3017 EW4959 00:00:02:18 5945193000831016.3
**
 
3018 EW3881 00:00:02:18 320024600.010841025.6
**
 
3019 EW5445 00:00:02:18 473732300.130.1375999.2
**
 
3020 CW2399 00:00:02:19 422553000351016.2
**
**
3021 DW7624 00:00:02:19 5900000961018.7
**
 
3022 DW6345 00:00:02:19 682658000441021.8
**
 
3023 EW1706 00:00:02:19 4100241000661006.1
**
 
3024 EW6074 00:00:02:19 3413232000851004.3
**
 
3025 EW3266 00:00:02:19 38915288000801013.9
**
 
3026 DW8025 00:00:02:19 34913250.020.140.08951021.1
**
 
3027 EW6659 00:00:02:19 340226200.030891006.7
**
 
3028 FW2127 00:00:02:19 403311300271027.8
**
 
3029 DW9484 00:00:02:19 580288000481021.7
**
 
3030 DW4375 00:00:02:19 6542230701004.3
**
 
3031 DW7902 00:00:02:20 430199000841015.4
**
 
3032 EW5893 00:00:02:20 60000000801017.0
**
 
3033 DW9451 00:00:02:20 001870001006.2
**
 
3034 EW3980 00:00:02:20 49410306000731015.6
**
 
3035 EW6898 00:00:02:20 4402338000811016.4
**
 
3036 DW4139 00:00:02:20 35670831010.8
**
**
3037 EW7004 00:00:02:20 5057219000791018.5
**
 
3038 DW0542 00:00:02:20 3700297000801007.2
**
 
3039 CW7720 00:00:02:20 3891513500011026.3
**
 
3040 EW7659 00:00:02:20 3800311000741021.9
**
 
3041 FW0318 00:00:02:20 5900000981018.3  
3042 DW0895 00:00:02:20 3500157000751022.0
**
 
3043 DW8324 00:00:02:20 2700000901022.4
**
 
3044 FW0756 00:00:02:20 502267000471010.6
**
 
3045 FW1426 00:00:02:20 551487000251012.1  
3046 EW2342 00:00:02:20 345101690.030.140.09951018.7
**
 
3047 FW1348 00:00:02:20 6119283000851013.3
**
 
3048 EW9267 00:00:02:20 6200671006.5
**
 
3049 EW4124 00:00:02:21 761311300421026.3
**
 
3050 EW7049 00:00:02:21 5300691010.5
**
 
3051 CW9692 00:00:02:21 482613000801004.1
**
 
3052 EW9208 00:00:02:21 333634000.020911023.9
**
 
3053 EW7456 00:00:02:21 337164600.490841011.9  
3054 FW0465 00:00:02:21 430143000831015.5  
3055 DW6609 00:00:02:21 32004100.020901006.3
**
 
3056 FW1716 00:00:02:21 72310135000561025.7  
3057 EW9672 00:00:02:21 6000000391008.9
**
 
3058 FW1789 00:00:02:21 6956209000811022.5  
3059 EW9363 00:00:02:21 6718191000611009.2
**
 
3060 FW0042 00:00:02:21 5225340000761026.5  
3061 EW6501 00:00:02:22 400223000891070.4
**
 
3062 EW4043 00:00:02:22 32815151000481031.8
**
 
3063 CW6695 00:00:02:22 390421100.160651011.9
**
 
3064 EW7957 00:00:02:22 74120000441022.6
**
 
3065 DW0929 00:00:02:22 3600107000841006.6
**
 
3066 DW5993 00:00:02:22 3200000531023.6
**
 
3067 EW6919 00:00:02:22 4401277000711014.7
**
 
3068 DW8303 00:00:02:22 14282280001001.8
**
 
3069 EW1168 00:00:02:22 7118156000551024.7
**
 
3070 EW4551 00:00:02:22 5100291000931006.4
**
 
3071 FW0106 00:00:02:22 3600359000841009.8  
3072 EW9671 00:00:02:22 60340000341008.0
**
 
3073 EW3680 00:00:02:22 5317236000831016.0
**
 
3074 EW5137 00:00:02:22 631516400.050.01661004.6
**
 
3075 DW0076 00:00:17:57 5600319000661017.5
**
 
3076 EW8424 00:00:02:23 4900270000561015.8
**
 
3077 EW5766 00:00:02:23 4500316000861010.5
**
 
3078 CW1123 00:00:02:23 39312326000621020.5
**
 
3079 DW8589 00:00:02:23 67000000491031.4
**
 
3080 CW2403 00:00:02:23 54424300000781007.7
**
 
3081 EW4061 00:00:02:23 57272420.080.080.08301008.4
**
 
3082 DW4765 00:00:02:23 4235202000191015.6
**
 
3083 EW4196 00:00:02:23 44049000611026.5
**
 
3084 EW5376 00:00:02:23 5600186000901018.9
**
 
3085 dw8394 00:00:02:23 7104203000511001.0
**
 
3086 FW0380 00:00:02:23 4848000069995.0
**
 
3087 EW7364 00:00:02:23 483890000351231.3
**
 
3088 CW8854 00:00:02:23 280080000931020.7
**
 
3089 EW3057 00:00:02:23 3449183000771027.9
**
 
3090 FW1695 00:00:02:23 620524100.010711024.7  
3091 FW2021 00:00:02:23 430051000911023.1
**
 
3092 FW2310 00:00:02:23 764917000311021.6  
3093 EW1106 00:00:02:23 592636000691007.8
**
 
3094 DW8712 00:00:02:24 680036000711021.1
**
 
3095 EW5895 00:00:02:24 7061822000401026.3
**
 
3096 DW6832 00:00:02:24 31022300.010601025.3  
3097 EW1971 00:00:02:24 43257800.120.12891003.7
**
 
3098 DW6706 00:00:02:24 6000281000741020.4  
3099 CW6764 00:00:02:24 6371726000741024.3
**
 
3100 EW3950 00:00:02:24 6512900.020721026.5
**
 
3101 CW3367 00:00:02:24 5700243000871018.4
**
 
3102 EW7971 00:00:02:24 4000000871022.2
**
 
3103 DW4559 00:00:02:24 4200900.010.110.11901006.9  
3104 EW7690 00:00:02:24 43591620.030.090.09901003.4
**
 
3105 FW2141 00:00:02:24 5400360000341009.6
**
 
3106 EW2516 00:00:02:25 3034216000721020.9
**
 
3107 DW9239 00:00:02:25 6538322000651028.5  
3108 DW5164 00:00:02:25 7491485000441028.3
**
 
3109 EW0169 00:00:02:25 6626185000661031.5
**
 
3110 EW3205 00:00:02:25 5203199000991031.6
**
 
3111 DW9345 00:00:02:25 4412284000771023.1
**
 
3112 EW7647 00:00:02:25 371321293000661021.7
**
 
3113 CW6301 00:00:02:25 233432400061980.0
**
 
3114 FW1783 00:00:02:25 69112992000491020.0  
3115 FW1803 00:00:02:25 611623145000681019.7  
3116 EW1553 00:00:02:25 4223355000791017.2
**
 
3117 EW7840 00:00:02:26 490186000741003.8
**
 
3118 CW4038 00:00:02:26 5302354000501015.4
**
 
3119 DW6881 00:00:02:26 421631000.340.24991003.0
**
 
3120 EW0908 00:00:02:26 7011289000591022.4
**
**
3121 CW2978 00:00:02:26 4200254000791016.6
**
**
3122 CW4952 00:00:02:26 6103244000871013.2
**
 
3123 DW0713 00:00:02:26 3400148000771024.0
**
 
3124 DW7440 00:00:02:26 36715297000661025.3
**
 
3125 FW1095 00:00:02:26 321422355000781017.3
**
 
3126 EW8182 00:00:02:26 3726229000811011.6
**
 
3127 DW6328 00:00:02:26 0001016.1
**
 
3128 FW2784 00:00:02:26 64210127000741015.1  
3129 EW7349 00:00:02:27 471353000811003.5
**
 
3130 EW1762 00:00:02:27 494130000691005.2
**
 
3131 DW2659 00:00:02:27 613851000661013.8
**
 
3132 DW8293 00:00:02:27 5949296000521027.1
**
 
3133 DW9169 00:00:02:27 7407223000441024.3
**
 
3134 DW9374 00:00:02:27 300279000941019.3
**
 
3135 DW2751 00:00:02:27 6300184000211007.2
**
 
3136 EW0051 00:00:02:27 7625187000521027.8
**
 
3137 EW8849 00:00:02:27 4000338000911021.8
**
 
3138 EW9949 00:00:02:27 18007400.010921023.6
**
 
3139 FW0185 00:00:02:27 680619000561005.0
**
 
3140 FW1079 00:00:02:27 705129000191024.2
**
 
3141 EW4112 00:00:02:27 5002352000651024.2
**
 
3142 FW1508 00:00:02:27 332835500.060.01901005.4
**
 
3143 FW1782 00:00:02:27 243726600.090881028.0
**
 
3144 FW1373 00:00:02:27 5503281000431026.2  
3145 EW4549 00:00:02:28 5900351000921018.9
**
 
3146 EW6439 00:00:02:28 39272200.060701013.5
**
 
3147 EW3049 00:00:02:28 4527179000171008.9
**
 
3148 EW3529 00:00:02:28 51591200.830821004.3
**
 
3149 EW5123 00:00:02:28 3502225000401022.5
**
 
3150 EW0943 00:00:02:28 27251000791020.0
**
 
3151 DW8571 00:00:02:28 53812338000621016.9
**
 
3152 CW1324 00:00:02:28 670083000871019.2
**
 
3153 EW5812 00:00:02:28 360153000341021.1
**
 
3154 EW9924 00:00:02:28 647109000911018.9
**
 
3155 DW7575 00:00:02:28 3017350000881025.4
**
 
3156 FW0441 00:00:02:28 220034000851026.4  
3157 EW1271 00:00:02:28 6316238000841009.9
**
 
3158 EW0663 00:00:02:28 3928800741025.7
**
 
3159 EW0298 00:00:02:28 7125125000551024.5
**
 
3160 EW3675 00:00:02:29 580514000451020.9
**
 
3161 EW2974 00:00:02:29 3361430.010.030.02851009.2
**
 
3162 EW4245 00:00:02:29 53009000541022.8
**
 
3163 EW5474 00:00:02:29 6414178000651002.6
**
 
3164 CW7410 00:00:02:29 4303600641011.7
**
 
3165 CW6129 00:00:02:29 3800311000841015.5
**
 
3166 EW7199 00:00:02:29 6951291000601020.0
**
 
3167 EW1859 00:00:02:29 501324000711014.9
**
 
3168 CW5329 00:00:02:29 68613234000361031.9
**
 
3169 DW7172 00:00:02:29 5801207000901017.2
**
 
3170 FW1549 00:00:02:29 416172790.010.520.24931004.9
**
 
3171 EW7472 00:00:02:29 4947293000811016.4
**
 
3172 FW2229 00:00:02:29 45265000801006.3  
3173 EW4767 00:00:02:30 3536265000901005.3
**
 
3174 EW3949 00:00:02:30 673925200671026.8
**
 
3175 EW6204 00:00:02:30 412316100.060911020.9
**
 
3176 DW8338 00:00:02:30 7171271000481017.4
**
 
3177 EW8309 00:00:02:30 3600300000761026.3
**
 
3178 EW3764 00:00:02:30 4900304000821004.7
**
 
3179 CW4177 00:00:02:30 530000771013.2
**
**
3180 EW8999 00:00:02:30 540013200511023.8
**
 
3181 DW7567 00:00:02:30 530333800.4401001003.9
**
 
3182 FW0236 00:00:02:30 3401283000771013.8  
3183 FW1039 00:00:02:30 360216800.010941024.0
**
 
3184 CW6538 00:00:02:30 66712318000611029.7
**
 
3185 DW0282 00:00:02:30 48814348000881003.4
**
 
3186 CW6259 00:00:02:31 430133700861022.6
**
 
3187 EW6944 00:00:02:31 534122310.030.030.03831006.8
**
 
3188 DW5453 00:00:04:33 75612102000431027.6
**
 
3189 DW1024 00:00:02:31 7125125000431029.1
**
 
3190 DW9994 00:00:02:31 73513123000471030.1  
3191 DW5194 00:00:02:31 735753000401029.1
**
 
3192 DW7379 00:00:02:31 6259129000731023.7
**
**
3193 EW5139 00:00:02:31 37373020<